[[{"header":{"parameterUnit":"m.s-1","parameterCategory":1,"la1":31.0,"la2":29.5877,"lo1":-88.7671,"lo2":-86.6584,"dy":0.0162,"dx":0.0185,"nx":115,"ny":88,"refTime":"2026-02-17T12:00:00:Z","depth":0,"parameterNumber":2,"parameterNumberName":"U-component_of_WINDS"},"data":[0.0,0.0,0.0,0.0,0.0,0.0,0.0,0.0,0.0,0.0,0.0,0.0,0.0,0.0,0.0,0.0,0.0,0.0,0.0,0.0,0.0,0.0,0.0,0.0,0.0,0.0,0.0,0.0,0.0,0.0,0.0,0.0,0.0,0.0,0.0,0.0,0.0,0.0,0.0,0.0,0.0,0.0,0.0,0.0,0.0,0.0,0.0,0.0,0.0,0.0,0.0,0.0,0.0,0.0,0.0,0.0,0.0,0.0,0.0,0.0,0.0,0.0,0.0,0.0,0.0,0.0,0.0,0.0,0.0,0.0,0.0,0.0,0.0,0.0,0.0,0.0,0.0,0.0,0.0,0.0,0.0,0.0,0.0,0.0,0.0,0.0,0.0,0.0,0.0,0.0,0.0,0.0,0.0,0.0,0.0,0.0,0.0,0.0,0.0,0.0,0.0,0.0,0.0,0.0,0.0,0.0,0.0,0.0,0.0,0.0,0.0,0.0,0.0,0.0,0.0,0.0,0.0,0.0,0.0,0.0,0.0,0.0,0.0,0.0,0.0,0.0,0.0,0.0,0.0,0.0,0.0,0.0,0.0,0.0,0.0,0.0,0.0,0.0,0.0,0.0,0.0,0.0,0.0,0.0,0.0,0.0,0.0,0.0,0.0,0.0,0.0,0.0,0.0,0.0,0.0,0.0,0.0,0.0,0.0,0.0,0.0,0.0,0.0,0.0,0.0,0.0,0.0,0.0,0.0,0.0,0.0,0.0,0.0,0.0,0.0,0.0,0.0,0.0,0.0,0.0,0.0,0.0,0.0,0.0,0.0,0.0,0.0,0.0,0.0,0.0,0.0,0.0,0.0,0.0,0.0,0.0,0.0,0.0,0.0,0.0,0.0,0.0,0.0,0.0,0.0,0.0,0.0,0.0,0.0,0.0,0.0,0.0,0.0,0.0,0.0,0.0,0.0,0.0,0.0,0.0,0.0,0.0,0.0,0.0,0.0,0.0,0.0,0.0,0.0,0.0,0.0,0.0,0.0,0.0,0.0,0.0,0.0,0.0,0.0,0.0,0.0,0.0,0.0,0.0,0.0,0.0,0.0,0.0,0.0,0.0,0.0,0.0,0.0,0.0,0.0,0.0,0.0,0.0,0.0,0.0,0.0,0.0,0.0,0.0,0.0,0.0,0.0,0.0,0.0,0.0,0.0,0.0,0.0,0.0,0.0,0.0,0.0,0.0,0.0,0.0,0.0,0.0,0.0,0.0,0.0,0.0,0.0,0.0,0.0,0.0,0.0,0.0,0.0,0.0,0.0,0.0,0.0,0.0,0.0,0.0,0.0,0.0,0.0,0.0,0.0,0.0,0.0,0.0,0.0,0.0,0.0,0.0,0.0,0.0,0.0,0.0,0.0,0.0,0.0,0.0,0.0,0.0,0.0,0.0,0.0,0.0,0.0,0.0,0.0,0.0,0.0,0.0,0.0,0.0,0.0,0.0,0.0,0.0,0.0,0.0,0.0,0.0,0.0,0.0,0.0,0.0,0.0,0.0,0.0,0.0,0.0,0.0,0.0,0.0,0.0,0.0,0.0,0.0,0.0,0.0,0.0,0.0,0.0,0.0,0.0,0.0,0.0,0.0,0.0,0.0,0.0,0.0,0.0,0.0,0.0,0.0,0.0,0.0,0.0,0.0,0.0,0.0,0.0,0.0,0.0,0.0,0.0,0.0,0.0,0.0,0.0,0.0,0.0,0.0,0.0,0.0,0.0,0.0,0.0,0.0,0.0,0.0,0.0,0.0,0.0,0.0,0.0,0.0,0.0,0.0,0.0,0.0,0.0,0.0,0.0,0.0,0.0,0.0,0.0,0.0,0.0,0.0,0.0,0.0,0.0,0.0,0.0,0.0,0.0,0.0,0.0,0.0,0.0,0.0,0.0,0.0,0.0,0.0,0.0,0.0,0.0,0.0,0.0,0.0,0.0,0.0,0.0,0.0,0.0,0.0,0.0,0.0,0.0,0.0,0.0,0.0,0.0,0.0,0.0,0.0,0.0,0.0,0.0,0.0,0.0,0.0,0.0,0.0,0.0,0.0,0.0,0.0,0.0,0.0,0.0,0.0,0.0,0.0,0.0,0.0,0.0,0.0,0.0,0.0,0.0,0.0,0.0,0.0,0.0,0.0,0.0,0.0,0.0,0.0,0.0,0.0,0.0,0.0,0.0,0.0,0.0,0.0,0.0,0.0,0.0,0.0,0.0,0.0,0.0,0.0,0.0,0.0,0.0,0.0,0.0,0.0,0.0,0.0,0.0,0.0,0.0,0.0,0.0,0.0,0.0,0.0,0.0,0.0,0.0,0.0,0.0,0.0,0.0,0.0,0.0,0.0,0.0,0.0,0.0,0.0,0.0,0.0,0.0,0.0,0.0,0.0,0.0,0.0,0.0,0.0,0.0,0.0,0.0,0.0,0.0,0.0,0.0,0.0,0.0,0.0,0.0,0.0,0.0,0.0,0.0,0.0,0.0,0.0,0.0,0.0,0.0,0.0,0.0,0.0,0.0,0.0,0.0,0.0,0.0,0.0,0.0,0.0,0.0,0.0,0.0,0.0,0.0,0.0,0.0,0.0,0.0,0.0,0.0,0.0,0.0,0.0,0.0,0.0,0.0,0.0,0.0,0.0,0.0,0.0,0.0,0.0,0.0,0.0,0.0,0.0,0.0,0.0,0.0,0.0,0.0,0.0,0.0,0.0,0.0,0.0,0.0,0.0,0.0,0.0,0.0,0.0,0.0,0.0,0.0,0.0,0.0,0.0,0.0,0.0,0.0,0.0,0.0,0.0,0.0,0.0,0.0,0.0,0.0,0.0,0.0,0.0,0.0,0.0,0.0,0.0,0.0,0.0,0.0,0.0,0.0,0.0,0.0,0.0,0.0,0.0,0.0,0.0,0.0,0.0,0.0,0.0,0.0,0.0,0.0,0.0,0.0,0.0,0.0,0.0,0.0,0.0,0.0,0.0,0.0,0.0,0.0,0.0,0.0,0.0,0.0,0.0,0.0,0.0,0.0,0.0,0.0,0.0,0.0,0.0,0.0,0.0,0.0,0.0,0.0,0.0,0.0,0.0,0.0,0.0,0.0,0.0,0.0,0.0,0.0,0.0,0.0,0.0,0.0,0.0,0.0,0.0,0.0,0.0,0.0,0.0,0.0,0.0,0.0,0.0,0.0,0.0,0.0,0.0,0.0,0.0,0.0,0.0,0.0,0.0,0.0,0.0,0.0,0.0,0.0,0.0,0.0,0.0,0.0,0.0,0.0,0.0,0.0,0.0,0.0,0.0,0.0,0.0,0.0,0.0,0.0,0.0,0.0,0.0,0.0,0.0,0.0,0.0,0.0,0.0,0.0,0.0,0.0,0.0,0.0,0.0,0.0,0.0,0.0,0.0,0.0,0.0,0.0,0.0,0.0,0.0,0.0,0.0,0.0,0.0,0.0,0.0,0.0,0.0,0.0,0.0,0.0,0.0,0.0,0.0,0.0,0.0,0.0,0.0,0.0,0.0,0.0,0.0,0.0,0.0,0.0,0.0,0.0,0.0,0.0,0.0,0.0,0.0,0.0,0.0,0.0,0.0,0.0,0.0,0.0,0.0,0.0,0.0,0.0,0.0,0.0,0.0,0.0,0.0,0.0,0.0,0.0,0.0,0.0,0.0,0.0,0.0,0.0,0.0,0.0,0.0,0.0,0.0,0.0,0.0,0.0,0.0,0.0,0.0,0.0,0.0,0.0,0.0,0.0,0.0,0.0,0.0,0.0,0.0,0.0,0.0,0.0,0.0,0.0,0.0,0.0,0.0,0.0,0.0,0.0,0.0,0.0,0.0,0.0,0.0,0.0,0.0,0.0,0.0,0.0,0.0,0.0,0.0,0.0,0.0,0.0,0.0,0.0,0.0,0.0,0.0,0.0,0.0,0.0,0.0,0.0,0.0,0.0,0.0,0.0,0.0,0.0,0.0,0.0,0.0,0.0,0.0,0.0,0.0,0.0,0.0,0.0,0.0,0.0,0.0,0.0,0.0,0.0,0.0,0.0,0.0,0.0,0.0,0.0,0.0,0.0,0.0,0.0,0.0,0.0,0.0,0.0,0.0,0.0,0.0,0.0,0.0,0.0,0.0,0.0,0.0,0.0,0.0,0.0,0.0,0.0,0.0,0.0,0.0,0.0,0.0,0.0,0.0,0.0,0.0,0.0,0.0,0.0,0.0,0.0,0.0,0.0,0.0,0.0,0.0,0.0,0.0,5.3203,0.0,0.0,0.0,0.0,0.0,0.0,0.0,0.0,0.0,0.0,0.0,0.0,0.0,0.0,0.0,0.0,0.0,0.0,0.0,0.0,0.0,0.0,0.0,0.0,0.0,0.0,0.0,0.0,0.0,0.0,0.0,0.0,0.0,0.0,0.0,0.0,0.0,0.0,0.0,0.0,0.0,0.0,0.0,0.0,0.0,0.0,0.0,0.0,0.0,0.0,0.0,0.0,0.0,0.0,0.0,0.0,0.0,0.0,0.0,0.0,0.0,0.0,0.0,0.0,0.0,0.0,0.0,0.0,0.0,0.0,0.0,0.0,0.0,0.0,0.0,0.0,0.0,0.0,0.0,0.0,0.0,0.0,0.0,0.0,0.0,0.0,0.0,0.0,0.0,0.0,0.0,0.0,0.0,0.0,0.0,0.0,0.0,0.0,0.0,0.0,0.0,0.0,0.0,0.0,0.0,0.0,0.0,0.0,0.0,0.0,5.5703,5.5665,5.4472,5.3626,5.3203,0.0,0.0,0.0,0.0,0.0,0.0,0.0,0.0,0.0,0.0,0.0,0.0,0.0,0.0,0.0,0.0,0.0,0.0,0.0,0.0,0.0,0.0,0.0,0.0,0.0,0.0,0.0,0.0,0.0,0.0,0.0,0.0,0.0,0.0,0.0,0.0,0.0,0.0,0.0,0.0,0.0,0.0,0.0,0.0,0.0,0.0,0.0,0.0,0.0,0.0,0.0,0.0,0.0,0.0,0.0,0.0,0.0,0.0,0.0,0.0,0.0,0.0,0.0,0.0,0.0,0.0,0.0,0.0,0.0,0.0,0.0,0.0,0.0,0.0,0.0,0.0,0.0,0.0,0.0,0.0,0.0,0.0,0.0,0.0,0.0,0.0,0.0,0.0,0.0,0.0,0.0,0.0,0.0,0.0,0.0,0.0,0.0,0.0,0.0,0.0,0.0,0.0,0.0,0.0,0.0,0.0,0.0,0.0,0.0,0.0,0.0,0.0,5.5318,5.4357,5.3759,0.0,0.0,0.0,0.0,0.0,0.0,0.0,0.0,0.0,0.0,0.0,0.0,0.0,0.0,0.0,0.0,0.0,0.0,0.0,0.0,0.0,0.0,0.0,0.0,0.0,0.0,0.0,0.0,0.0,0.0,0.0,0.0,0.0,0.0,0.0,0.0,0.0,0.0,0.0,0.0,0.0,0.0,0.0,0.0,0.0,0.0,0.0,0.0,0.0,0.0,0.0,0.0,0.0,0.0,0.0,0.0,0.0,0.0,0.0,0.0,0.0,0.0,0.0,0.0,0.0,0.0,0.0,0.0,0.0,0.0,0.0,0.0,0.0,0.0,0.0,0.0,0.0,0.0,0.0,0.0,0.0,0.0,0.0,0.0,0.0,0.0,0.0,0.0,0.0,0.0,0.0,0.0,0.0,0.0,0.0,0.0,0.0,0.0,0.0,0.0,0.0,0.0,0.0,0.0,0.0,0.0,0.0,0.0,0.0,0.0,5.6066,5.905,5.8973,0.0,5.5643,0.0,0.0,0.0,0.0,0.0,0.0,0.0,0.0,0.0,0.0,0.0,0.0,0.0,0.0,0.0,0.0,0.0,0.0,0.0,0.0,0.0,0.0,0.0,0.0,0.0,0.0,0.0,0.0,0.0,0.0,0.0,0.0,0.0,0.0,0.0,0.0,0.0,0.0,0.0,0.0,0.0,0.0,0.0,0.0,0.0,0.0,0.0,0.0,0.0,0.0,0.0,0.0,0.0,0.0,0.0,0.0,0.0,0.0,0.0,0.0,0.0,0.0,0.0,0.0,0.0,0.0,0.0,0.0,0.0,0.0,0.0,0.0,0.0,0.0,0.0,0.0,0.0,0.0,0.0,0.0,0.0,0.0,0.0,0.0,0.0,0.0,0.0,0.0,0.0,0.0,0.0,0.0,0.0,0.0,0.0,0.0,0.0,0.0,0.0,0.0,0.0,0.0,0.0,0.0,0.0,0.0,0.0,0.0,0.0,0.0,0.0,5.8781,5.778,5.6549,0.0,0.0,0.0,0.0,0.0,0.0,0.0,0.0,0.0,0.0,0.0,0.0,0.0,0.0,0.0,0.0,0.0,0.0,0.0,0.0,0.0,0.0,0.0,0.0,0.0,0.0,0.0,0.0,0.0,0.0,0.0,0.0,0.0,0.0,0.0,0.0,0.0,0.0,0.0,0.0,0.0,0.0,0.0,0.0,0.0,0.0,0.0,0.0,0.0,0.0,0.0,0.0,0.0,0.0,0.0,0.0,0.0,0.0,0.0,0.0,0.0,0.0,0.0,0.0,0.0,0.0,0.0,0.0,0.0,0.0,0.0,0.0,0.0,0.0,0.0,0.0,0.0,0.0,0.0,0.0,0.0,0.0,0.0,0.0,0.0,0.0,0.0,0.0,0.0,0.0,0.0,0.0,0.0,0.0,0.0,0.0,0.0,0.0,0.0,0.0,0.0,0.0,0.0,0.0,0.0,0.0,0.0,0.0,0.0,0.0,5.7493,0.0,5.9181,5.7896,5.6165,5.4203,0.0,0.0,0.0,0.0,0.0,0.0,0.0,0.0,0.0,0.0,0.0,0.0,0.0,0.0,0.0,0.0,0.0,0.0,0.0,0.0,0.0,0.0,0.0,0.0,0.0,0.0,0.0,0.0,0.0,0.0,0.0,0.0,0.0,0.0,0.0,0.0,0.0,0.0,0.0,0.0,0.0,0.0,0.0,0.0,0.0,0.0,0.0,0.0,0.0,0.0,0.0,0.0,0.0,0.0,0.0,0.0,0.0,0.0,0.0,0.0,0.0,0.0,0.0,0.0,0.0,0.0,0.0,0.0,0.0,0.0,0.0,0.0,0.0,0.0,0.0,0.0,0.0,0.0,0.0,0.0,0.0,0.0,0.0,0.0,0.0,0.0,0.0,0.0,0.0,0.0,0.0,0.0,0.0,0.0,0.0,0.0,0.0,0.0,0.0,0.0,0.0,0.0,0.0,0.0,0.0,0.0,0.0,0.0,0.0,5.8611,5.8611,6.1781,6.1012,5.8242,0.0,0.0,0.0,0.0,0.0,0.0,0.0,0.0,0.0,0.0,0.0,0.0,0.0,0.0,0.0,0.0,0.0,0.0,0.0,0.0,0.0,0.0,0.0,0.0,0.0,0.0,0.0,0.0,0.0,0.0,0.0,0.0,0.0,0.0,0.0,0.0,0.0,0.0,0.0,0.0,0.0,0.0,0.0,0.0,0.0,0.0,0.0,0.0,0.0,0.0,0.0,0.0,0.0,0.0,0.0,0.0,0.0,0.0,0.0,0.0,0.0,0.0,0.0,0.0,0.0,0.0,0.0,0.0,0.0,0.0,0.0,0.0,0.0,0.0,0.0,0.0,0.0,0.0,0.0,0.0,0.0,0.0,0.0,0.0,0.0,0.0,0.0,0.0,0.0,0.0,0.0,0.0,0.0,0.0,0.0,0.0,0.0,0.0,0.0,0.0,0.0,0.0,0.0,0.0,0.0,0.0,0.0,0.0,0.0,5.5472,5.5951,5.8566,6.3281,5.8665,5.5549,0.0,0.0,0.0,0.0,0.0,0.0,0.0,0.0,0.0,0.0,0.0,0.0,0.0,0.0,0.0,0.0,0.0,0.0,0.0,0.0,0.0,0.0,0.0,0.0,0.0,0.0,0.0,0.0,0.0,0.0,0.0,0.0,0.0,0.0,0.0,0.0,0.0,0.0,0.0,0.0,0.0,0.0,0.0,0.0,0.0,0.0,0.0,0.0,0.0,0.0,0.0,0.0,0.0,0.0,0.0,0.0,0.0,0.0,0.0,0.0,0.0,0.0,0.0,0.0,0.0,0.0,0.0,0.0,0.0,0.0,0.0,0.0,0.0,0.0,0.0,0.0,0.0,0.0,0.0,0.0,0.0,0.0,0.0,0.0,0.0,0.0,0.0,0.0,0.0,0.0,0.0,0.0,0.0,0.0,0.0,0.0,0.0,0.0,0.0,0.0,0.0,0.0,0.0,0.0,0.0,0.0,0.0,0.0,0.0,5.4357,0.0,5.9704,0.0,5.7434,5.4049,0.0,0.0,0.0,0.0,0.0,0.0,0.0,0.0,0.0,0.0,0.0,0.0,0.0,0.0,0.0,0.0,0.0,0.0,0.0,0.0,0.0,0.0,0.0,0.0,0.0,0.0,0.0,0.0,0.0,0.0,0.0,0.0,0.0,0.0,0.0,0.0,0.0,0.0,0.0,0.0,0.0,0.0,0.0,0.0,0.0,0.0,0.0,0.0,0.0,0.0,0.0,0.0,0.0,0.0,0.0,0.0,0.0,0.0,0.0,0.0,0.0,0.0,0.0,0.0,0.0,0.0,0.0,0.0,0.0,0.0,0.0,0.0,0.0,0.0,0.0,0.0,0.0,0.0,0.0,0.0,0.0,0.0,0.0,0.0,0.0,0.0,0.0,0.0,0.0,0.0,0.0,0.0,0.0,0.0,0.0,0.0,0.0,0.0,0.0,0.0,0.0,0.0,0.0,0.0,0.0,0.0,0.0,0.0,0.0,5.9149,6.1704,6.1897,5.9665,5.7819,5.4164,0.0,0.0,0.0,0.0,0.0,0.0,0.0,0.0,0.0,0.0,0.0,0.0,0.0,0.0,0.0,0.0,0.0,0.0,0.0,0.0,0.0,0.0,0.0,0.0,0.0,0.0,0.0,0.0,0.0,0.0,0.0,0.0,0.0,0.0,0.0,0.0,0.0,0.0,0.0,0.0,0.0,0.0,0.0,0.0,0.0,0.0,0.0,0.0,0.0,0.0,0.0,0.0,0.0,0.0,0.0,0.0,0.0,0.0,0.0,0.0,0.0,0.0,0.0,0.0,0.0,0.0,0.0,0.0,0.0,0.0,0.0,0.0,0.0,0.0,0.0,0.0,0.0,0.0,0.0,0.0,0.0,0.0,0.0,0.0,0.0,0.0,0.0,0.0,0.0,0.0,0.0,0.0,0.0,0.0,0.0,0.0,0.0,0.0,0.0,0.0,0.0,0.0,0.0,0.0,0.0,0.0,0.0,0.0,0.0,5.6127,5.9072,6.1435,6.2743,5.7396,5.4318,0.0,0.0,0.0,0.0,0.0,0.0,0.0,0.0,0.0,0.0,0.0,0.0,0.0,0.0,0.0,0.0,0.0,0.0,0.0,0.0,0.0,0.0,0.0,0.0,0.0,0.0,0.0,0.0,0.0,0.0,0.0,0.0,0.0,0.0,0.0,0.0,0.0,0.0,0.0,0.0,0.0,0.0,0.0,0.0,0.0,0.0,0.0,0.0,0.0,0.0,0.0,0.0,0.0,0.0,0.0,0.0,0.0,0.0,0.0,0.0,0.0,0.0,0.0,0.0,0.0,0.0,0.0,0.0,0.0,0.0,0.0,0.0,0.0,0.0,0.0,0.0,0.0,0.0,0.0,0.0,0.0,0.0,0.0,0.0,0.0,0.0,0.0,0.0,0.0,0.0,0.0,0.0,0.0,0.0,0.0,0.0,0.0,0.0,0.0,0.0,0.0,0.0,0.0,0.0,0.0,0.0,0.0,0.0,0.0,6.2175,6.4703,6.6551,6.7398,6.1858,5.7819,5.5588,0.0,0.0,0.0,0.0,0.0,0.0,0.0,0.0,0.0,0.0,0.0,0.0,0.0,0.0,0.0,0.0,0.0,0.0,0.0,0.0,0.0,0.0,0.0,0.0,0.0,0.0,0.0,0.0,0.0,0.0,0.0,0.0,0.0,0.0,0.0,0.0,0.0,0.0,0.0,0.0,0.0,0.0,0.0,0.0,0.0,0.0,0.0,0.0,0.0,0.0,0.0,0.0,0.0,0.0,0.0,0.0,0.0,0.0,0.0,0.0,0.0,0.0,0.0,0.0,0.0,0.0,0.0,0.0,0.0,0.0,0.0,0.0,0.0,0.0,0.0,0.0,0.0,0.0,0.0,0.0,0.0,0.0,0.0,0.0,0.0,0.0,0.0,0.0,0.0,0.0,0.0,0.0,0.0,0.0,0.0,0.0,0.0,0.0,0.0,0.0,0.0,0.0,0.0,0.0,0.0,0.0,0.0,0.0,7.5281,7.7566,7.7053,7.336,7.0206,6.4012,0.0,0.0,0.0,0.0,0.0,0.0,0.0,0.0,0.0,0.0,0.0,0.0,0.0,0.0,0.0,0.0,0.0,0.0,0.0,0.0,0.0,0.0,0.0,0.0,0.0,0.0,0.0,0.0,0.0,0.0,0.0,0.0,0.0,0.0,0.0,0.0,0.0,0.0,0.0,0.0,0.0,0.0,0.0,0.0,0.0,0.0,0.0,0.0,0.0,0.0,0.0,0.0,0.0,0.0,0.0,0.0,0.0,0.0,0.0,0.0,0.0,0.0,0.0,0.0,0.0,0.0,0.0,0.0,0.0,0.0,0.0,0.0,0.0,0.0,0.0,0.0,0.0,0.0,0.0,0.0,0.0,0.0,0.0,0.0,0.0,0.0,0.0,0.0,0.0,0.0,0.0,0.0,0.0,0.0,0.0,0.0,0.0,0.0,0.0,0.0,0.0,0.0,0.0,0.0,0.0,0.0,0.0,0.0,0.0,8.3126,9.2142,9.321,8.544,7.6169,6.909,0.0,0.0,0.0,0.0,0.0,0.0,0.0,0.0,0.0,0.0,0.0,0.0,0.0,0.0,0.0,0.0,0.0,0.0,0.0,0.0,0.0,0.0,0.0,0.0,0.0,0.0,0.0,0.0,0.0,0.0,0.0,0.0,0.0,0.0,0.0,0.0,0.0,0.0,0.0,0.0,0.0,0.0,0.0,0.0,0.0,0.0,0.0,0.0,0.0,0.0,0.0,0.0,0.0,0.0,0.0,0.0,0.0,0.0,0.0,0.0,0.0,0.0,0.0,0.0,0.0,0.0,0.0,0.0,0.0,0.0,0.0,0.0,0.0,0.0,0.0,0.0,0.0,0.0,0.0,0.0,0.0,0.0,0.0,0.0,0.0,0.0,0.0,0.0,0.0,0.0,0.0,0.0,0.0,0.0,0.0,0.0,0.0,0.0,0.0,0.0,0.0,0.0,0.0,0.0,0.0,0.0,0.0,0.0,8.1984,8.9246,10.2304,10.6251,10.0173,8.6786,7.6245,0.0,0.0,0.0,0.0,0.0,0.0,0.0,0.0,0.0,0.0,0.0,0.0,0.0,0.0,0.0,0.0,0.0,0.0,0.0,0.0,0.0,0.0,0.0,0.0,0.0,0.0,0.0,0.0,0.0,0.0,0.0,0.0,0.0,0.0,0.0,0.0,0.0,0.0,0.0,0.0,0.0,0.0,0.0,0.0,0.0,0.0,0.0,0.0,0.0,0.0,0.0,0.0,0.0,0.0,0.0,0.0,0.0,0.0,0.0,0.0,0.0,0.0,0.0,0.0,0.0,0.0,0.0,0.0,0.0,0.0,0.0,0.0,0.0,0.0,0.0,0.0,0.0,0.0,0.0,0.0,0.0,0.0,0.0,0.0,0.0,0.0,0.0,0.0,0.0,0.0,0.0,0.0,0.0,0.0,0.0,0.0,0.0,0.0,0.0,0.0,0.0,0.0,0.0,0.0,0.0,0.0,0.0,0.0,8.7733,9.4761,10.9259,11.5984,11.3791,9.8481,8.4055,0.0,0.0,0.0,0.0,0.0,0.0,0.0,0.0,0.0,0.0,0.0,0.0,0.0,0.0,0.0,0.0,0.0,0.0,0.0,0.0,0.0,0.0,0.0,0.0,0.0,0.0,0.0,0.0,0.0,0.0,0.0,0.0,0.0,0.0,0.0,0.0,0.0,0.0,0.0,0.0,0.0,0.0,0.0,0.0,0.0,0.0,0.0,0.0,0.0,0.0,0.0,0.0,0.0,0.0,0.0,0.0,0.0,0.0,0.0,0.0,0.0,0.0,0.0,0.0,0.0,0.0,0.0,0.0,0.0,0.0,0.0,0.0,0.0,0.0,0.0,0.0,0.0,0.0,0.0,0.0,0.0,0.0,0.0,0.0,0.0,0.0,0.0,0.0,0.0,0.0,0.0,0.0,0.0,0.0,0.0,0.0,0.0,0.0,0.0,0.0,0.0,0.0,0.0,0.0,0.0,0.0,0.0,0.0,9.3525,10.166,11.3381,11.8061,11.5022,9.9365,8.7094,0.0,0.0,0.0,0.0,0.0,0.0,0.0,0.0,0.0,0.0,0.0,0.0,0.0,0.0,0.0,0.0,0.0,0.0,0.0,0.0,0.0,0.0,0.0,0.0,0.0,0.0,0.0,0.0,0.0,0.0,0.0,0.0,0.0,0.0,0.0,0.0,0.0,0.0,0.0,0.0,0.0,0.0,0.0,0.0,0.0,0.0,0.0,0.0,5.3162,0.0,0.0,0.0,0.0,0.0,0.0,0.0,0.0,0.0,0.0,0.0,0.0,0.0,0.0,0.0,0.0,0.0,0.0,0.0,0.0,0.0,0.0,0.0,0.0,0.0,0.0,0.0,0.0,0.0,0.0,0.0,0.0,0.0,0.0,0.0,0.0,0.0,0.0,0.0,0.0,0.0,0.0,0.0,0.0,0.0,0.0,0.0,0.0,0.0,0.0,0.0,0.0,0.0,0.0,0.0,0.0,0.0,0.0,0.0,9.629,10.5587,11.5271,11.9061,11.6176,10.3905,9.2287,0.0,0.0,0.0,0.0,0.0,0.0,0.0,0.0,0.0,0.0,0.0,0.0,0.0,0.0,0.0,0.0,0.0,0.0,0.0,0.0,0.0,0.0,0.0,0.0,0.0,0.0,0.0,0.0,0.0,0.0,0.0,0.0,0.0,0.0,0.0,0.0,0.0,0.0,0.0,0.0,0.0,0.0,0.0,0.0,0.0,0.0,0.0,0.0,0.0,0.0,0.0,0.0,0.0,0.0,0.0,0.0,0.0,0.0,0.0,0.0,0.0,0.0,0.0,0.0,0.0,0.0,0.0,0.0,0.0,0.0,0.0,0.0,0.0,0.0,0.0,0.0,0.0,0.0,0.0,0.0,0.0,0.0,0.0,0.0,0.0,0.0,0.0,0.0,0.0,0.0,0.0,0.0,0.0,0.0,0.0,0.0,0.0,0.0,0.0,0.0,0.0,0.0,0.0,0.0,0.0,0.0,0.0,8.6415,9.7904,10.9129,11.6693,11.9562,11.7523,10.8829,9.7288,0.0,0.0,0.0,0.0,0.0,0.0,0.0,0.0,0.0,0.0,0.0,0.0,0.0,0.0,0.0,0.0,0.0,0.0,0.0,0.0,0.0,0.0,0.0,0.0,0.0,0.0,0.0,0.0,0.0,0.0,0.0,0.0,0.0,0.0,0.0,0.0,0.0,0.0,0.0,4.7776,5.0079,0.0,0.0,0.0,0.0,0.0,0.0,0.0,0.0,5.3868,0.0,0.0,0.0,0.0,0.0,0.0,0.0,0.0,0.0,0.0,0.0,0.0,0.0,0.0,0.0,0.0,0.0,0.0,0.0,0.0,0.0,0.0,0.0,0.0,0.0,0.0,0.0,0.0,0.0,0.0,0.0,0.0,0.0,0.0,0.0,0.0,0.0,0.0,0.0,0.0,0.0,0.0,0.0,0.0,0.0,0.0,0.0,0.0,0.0,0.0,0.0,0.0,0.0,0.0,0.0,0.0,8.6655,8.9921,9.9788,11.6731,11.9938,11.9869,11.6676,10.9021,9.8134,8.3978,0.0,0.0,0.0,0.0,0.0,0.0,0.0,0.0,0.0,0.0,0.0,0.0,0.0,0.0,0.0,0.0,0.0,0.0,0.0,0.0,0.0,0.0,0.0,0.0,0.0,0.0,0.0,0.0,0.0,0.0,0.0,0.0,0.0,0.0,0.0,0.0,0.0,0.0,0.0,5.8884,5.9107,0.0,0.0,0.0,0.0,0.0,0.0,0.0,0.0,5.5837,0.0,0.0,0.0,0.0,0.0,0.0,0.0,0.0,0.0,0.0,0.0,0.0,0.0,0.0,0.0,0.0,0.0,0.0,0.0,0.0,0.0,0.0,0.0,0.0,0.0,0.0,0.0,0.0,0.0,0.0,0.0,0.0,0.0,0.0,0.0,0.0,0.0,0.0,0.0,0.0,0.0,0.0,0.0,0.0,0.0,0.0,0.0,0.0,0.0,0.0,0.0,0.0,0.0,0.0,0.0,8.6765,9.5499,10.6059,11.8554,11.9908,11.8908,11.5792,10.6328,9.5634,0.0,0.0,0.0,0.0,0.0,0.0,0.0,0.0,0.0,0.0,0.0,0.0,0.0,0.0,0.0,0.0,0.0,0.0,0.0,0.0,0.0,0.0,0.0,0.0,0.0,0.0,0.0,0.0,0.0,0.0,0.0,0.0,0.0,0.0,0.0,0.0,0.0,0.0,0.0,0.0,6.2153,6.3379,6.5868,0.0,0.0,0.0,0.0,0.0,0.0,5.8772,5.658,0.0,0.0,0.0,0.0,0.0,0.0,0.0,0.0,0.0,0.0,0.0,0.0,0.0,0.0,0.0,0.0,0.0,0.0,0.0,0.0,0.0,0.0,0.0,0.0,0.0,0.0,0.0,0.0,0.0,0.0,0.0,0.0,0.0,0.0,0.0,0.0,0.0,0.0,0.0,0.0,0.0,0.0,0.0,0.0,0.0,0.0,0.0,0.0,0.0,0.0,0.0,0.0,0.0,0.0,0.0,8.5467,9.9428,11.0906,11.9138,11.9292,11.7984,11.5407,10.3674,9.2941,0.0,0.0,0.0,0.0,0.0,0.0,0.0,0.0,0.0,0.0,0.0,0.0,0.0,0.0,0.0,0.0,0.0,0.0,0.0,0.0,0.0,0.0,0.0,0.0,0.0,0.0,0.0,0.0,0.0,0.0,0.0,0.0,0.0,0.0,0.0,0.0,0.0,0.0,0.0,0.0,0.0,6.754,6.962,6.6351,0.0,0.0,0.0,0.0,6.219,6.167,0.0,0.0,0.0,0.0,0.0,0.0,0.0,0.0,0.0,0.0,0.0,0.0,0.0,0.0,0.0,0.0,0.0,0.0,0.0,0.0,0.0,0.0,0.0,0.0,0.0,0.0,0.0,0.0,0.0,0.0,0.0,0.0,0.0,0.0,0.0,0.0,0.0,0.0,0.0,0.0,0.0,0.0,0.0,0.0,0.0,0.0,0.0,0.0,0.0,0.0,0.0,0.0,0.0,0.0,0.0,0.0,8.6924,9.7708,10.906,12.0523,11.9869,11.8215,11.6253,10.3443,9.2402,0.0,0.0,0.0,0.0,0.0,0.0,0.0,0.0,0.0,0.0,0.0,0.0,0.0,0.0,0.0,0.0,0.0,0.0,0.0,0.0,0.0,0.0,0.0,0.0,0.0,0.0,0.0,0.0,0.0,0.0,0.0,0.0,0.0,0.0,0.0,0.0,0.0,0.0,0.0,0.0,0.0,7.2778,7.1032,6.91,6.6648,0.0,0.0,6.7391,7.1218,7.4635,0.0,0.0,0.0,0.0,0.0,0.0,0.0,0.0,0.0,0.0,0.0,0.0,0.0,0.0,0.0,0.0,0.0,0.0,0.0,0.0,0.0,0.0,0.0,0.0,0.0,0.0,0.0,0.0,0.0,0.0,0.0,0.0,0.0,0.0,0.0,0.0,0.0,0.0,0.0,0.0,0.0,0.0,0.0,0.0,0.0,0.0,0.0,0.0,0.0,0.0,0.0,0.0,0.0,0.0,0.0,0.0,8.7564,10.2636,11.383,12.0485,11.8708,11.683,11.5061,10.0096,8.8902,0.0,0.0,0.0,0.0,0.0,0.0,0.0,0.0,0.0,0.0,0.0,0.0,0.0,0.0,0.0,0.0,0.0,0.0,0.0,0.0,0.0,0.0,0.0,0.0,0.0,0.0,0.0,0.0,0.0,0.0,0.0,0.0,0.0,0.0,0.0,0.0,0.0,0.0,0.0,0.0,0.0,0.0,7.4487,7.3818,0.0,0.0,0.0,7.1032,7.1849,0.0,0.0,0.0,0.0,0.0,0.0,0.0,0.0,0.0,0.0,0.0,0.0,0.0,0.0,0.0,0.0,0.0,0.0,0.0,0.0,0.0,0.0,0.0,0.0,0.0,0.0,0.0,0.0,0.0,0.0,0.0,0.0,0.0,0.0,0.0,0.0,0.0,0.0,0.0,0.0,0.0,0.0,0.0,0.0,0.0,0.0,0.0,0.0,0.0,0.0,0.0,0.0,0.0,0.0,0.0,0.0,0.0,8.795,10.6679,11.7875,12.0446,11.7939,11.5785,11.4099,9.9096,0.0,0.0,0.0,0.0,0.0,0.0,0.0,0.0,0.0,0.0,0.0,0.0,0.0,0.0,0.0,0.0,0.0,0.0,0.0,0.0,0.0,0.0,0.0,0.0,0.0,0.0,0.0,4.2162,0.0,0.0,0.0,0.0,0.0,0.0,0.0,0.0,0.0,0.0,0.0,0.0,0.0,0.0,7.6716,7.757,7.8388,7.8982,0.0,0.0,7.5378,7.497,8.0245,8.0059,0.0,0.0,0.0,0.0,0.0,0.0,0.0,0.0,0.0,0.0,0.0,0.0,0.0,0.0,0.0,0.0,0.0,0.0,0.0,0.0,0.0,0.0,0.0,0.0,0.0,0.0,0.0,0.0,0.0,0.0,0.0,0.0,0.0,0.0,0.0,0.0,0.0,0.0,0.0,0.0,0.0,0.0,0.0,0.0,0.0,0.0,0.0,0.0,0.0,0.0,0.0,0.0,0.0,0.0,0.0,8.9029,10.6986,11.8106,12.1254,11.8208,11.6093,11.5022,10.3328,9.1902,0.0,0.0,0.0,0.0,0.0,0.0,0.0,0.0,0.0,0.0,0.0,0.0,0.0,0.0,0.0,0.0,0.0,0.0,0.0,0.0,0.0,0.0,0.0,0.0,0.0,0.0,0.0,0.0,0.0,0.0,0.0,0.0,0.0,0.0,0.0,0.0,0.0,0.0,0.0,0.0,0.0,7.8425,7.9205,8.1954,8.4963,0.0,0.0,8.24,8.5261,9.2393,9.1576,7.3372,0.0,0.0,0.0,0.0,0.0,0.0,0.0,0.0,0.0,0.0,0.0,0.0,0.0,0.0,0.0,0.0,0.0,0.0,0.0,0.0,0.0,0.0,0.0,0.0,0.0,0.0,0.0,0.0,0.0,0.0,0.0,0.0,0.0,0.0,0.0,0.0,0.0,0.0,0.0,0.0,0.0,0.0,0.0,0.0,0.0,0.0,0.0,0.0,0.0,0.0,0.0,0.0,0.0,8.1431,8.7995,10.5753,11.6369,11.9068,11.6984,11.5055,11.3714,10.4212,9.3441,0.0,0.0,0.0,0.0,0.0,0.0,0.0,0.0,0.0,0.0,0.0,0.0,0.0,0.0,0.0,0.0,0.0,0.0,0.0,0.0,0.0,0.0,0.0,0.0,0.0,0.0,0.0,0.0,5.6022,5.57,5.2073,0.0,0.0,0.0,0.0,0.0,0.0,0.0,0.0,0.0,0.0,8.0765,8.5558,8.7787,0.0,0.0,8.8753,8.6932,8.6189,8.9124,8.6486,7.1812,6.7205,0.0,0.0,0.0,0.0,0.0,0.0,0.0,0.0,0.0,0.0,0.0,0.0,0.0,0.0,0.0,0.0,0.0,0.0,0.0,0.0,0.0,0.0,0.0,0.0,0.0,0.0,0.0,0.0,0.0,0.0,0.0,0.0,0.0,0.0,0.0,0.0,0.0,0.0,0.0,0.0,0.0,0.0,0.0,0.0,0.0,0.0,0.0,0.0,0.0,0.0,0.0,0.0,8.1,8.7764,10.5099,11.5368,11.8106,11.6336,11.4599,11.2945,10.5597,9.598,0.0,0.0,0.0,0.0,0.0,0.0,0.0,0.0,0.0,0.0,0.0,0.0,0.0,0.0,0.0,0.0,0.0,0.0,0.0,0.0,0.0,0.0,0.0,0.0,0.0,0.0,0.0,0.0,6.0204,5.8827,5.2862,0.0,0.0,0.0,0.0,0.0,0.0,0.0,0.0,0.0,0.0,8.4168,8.9895,9.0663,9.0749,9.1162,8.8952,8.6672,8.5112,8.5743,8.2697,7.1738,0.0,0.0,0.0,0.0,0.0,0.0,0.0,0.0,0.0,0.0,0.0,0.0,0.0,0.0,0.0,0.0,0.0,0.0,0.0,0.0,0.0,0.0,0.0,0.0,0.0,0.0,0.0,0.0,0.0,0.0,5.089,0.0,0.0,0.0,0.0,0.0,0.0,0.0,0.0,0.0,0.0,0.0,0.0,0.0,0.0,0.0,0.0,0.0,0.0,0.0,0.0,0.0,0.0,0.0,8.8714,10.5331,11.5605,11.8805,11.6573,11.4879,11.3791,10.8098,10.0135,8.9787,0.0,0.0,0.0,0.0,0.0,0.0,0.0,0.0,0.0,0.0,0.0,0.0,0.0,0.0,0.0,0.0,0.0,0.0,0.0,0.0,0.0,0.0,0.0,0.0,0.0,0.0,5.1395,5.2549,5.2218,0.0,0.0,0.0,0.0,0.0,0.0,0.0,0.0,0.0,0.0,8.0171,8.8604,9.0788,8.9496,8.8791,8.9964,8.4385,8.0691,8.3032,8.4518,8.2809,0.0,0.0,0.0,0.0,0.0,0.0,0.0,0.0,0.0,0.0,0.0,0.0,0.0,0.0,0.0,0.0,0.0,0.0,0.0,0.0,0.0,0.0,0.0,0.0,0.0,0.0,0.0,6.2662,6.2261,0.0,0.0,0.0,0.0,0.0,0.0,0.0,0.0,0.0,0.0,0.0,7.4322,7.6002,0.0,0.0,0.0,0.0,0.0,0.0,0.0,0.0,0.0,0.0,0.0,0.0,8.1039,8.8213,10.4022,11.3407,11.5643,11.4874,11.3753,11.2329,10.8752,10.0481,8.6978,0.0,0.0,0.0,0.0,0.0,0.0,0.0,0.0,0.0,0.0,0.0,0.0,0.0,0.0,0.0,0.0,0.0,0.0,0.0,0.0,0.0,0.0,0.0,0.0,0.0,5.4549,0.0,0.0,0.0,0.0,0.0,0.0,0.0,0.0,0.0,0.0,0.0,6.7438,7.5381,8.0293,8.4754,8.8915,8.9645,9.0414,0.0,0.0,0.0,0.0,0.0,0.0,0.0,0.0,0.0,0.0,0.0,0.0,0.0,0.0,7.5601,6.3416,6.1819,6.2524,6.3082,0.0,0.0,0.0,0.0,0.0,0.0,0.0,0.0,0.0,0.0,0.0,0.0,0.0,0.0,0.0,0.0,6.9187,0.0,0.0,0.0,0.0,0.0,0.0,0.0,0.0,7.8132,8.2686,8.4773,8.6467,8.5992,0.0,8.0046,7.1881,0.0,0.0,0.0,0.0,0.0,0.0,0.0,0.0,8.1201,8.8546,10.3289,11.2022,11.3868,11.3714,11.3022,11.1906,10.8598,10.1289,8.9633,8.1131,7.3129,0.0,0.0,0.0,0.0,0.0,0.0,0.0,0.0,0.0,0.0,0.0,0.0,0.0,0.0,0.0,0.0,0.0,0.0,0.0,0.0,0.0,0.0,0.0,5.7703,0.0,0.0,0.0,0.0,0.0,0.0,0.0,0.0,0.0,6.2107,6.7954,7.4676,8.1366,8.4234,8.6311,8.7899,0.0,0.0,0.0,0.0,0.0,0.0,0.0,7.653,7.471,7.4115,7.4933,7.8351,8.3552,8.6747,8.5112,0.0,0.0,7.3781,7.1923,7.2666,7.3521,7.5156,7.6456,7.679,7.9019,8.0728,0.0,0.0,0.0,0.0,0.0,0.0,0.0,0.0,7.9067,7.7379,0.0,7.6529,0.0,0.0,0.0,0.0,0.0,0.0,0.0,0.0,9.41,9.885,9.4622,9.6132,9.5636,9.3064,9.1293,8.6537,7.8856,6.926,0.0,0.0,0.0,0.0,0.0,0.0,8.2484,9.0332,10.348,11.144,11.3753,11.3104,11.2599,11.2406,10.7713,10.2751,9.7711,9.1056,8.4093,7.6553,6.8256,0.0,0.0,0.0,0.0,0.0,0.0,0.0,0.0,0.0,0.0,0.0,0.0,0.0,0.0,0.0,0.0,0.0,0.0,0.0,0.0,5.9742,0.0,0.0,0.0,0.0,0.0,0.0,0.0,0.0,0.0,0.0,6.7943,7.5939,8.3417,8.6213,0.0,0.0,0.0,0.0,8.6254,8.115,7.8091,7.6638,7.6787,7.98,8.2442,8.3239,0.0,0.0,8.9904,9.035,9.0202,8.6969,9.1762,9.4214,8.9384,8.5149,8.3366,8.5372,8.4369,8.3663,8.5706,8.7973,8.9124,9.3041,0.0,0.0,0.0,0.0,8.3051,8.8853,9.7905,9.5855,9.3862,9.1909,8.9947,0.0,0.0,0.0,0.0,0.0,0.0,8.3371,8.984,9.5483,10.0119,10.3941,10.5061,10.487,10.3522,10.1173,9.7942,9.3869,8.856,7.7361,6.0896,0.0,0.0,0.0,0.0,8.7127,9.5399,10.5753,11.1487,11.2218,11.1949,11.1256,11.0021,10.679,10.3828,10.1173,9.6365,9.0479,8.3478,7.687,0.0,0.0,0.0,0.0,0.0,0.0,0.0,0.0,0.0,0.0,0.0,0.0,0.0,0.0,0.0,0.0,0.0,0.0,0.0,5.5297,5.8742,5.9358,0.0,0.0,0.0,0.0,0.0,0.0,0.0,0.0,0.0,8.1413,8.2218,8.3178,0.0,0.0,8.4675,8.1324,8.5156,8.8291,8.8074,0.0,0.0,0.0,8.7726,8.6556,8.8711,9.3711,9.6889,9.5663,9.8486,10.0678,9.9638,10.1087,10.1867,10.0492,9.7,9.4585,9.5105,9.596,9.7112,9.8486,10.0455,10.1904,10.9213,9.9529,9.1484,9.0555,9.4385,9.481,10.0613,10.9587,10.7382,10.5106,10.2803,10.1394,9.4003,8.2324,8.0138,0.0,0.0,0.0,9.0702,9.8747,10.0447,10.4199,10.9376,11.003,10.9995,10.9379,10.7136,10.5015,10.3097,9.8673,8.9171,7.4938,0.0,0.0,7.2629,8.2708,9.1245,9.8055,10.6602,11.0794,11.0487,11.0487,10.9986,10.8906,10.7405,10.5828,10.4135,10.1327,9.7134,9.1364,8.4844,7.7284,0.0,0.0,0.0,0.0,0.0,0.0,0.0,0.0,0.0,0.0,0.0,5.2587,0.0,0.0,0.0,0.0,5.6982,5.8995,6.0396,6.282,0.0,0.0,0.0,0.0,0.0,0.0,0.0,7.4214,8.1201,8.718,9.057,8.9727,8.8998,8.9875,8.9354,8.8029,8.5518,0.0,9.2633,9.31,9.3358,9.394,9.5046,9.3445,9.3144,9.6344,9.9687,10.1904,10.1904,10.4282,10.5953,10.5805,10.5953,10.6065,10.573,10.3873,10.235,10.209,10.313,10.4393,10.5248,10.6585,10.7625,12.2817,11.9954,10.3552,10.0226,10.568,10.6647,11.0593,11.6163,11.4616,11.2067,10.9171,11.0404,10.4305,9.2756,8.8731,0.0,0.0,9.5352,9.9885,10.6164,10.7774,10.9785,11.2073,11.2105,11.2031,11.1847,11.0182,10.8902,10.7636,10.2366,9.7864,9.417,8.8089,8.4247,8.3131,8.9248,9.4749,9.9096,10.6136,10.9444,10.8906,10.8752,10.8713,10.879,10.8675,10.7905,10.6559,10.5443,10.3058,9.9019,9.195,8.4928,7.8054,0.0,0.0,0.0,0.0,0.0,0.0,0.0,0.0,0.0,0.0,0.0,0.0,0.0,0.0,0.0,6.5782,0.0,7.0244,7.036,0.0,0.0,0.0,6.9052,7.4245,7.8438,8.2425,8.6277,0.0,0.0,9.6394,0.0,9.8741,10.0227,9.9803,9.8318,9.5839,9.7315,9.8376,9.6755,9.642,9.6191,9.6642,9.8198,10.0793,10.4007,10.5917,10.6325,10.6771,10.7068,10.7031,10.6474,10.6994,10.7291,10.6585,10.6882,10.7365,10.6399,10.6474,10.6808,10.7439,10.7811,10.7997,12.5253,12.4441,11.9567,11.7362,11.713,11.7981,11.9257,12.065,11.9644,11.7635,11.501,11.3381,10.9205,10.3256,10.1587,10.1773,10.3398,10.3978,10.6531,11.0442,11.0322,11.156,11.3884,11.3997,11.3503,11.2697,11.2264,11.1256,10.9684,10.8259,10.4561,9.8931,9.7704,9.3512,8.6671,9.0979,9.6172,10.1673,10.4749,10.7133,10.8793,10.7675,10.7328,10.7944,10.6713,10.6444,10.729,10.4674,10.2443,10.0712,9.5867,9.0144,8.3362,7.1595,0.0,0.0,0.0,0.0,0.0,0.0,0.0,0.0,0.0,5.7703,4.8817,0.0,5.9917,0.0,6.8936,7.4553,7.5438,7.6053,0.0,0.0,7.7746,7.9015,8.5286,8.8632,9.0783,9.1765,9.6592,10.0211,10.1019,10.2944,10.4862,10.6419,10.2777,9.882,9.6112,10.0229,10.3027,10.1941,10.4176,10.6269,10.5216,10.5727,10.6101,10.6553,10.6524,10.6251,10.5879,10.5805,10.5879,10.6288,10.6548,10.6845,10.7217,10.7477,10.7514,10.7402,10.7848,10.8368,10.8591,10.9037,10.9483,12.6568,12.5563,12.5833,12.4905,12.328,12.3783,12.3977,12.3899,12.3048,12.1231,11.8681,11.5779,11.2952,11.0399,10.9896,10.9703,10.9858,11.0244,11.1405,11.3146,11.272,11.3455,11.5157,11.4732,11.4428,11.4202,11.3389,11.2307,11.0998,11.0189,10.7721,10.3711,10.3713,10.0325,9.3903,9.4441,9.6519,9.975,10.2211,10.5172,10.8719,10.7677,10.5944,10.3828,10.352,10.2251,9.9865,9.7942,9.6365,9.5095,9.1797,8.7694,8.2759,7.3543,6.6101,0.0,0.0,0.0,0.0,0.0,0.0,0.0,0.0,0.0,0.0,0.0,6.5571,0.0,7.5456,8.0708,8.117,8.2978,8.517,8.7671,8.8132,9.0479,9.6057,9.8596,10.0365,10.1519,10.4175,10.6405,10.7523,10.8213,10.9136,11.0406,10.7752,10.4823,10.2812,10.5243,10.7125,10.6596,10.8652,10.9792,10.8512,10.77,10.7207,10.6885,10.6613,10.6362,10.6288,10.6288,10.6325,10.6436,10.6696,10.6956,10.7068,10.7402,10.7588,10.7699,10.7997,10.8294,10.8331,10.8703,10.9,12.7497,12.5601,12.7071,12.7226,12.6414,12.653,12.6336,12.5872,12.4982,12.3126,12.0458,11.7403,11.5586,11.477,11.4654,11.4229,11.361,11.419,11.4538,11.4732,11.4538,11.5002,11.6008,11.5118,11.5047,11.5591,11.4086,11.289,11.1925,11.042,10.8916,10.7413,10.6642,10.4484,10.0827,9.8019,9.6634,9.6632,9.9942,10.3829,10.8103,10.6946,10.3674,9.8519,9.9481,9.6903,9.0133,8.9748,8.8979,8.7286,8.5127,8.3062,8.1036,7.451,6.9459,0.0,6.145,0.0,0.0,0.0,0.0,0.0,0.0,0.0,0.0,7.1678,7.3475,7.7437,8.3619,8.7594,8.7979,9.1018,9.3903,9.6211,9.8634,10.1597,10.529,10.7213,10.9021,11.1218,11.091,11.1368,11.2983,11.2445,11.1906,11.2214,11.2022,11.1137,11.0483,11.006,11.0199,11.0613,11.0551,10.9909,10.841,10.7166,10.6655,10.6733,10.666,10.6808,10.7439,10.7551,10.7365,10.6845,10.7142,10.7365,10.6659,10.7179,10.7588,10.7625,10.7551,10.7514,10.7625,10.7737,10.7625,12.9393,12.8967,12.9276,12.8928,12.8193,12.8889,12.7613,12.4982,12.4131,12.1926,11.8871,11.7517,11.6472,11.5624,11.4925,11.4499,11.4345,11.3803,11.4306,11.5621,11.4267,11.4809,11.682,11.6085,11.5665,11.5707,11.5358,11.443,11.2965,11.2504,10.9802,10.509,10.5331,10.3097,9.8554,0.0,0.0,0.0,10.1673,10.3868,10.4638,10.0634,9.725,9.4749,9.4326,0.0,8.9171,8.8902,8.8132,8.644,8.5873,0.0,0.0,0.0,0.0,0.0,0.0,0.0,0.0,0.0,0.0,0.0,7.7784,7.6322,7.5284,7.99,8.4191,8.7083,9.1605,9.548,9.8173,10.0866,10.2943,10.4174,10.5867,10.7598,10.9098,11.0137,11.1021,11.1401,11.1863,11.2137,11.206,11.2214,11.2252,11.1829,11.1752,11.1598,11.1329,11.1214,11.1248,11.1314,11.0826,11.0372,11.0008,10.8817,10.7991,10.8129,10.7702,10.7402,10.7514,10.7551,10.7588,10.7291,10.7514,10.7551,10.7365,10.7551,10.7514,10.7625,10.7068,10.6845,10.7477,10.7588,10.7625,12.8502,0.0,12.8309,12.8154,0.0,12.8309,12.7458,12.5408,12.4944,12.2894,11.9683,11.9257,11.8368,11.713,11.6666,11.6008,11.5234,11.477,11.508,11.5815,11.4577,11.5118,11.7169,11.5856,11.5433,11.5783,11.5356,11.4274,11.273,11.2578,11.0339,10.621,10.6834,10.5679,10.2752,10.4252,10.4215,10.2588,10.3868,10.5678,10.7991,10.5331,10.1558,9.7096,0.0,0.0,0.0,0.0,0.0,0.0,0.0,0.0,0.0,0.0,0.0,8.34,8.0344,7.9323,8.14,8.2747,8.5478,9.0056,9.2018,9.0437,8.4605,9.0355,9.5137,9.7245,10.0171,10.2943,10.5443,10.7598,10.906,10.9483,11.0291,11.0983,11.1406,11.1829,11.2099,11.2137,11.2445,11.2522,11.2137,11.206,11.1983,11.1598,11.1522,11.1522,11.1522,11.1522,11.1396,11.1055,11.0448,10.9997,10.9941,10.9233,10.8555,10.8487,10.7699,10.7106,10.6994,10.6659,10.6436,10.6436,10.6399,10.6511,10.6919,10.6734,10.6548,10.6808,10.6362,10.5953,10.6362,10.6399,10.6436,12.7613,12.5833,12.7265,12.7342,12.6607,12.7458,12.7265,12.6298,0.0,0.0,0.0,12.0998,12.0108,11.8638,11.8638,11.7865,11.6627,11.6588,11.655,11.6511,11.566,11.6124,11.7517,11.6011,11.5547,11.6085,11.5392,11.4116,11.2376,11.2299,11.0991,10.8723,10.9263,10.9224,10.8559,11.0444,11.0179,10.7567,10.6101,10.7371,11.1383,11.0066,10.6174,9.975,9.8634,9.4249,8.6132,8.4555,8.3401,8.2516,8.2593,8.3558,8.5478,8.6915,8.827,8.9573,9.0488,9.1979,9.4364,9.5942,9.7942,10.0635,10.4174,10.3021,9.5499,10.0326,10.4326,10.5861,10.7325,10.8752,11.0291,11.1637,11.2483,11.2483,11.2599,11.2637,11.2522,11.2637,11.2599,11.2522,11.2445,11.2483,11.2406,11.1906,11.1522,11.1522,11.1522,11.1406,11.1329,11.1406,11.1314,11.0874,11.0306,10.9675,10.9439,10.8791,10.8405,10.8124,10.6994,10.6213,10.6102,10.5656,10.5248,10.5359,10.521,10.5545,10.6028,10.573,10.547,10.6065,10.5582,10.4987,10.4987,10.4876,10.4876,12.947,12.9199,12.9431,12.9044,12.8309,12.9199,12.8657,12.7033,12.4866,12.2816,12.0999,12.0998,12.0457,11.953,11.9528,11.9412,11.918,11.918,11.918,0.0,11.829,11.8368,11.9257,11.8326,11.7588,11.7011,11.6891,11.554,11.3339,11.3075,11.2039,11.042,11.0921,11.1147,11.1021,11.1329,11.1598,11.1714,10.8136,10.6553,10.7192,10.2901,9.975,9.7942,9.6519,9.3633,8.9402,8.9748,8.9248,8.7748,8.8286,9.0119,9.3142,9.3599,9.5135,9.805,9.9056,10.0366,10.2135,10.3174,10.5097,10.8252,10.9867,10.8832,10.4985,10.6638,10.8444,10.9363,10.9713,11.0252,11.1175,11.1598,11.1829,11.1829,11.2291,11.2445,11.1868,11.2291,11.2406,11.1829,11.1675,11.1714,11.1714,11.1598,11.1483,11.1483,11.1291,11.1214,11.0675,11.1021,11.1401,11.1314,11.0826,11.0161,10.9331,10.8376,10.7412,10.6772,10.6028,10.5359,10.5359,10.5173,10.5025,10.5136,10.5025,10.5136,10.5359,10.5322,10.5173,10.5285,10.4727,10.4207,10.4244,10.3799,10.3687,12.8502,12.8541,12.8541,12.8309,12.7961,12.8386,12.7845,12.6568,12.4944,12.3512,12.2352,12.1888,12.123,12.0419,12.0418,11.9876,11.8987,11.8987,11.8987,11.8948,11.8136,11.8445,11.9489,11.8365,11.7785,11.7787,11.693,11.5618,11.4074,11.3464,11.227,11.0652,11.0726,11.1256,11.2099,11.2175,11.2329,11.2632,11.0829,11.0017,11.0474,10.8248,10.6444,10.5136,10.3443,10.1173,9.825,9.7673,9.6788,9.5557,9.6327,9.771,9.9705,10.0673,10.2128,10.4044,10.4977,10.5751,10.6559,10.7829,10.9637,11.2022,11.2637,11.2214,11.0679,11.0752,11.1137,11.1522,11.156,11.1714,11.2137,11.2599,11.2868,11.2868,11.2829,11.256,11.2214,11.2022,11.1906,11.156,11.1522,11.1522,11.1522,11.1522,11.1291,11.0868,11.0444,10.9944,10.956,10.9829,10.9974,10.9581,10.8811,10.8269,10.8151,10.711,10.631,10.6202,10.5318,10.469,10.4505,10.4244,10.391,10.3836,10.3873,10.4059,10.4393,10.4133,10.4096,10.443,10.3873,10.3501,10.3762,10.3984,10.4059,12.7419,12.7419,12.7419,12.7419,12.7419,12.7419,12.6994,12.6336,12.5485,12.448,12.3435,12.2468,12.1733,12.127,12.1075,12.0379,11.9373,11.9064,11.8987,11.8909,11.8136,11.8561,11.976,11.8638,11.829,11.8524,11.7359,11.6085,11.4889,11.4121,11.2812,11.1192,11.0682,11.1137,11.2406,11.2445,11.2522,11.2714,11.2714,11.3022,11.3642,11.3522,11.2945,11.206,11.0521,10.8829,10.6867,10.5559,10.4482,10.3712,10.4251,10.4906,10.5601,10.7021,10.8129,10.8859,10.9594,10.9944,10.9867,11.1175,11.2637,11.3868,11.4176,11.4368,11.4484,11.3791,11.3099,11.2834,11.2829,11.2829,11.256,11.3137,11.3637,11.3445,11.2868,11.2368,11.2368,11.1868,11.1522,11.1522,11.1522,11.1522,11.1483,11.1329,11.0829,10.9983,10.929,10.8867,10.8675,10.8513,10.8178,10.7558,10.6866,10.6729,10.6836,10.5964,10.5417,10.5613,10.4567,10.3872,10.3613,10.313,10.2796,10.2833,10.2796,10.3056,10.3539,10.3241,10.3241,10.3799,10.3576,10.339,10.4207,10.469,10.469,12.7419,12.7419,12.7419,12.7419,12.7419,12.7419,12.7342,12.7149,12.6336,12.5021,12.3435,12.181,12.1501,12.2004,12.1308,12.1192,12.1656,12.1114,12.0689,12.0573,11.9876,11.9954,12.0766,12.0689,12.0302,11.9644,11.9298,11.783,11.5706,11.5359,11.4433,11.2809,11.1795,11.1483,11.1675,11.1675,11.1983,11.2676,11.2676,11.2714,11.2796,11.2099,11.2368,11.3753,11.2868,11.2291,11.1791,11.1868,11.1368,11.0675,11.0483,11.0679,11.0798,11.1641,11.2094,11.2209,11.2983,11.3214,11.2522,11.3253,11.383,11.4022,11.4753,11.5445,11.6061,11.5445,11.433,11.3257,11.3445,11.3137,11.1906,11.2368,11.256,11.2022,11.1791,11.1598,11.1637,11.156,11.1522,11.1522,11.1522,11.1522,11.1445,11.0829,10.9983,10.9136,10.879,10.8406,10.7864,10.7327,10.6739,10.6297,10.6706,10.7018,10.6302,10.5504,10.4734,10.4238,10.3463,10.3019,10.2907,10.287,10.2684,10.2684,10.2684,10.2796,10.2833,10.2758,10.3056,10.3613,10.3836,10.4133,10.4839,10.521,10.4913,12.7419,12.7419,12.7419,12.7419,12.7419,12.7419,12.7419,12.7303,12.6452,12.5137,12.3436,12.1733,12.0882,12.0764,12.0379,12.0457,12.0766,12.0921,12.0727,12.034,12.0882,12.0882,12.034,12.1346,12.1308,12.0418,11.9414,11.8138,11.6554,11.4935,11.366,11.2915,11.2868,11.2983,11.2945,11.2483,11.2368,11.2719,11.2676,11.2714,11.2786,11.3407,11.406,11.4638,11.4407,11.4214,11.4176,11.3753,11.333,11.3022,11.2983,11.2983,11.2988,11.3291,11.3483,11.3478,11.383,11.406,11.4253,11.4561,11.4984,11.5407,11.5792,11.6138,11.6407,11.5753,11.4753,11.3714,11.333,11.2753,11.1752,11.1829,11.1868,11.156,11.1522,11.1522,11.1522,11.1522,11.1522,11.1522,11.1522,11.1522,11.1291,11.0291,10.9175,10.8329,10.7829,10.7328,10.6941,10.64,10.5739,10.5148,10.533,10.5226,10.4752,10.4061,10.3527,10.324,10.2981,10.2721,10.2684,10.2684,10.2684,10.2684,10.2684,10.2684,10.2721,10.313,10.3539,10.3799,10.4319,10.4839,10.5173,10.5582,10.5656,12.7419,12.7419,12.7419,12.7419,12.7419,12.7419,12.7419,12.7342,12.6723,12.5485,12.3783,12.2314,12.1075,12.0068,11.9567,11.9567,12.007,12.0495,12.0457,12.0186,12.1153,12.0998,12.0224,12.1269,12.1578,12.0882,11.976,11.8563,11.729,11.4935,11.3538,11.3527,11.383,11.3868,11.3637,11.3176,11.2906,11.2757,11.2906,11.3017,11.3286,11.4516,11.5291,11.5291,11.5291,11.5407,11.5599,11.5022,11.4676,11.4676,11.4676,11.4676,11.4714,11.4676,11.4676,11.467,11.4714,11.483,11.5291,11.5715,11.6099,11.6446,11.6676,11.683,11.6676,11.5907,11.4945,11.4022,11.3214,11.2445,11.1983,11.206,11.2099,11.1906,11.2022,11.2137,11.1906,11.1983,11.2137,11.1906,11.2175,11.1945,11.1406,11.0252,10.9021,10.7944,10.6982,10.6405,10.6284,10.594,10.5345,10.4888,10.4297,10.3748,10.3447,10.3149,10.2684,10.2684,10.2684,10.2684,10.2684,10.2684,10.2684,10.2684,10.2684,10.2721,10.2796,10.3279,10.4096,10.4133,10.4727,10.5545,10.5656,10.6102,10.6176,12.7419,12.7419,12.7419,12.7419,12.7419,12.7419,12.7419,12.7381,12.7303,12.6336,12.4634,12.359,12.2391,12.0725,11.9141,11.9373,12.065,12.0108,12.0147,12.0611,12.0224,12.0263,12.0921,12.1035,12.1074,12.1037,12.0805,11.9763,11.7984,11.6165,11.5268,11.5138,11.4561,11.3714,11.3253,11.3753,11.356,11.318,11.3676,11.3984,11.4099,11.4907,11.5445,11.5445,11.533,11.5715,11.633,11.6407,11.633,11.6369,11.6292,11.6292,11.633,11.633,11.633,11.6407,11.6407,11.6061,11.5753,11.6792,11.7369,11.683,11.7292,11.7677,11.7529,11.6176,11.4984,11.4066,11.3291,11.2753,11.2829,11.3137,11.3253,11.2714,11.3368,11.3368,11.2753,11.3253,11.3407,11.2945,11.3253,11.2945,11.1714,11.0714,10.9483,10.8136,10.7021,10.6521,10.6438,10.5978,10.5571,10.5244,10.4495,10.3514,10.2971,10.2794,10.2684,10.2684,10.2684,10.2684,10.2684,10.2684,10.2684,10.2684,10.2684,10.2758,10.287,10.3464,10.4393,10.4987,10.5768,10.6362,10.5508,10.6102,10.6139,12.7419,12.7419,12.7419,12.7419,12.7419,12.7419,12.7419,12.7342,12.68,12.5562,12.3938,12.2508,12.0959,11.9257,11.8136,11.8561,12.0031,11.9838,11.9567,11.9489,12.0147,12.0108,11.9528,12.0996,12.1538,12.1037,12.0959,12.0071,11.8218,11.64,11.5818,11.6316,11.65,11.6115,11.5545,11.5576,11.5533,11.5336,11.5484,11.5561,11.5682,11.6984,11.7484,11.6907,11.633,11.6446,11.7292,11.6792,11.6484,11.6484,11.6484,11.6484,11.6561,11.7023,11.76,11.8061,11.8177,11.8023,11.783,11.8292,11.8523,11.8215,11.7907,11.783,11.7529,11.6336,11.5138,11.4758,11.4022,11.3753,11.406,11.3714,11.306,11.2906,11.3445,11.3945,11.3676,11.383,11.3868,11.3637,11.383,11.3286,11.206,11.1214,11.0367,10.8829,10.8175,10.779,10.7245,10.6668,10.6155,10.546,10.4457,10.3608,10.3447,10.2934,10.2684,10.2684,10.2684,10.2684,10.2684,10.2684,10.2684,10.2684,10.2684,10.2796,10.2907,10.313,10.417,10.4802,10.5693,10.5842,10.4913,10.5359,10.547,12.7419,12.7419,12.7419,12.7419,12.7419,12.7419,12.7226,12.6955,12.6375,12.5292,12.3822,12.2429,12.0998,11.9683,11.8793,11.8793,11.9606,11.9412,11.9103,11.8948,12.0031,11.9954,11.9335,12.0921,12.1424,12.0689,12.0611,11.9878,11.872,11.7483,11.7212,11.7751,11.8208,11.8054,11.7321,11.7395,11.7309,11.6798,11.6792,11.6792,11.6753,11.7907,11.8561,11.8215,11.7638,11.76,11.8177,11.7638,11.733,11.733,11.733,11.733,11.7407,11.7862,11.8477,11.9023,11.91,11.91,11.9177,11.9331,11.9485,11.9446,11.8754,11.8215,11.8106,11.6407,11.5445,11.5099,11.4522,11.4291,11.4561,11.406,11.356,11.3637,11.4291,11.4676,11.4484,11.4676,11.483,11.483,11.4593,11.3786,11.2599,11.2099,11.1098,10.956,10.9136,10.8636,10.8171,10.773,10.7131,10.6362,10.5292,10.4544,10.3918,10.3336,10.2831,10.2684,10.2684,10.2684,10.2684,10.2684,10.2684,10.2684,10.2758,10.287,10.2981,10.3093,10.3539,10.4133,10.4727,10.5173,10.4727,10.4505,10.4542,12.7419,12.7419,12.7419,12.7419,12.7419,12.7419,12.6916,12.6259,12.6065,12.5408,12.4402,12.3628,12.2467,12.1961,12.0803,12.0379,11.9683,11.8987,11.8948,11.9451,11.9606,11.9644,11.9567,12.0611,12.0767,11.9955,11.9801,11.9724,11.9609,11.9338,11.9261,11.9373,11.9333,11.8944,11.805,11.8667,11.8354,11.7381,11.7645,11.7516,11.677,11.7746,11.8561,11.9023,11.91,11.9138,11.9177,11.9023,11.8869,11.8946,11.8946,11.9061,11.8985,11.9054,11.9131,11.9292,11.9254,11.9215,11.9331,11.9946,12.0331,12.0216,11.9562,11.91,11.8754,11.7023,11.5676,11.5522,11.4907,11.4291,11.4445,11.4791,11.5099,11.5291,11.5715,11.5869,11.5599,11.5945,11.6446,11.6215,11.5753,11.4984,11.4099,11.3214,11.2099,11.0714,10.9713,10.9098,10.879,10.859,10.8536,10.7607,10.6142,10.4864,10.4339,10.3774,10.3124,10.2684,10.2684,10.2684,10.2684,10.2684,10.2684,10.2684,10.2684,10.2833,10.3167,10.3316,10.3687,10.4244,10.4579,10.4505,10.417,10.3836,10.365,12.7419,12.7419,12.7419,12.7419,12.7419,12.7419,12.6916,12.6027,12.5485,12.475,12.3783,12.2391,12.1617,12.1269,12.0495,11.9992,11.9683,11.9412,11.9141,11.8909,11.8871,11.8871,11.9103,12.034,12.0843,12.0497,11.9994,12.0033,12.0304,11.9918,11.9841,12.0343,12.0381,11.9957,11.9261,11.9837,11.987,11.9519,11.946,11.9369,11.9208,11.9985,12.0254,12.0023,12.0485,12.0831,12.0754,11.9715,11.9138,11.9177,11.91,11.9331,11.9792,11.99,12.0169,12.0754,12.0793,12.0831,12.0831,12.0985,12.1139,12.1023,12.0408,11.9985,11.9831,11.8638,11.7561,11.7138,11.6715,11.6452,11.5907,11.5945,11.5869,11.5368,11.5984,11.6407,11.6138,11.633,11.6446,11.6484,11.6292,11.5753,11.4984,11.4099,11.3022,11.1983,11.106,11.0252,10.9213,10.894,10.8043,10.6662,10.5605,10.4924,10.4171,10.3522,10.2978,10.2684,10.2684,10.2684,10.2684,10.2684,10.2684,10.2684,10.2684,10.2833,10.3167,10.3501,10.3799,10.3836,10.3836,10.3613,10.3316,10.3167,10.3167,12.7419,12.7419,12.7419,12.7419,12.7419,12.7419,12.6723,12.5679,12.5408,12.4634,12.3474,12.2777,12.2236,12.1888,12.1346,12.0959,12.0689,12.065,12.034,11.9838,11.9451,11.9219,11.9103,12.0302,12.123,12.1346,12.0921,12.0766,12.0959,12.0458,12.0419,12.0883,12.0884,12.0807,12.0536,12.092,12.1104,12.1018,12.0846,12.11,12.1553,12.1639,12.1754,12.2062,12.1831,12.1908,12.2293,12.0908,12.0023,12.0023,12.0023,12.0292,12.0754,12.0793,12.1023,12.1447,12.1562,12.1562,12.16,12.1523,12.16,12.1447,12.0793,12.0292,12.0139,11.9562,11.8792,11.8407,11.7914,11.7568,11.7061,11.6638,11.6253,11.583,11.6176,11.6446,11.6484,11.6484,11.6484,11.6484,11.6446,11.6099,11.5368,11.4176,11.3407,11.2676,11.1714,11.0829,10.9594,10.9195,10.7839,10.6477,10.5482,10.4782,10.3942,10.334,10.2831,10.2684,10.2684,10.2684,10.2684,10.2684,10.2684,10.2684,10.2684,10.2684,10.2981,10.313,10.3353,10.3241,10.3204,10.3056,10.2944,10.3093,10.3093,12.7419,12.7419,12.7419,12.7419,12.7419,12.7419,12.653,12.5253,12.5679,12.5137,12.3977,12.4209,12.417,12.3667,12.3319,12.2971,12.2545,12.2429,12.2391,12.2159,12.1733,12.1114,12.0457,12.0766,12.1385,12.2081,12.2157,12.1809,12.1269,12.1385,12.1192,12.1346,12.154,12.1387,12.1616,12.184,12.1832,12.1623,12.1531,12.2293,12.3784,12.2515,12.2793,12.4832,12.3216,12.2716,12.3601,12.2831,12.1908,12.1677,12.1639,12.1793,12.1831,12.1793,12.2024,12.2139,12.1831,12.187,12.1831,12.1985,12.187,12.1754,12.1293,12.0485,12.0639,12.0062,11.9446,11.9138,11.8331,11.776,11.7446,11.71,11.6638,11.6561,11.6522,11.6522,11.6484,11.6484,11.6484,11.6484,11.6446,11.6253,11.5484,11.4137,11.3291,11.2637,11.1637,11.0791,10.9974,10.9405,10.8512,10.717,10.5582,10.465,10.3854,10.3232,10.2721,10.2684,10.2721,10.2721,10.2721,10.2684,10.2684,10.2684,10.2684,10.2684,10.2833,10.3056,10.3056,10.2944,10.287,10.2721,10.2758,10.2907,10.2944,12.7419,12.7419,12.7419,12.7419,12.7419,12.7419,12.6762,12.5833,12.5988,12.5524,12.4673,12.4673,12.4789,12.448,12.448,12.4325,12.417,12.4131,12.4131,12.4209,12.4634,12.3822,12.2429,12.1424,12.1501,12.2275,12.2468,12.2197,12.2081,12.301,12.328,12.2894,12.3242,12.2778,12.1657,12.2387,12.2458,12.1866,12.1693,12.2793,12.4476,12.3428,12.3505,12.5063,12.4678,12.4524,12.5101,12.5293,12.437,12.2754,12.3148,12.3763,12.4216,12.4293,12.4216,12.4178,12.3716,12.3447,12.3408,12.337,12.3139,12.2716,12.2716,12.2831,12.2254,12.1447,12.0716,11.9946,11.8715,11.76,11.7138,11.7253,11.7407,11.7407,11.6946,11.6522,11.6484,11.6484,11.6484,11.6484,11.6484,11.633,11.5945,11.5061,11.4137,11.3522,11.2483,11.1325,11.0232,10.9141,10.8164,10.6904,10.5572,10.4638,10.3788,10.3164,10.2758,10.2721,10.2721,10.2758,10.2721,10.2684,10.2684,10.2684,10.2684,10.2684,10.2981,10.3241,10.3019,10.2758,10.3019,10.313,10.2833,10.2796,10.2796,12.7419,12.7419,12.7419,12.7419,12.7419,12.7419,12.6916,12.6298,12.6491,12.6143,12.5563,12.5756,12.5911,12.5872,12.5911,12.5911,12.5872,12.5872,12.5872,12.5949,12.6336,12.5795,12.4518,12.3164,12.2855,12.328,12.3358,12.3164,12.301,12.3822,12.3899,12.359,12.4015,12.359,12.2815,12.3197,12.3456,12.2945,12.2771,12.3755,12.5601,12.4312,12.4735,12.5668,12.5601,12.4947,12.537,12.587,12.5524,12.4755,12.4956,12.5418,12.587,12.5937,12.5899,12.5909,12.514,12.4639,12.4562,12.4332,12.3909,12.3562,12.3909,12.3639,12.3024,12.2408,12.1793,12.0869,11.9292,11.8407,11.8215,11.8292,11.8331,11.8254,11.7561,11.6907,11.6561,11.6484,11.6484,11.6484,11.6484,11.6484,11.6407,11.5215,11.4407,11.3676,11.2329,11.1083,10.9904,10.878,10.7756,10.6761,10.5822,10.4932,10.4538,10.4095,10.3539,10.339,10.3279,10.3204,10.2981,10.2907,10.2796,10.2796,10.2758,10.2758,10.2981,10.3093,10.2944,10.2907,10.3353,10.3279,10.287,10.2684,10.2684,12.7419,12.7419,12.7419,12.7419,12.7419,12.7419,12.6994,12.6491,12.6994,12.6916,12.6452,12.7033,12.7149,12.7419,12.7071,12.7303,12.7303,12.7149,12.7226,12.7187,12.7265,12.68,12.6065,12.5098,12.4712,12.4789,12.4905,12.4518,12.4209,12.4093,12.3977,12.417,12.4131,12.4054,12.4011,12.4391,12.4415,12.4056,12.384,12.4947,12.6255,12.5437,12.5503,12.7294,12.6332,12.5947,12.6332,12.6563,12.664,12.7217,12.6996,12.6919,12.7025,12.7156,12.7041,12.6909,12.6294,12.5717,12.5486,12.4947,12.4409,12.4332,12.437,12.4024,12.3524,12.3178,12.2678,12.1793,12.0185,11.9607,11.9715,11.9485,11.9177,11.9023,11.8446,11.76,11.6869,11.6561,11.6484,11.6446,11.6446,11.6369,11.5792,11.4561,11.3137,11.3445,11.2286,11.1346,11.0098,10.8941,10.7983,10.7118,10.615,10.5321,10.5173,10.5173,10.4653,10.4282,10.417,10.4022,10.3576,10.339,10.3093,10.2944,10.2907,10.2833,10.2758,10.2796,10.2758,10.2796,10.3019,10.2907,10.2684,10.2684,10.2684,12.7419,12.7419,12.7419,12.7419,12.7419,12.7419,12.7303,12.7149,12.7303,12.7265,12.7187,12.7342,12.7419,12.7419,12.7419,12.7419,12.7419,12.7419,12.7419,12.7419,12.7419,12.7342,12.6955,12.622,12.5872,12.5833,12.5833,12.5717,12.564,12.5949,12.6143,12.5601,12.5833,12.5562,12.4209,12.5128,12.5081,12.4536,12.4318,12.5832,12.7525,12.6437,12.6437,12.8525,12.8179,12.8871,13.0025,13.0333,13.0448,13.0102,12.8882,12.8266,12.914,12.9436,12.9129,12.8448,12.7717,12.7025,12.6524,12.614,12.5832,12.5255,12.5563,12.5794,12.4909,12.4178,12.3524,12.2524,12.11,12.0331,12.0369,11.9638,11.9677,11.9869,11.9331,11.8484,11.7638,11.6946,11.6599,11.6407,11.6022,11.5561,11.5561,11.4714,11.3676,11.3137,11.2396,11.1569,11.036,10.9049,10.825,10.7436,10.6579,10.5879,10.5953,10.5842,10.5359,10.5062,10.4987,10.4913,10.4505,10.4133,10.3947,10.3539,10.3093,10.2944,10.2721,10.2721,10.2721,10.2721,10.2684,10.2684,10.2684,10.2684,10.2684,12.7419,12.7419,12.7419,12.7419,12.7419,12.7419,12.7419,12.7419,12.7419,12.7419,12.7419,12.7419,12.7419,12.7419,12.7419,12.7419,12.7419,12.7419,12.7419,12.7419,12.7419,12.7419,12.7381,12.6994,12.6723,12.6723,12.6723,12.6723,12.6878,12.7071,12.7033,12.6762,12.7187,12.6645,12.56,12.6286,12.6388,12.6028,12.6236,12.7381,12.8063,12.7821,12.7514,12.8909,12.9217,12.9871,13.0833,13.0141,13.0602,13.091,13.0152,12.9498,13.0256,13.0487,13.0064,12.9256,12.8371,12.7794,12.7332,12.6909,12.6447,12.6063,12.6447,12.6101,12.5601,12.4947,12.437,12.3485,12.2408,12.1515,12.1485,12.1254,12.1177,12.1139,12.0369,11.9369,11.8484,11.7638,11.6869,11.6599,11.6176,11.5984,11.5599,11.483,11.4253,11.3637,11.2824,11.1953,11.0313,10.912,10.8576,10.783,10.7068,10.6585,10.6696,10.6474,10.5991,10.5805,10.5805,10.5768,10.5582,10.5248,10.4913,10.4244,10.3464,10.2907,10.2684,10.2684,10.2684,10.2684,10.2684,10.2684,10.2721,10.2758,10.2721,12.7419,12.7419,12.7419,12.7419,12.7419,12.7419,12.7419,12.7419,12.7419,12.7419,12.7419,12.7419,12.7419,12.7419,12.7419,12.7419,12.7381,12.7149,12.7071,12.7071,12.7071,12.7071,12.7033,12.6994,12.711,12.7381,12.7303,12.7303,12.7342,12.7419,12.7342,12.7342,12.7381,12.7148,12.7338,12.7633,12.7422,12.686,12.7737,12.8382,12.8409,12.8706,12.909,12.9717,12.9833,13.0448,13.1102,13.0564,13.0141,13.1679,13.1383,13.0998,13.0756,13.0998,13.046,12.964,12.9179,12.8717,12.7948,12.7448,12.7178,12.6948,12.6717,12.6371,12.5832,12.5601,12.5178,12.4409,12.3524,12.2947,12.3062,12.2639,12.2678,12.2524,12.137,12.0254,11.9369,11.8607,11.7869,11.6638,11.6099,11.583,11.5676,11.5176,11.4676,11.4099,11.3286,11.2244,11.0661,10.9507,10.9086,10.8325,10.7554,10.7105,10.7142,10.7142,10.6622,10.6511,10.6548,10.6511,10.6474,10.6028,10.547,10.4542,10.3762,10.3279,10.2833,10.2684,10.2684,10.2684,10.2684,10.2684,10.2758,10.2833,10.2944,12.7419,12.7419,12.7419,12.7419,12.7419,12.7419,12.7419,12.7419,12.7419,12.7419,12.7419,12.7419,12.7419,12.7419,12.7419,12.7419,12.7265,12.6916,12.6491,12.6452,12.6414,12.6414,12.6452,12.653,12.68,12.7265,12.7419,12.7419,12.7419,12.7419,12.7419,12.7419,12.7419,12.738,12.734,12.7332,12.7429,12.7331,12.8083,12.8612,12.9025,12.9436,13.009,13.1025,13.1218,13.2025,13.3141,13.3295,13.3141,13.2872,13.3346,13.2769,13.2256,13.2923,13.2384,13.0948,13.1064,13.0487,12.864,12.8525,12.8294,12.7794,12.7255,12.6832,12.6524,12.6409,12.6024,12.5293,12.4524,12.3947,12.387,12.3447,12.2985,12.2678,12.1985,12.0946,12.0254,11.9677,11.8792,11.7215,11.633,11.5869,11.6099,11.5945,11.5253,11.4791,11.4176,11.302,11.1539,11.0605,10.997,10.9103,10.8073,10.7737,10.7551,10.7514,10.7291,10.7217,10.7217,10.7217,10.7031,10.6622,10.5991,10.5136,10.4356,10.3762,10.3353,10.3056,10.3056,10.3279,10.3056,10.2796,10.3167,10.3576,10.3762,12.7419,12.7419,12.7419,12.7419,12.7419,12.7419,12.7419,12.7419,12.7419,12.7419,12.7419,12.7419,12.7419,12.7419,12.7419,12.7419,12.7265,12.7033,12.653,12.622,12.6104,12.6104,12.6104,12.6104,12.6646,12.7187,12.7419,12.7419,12.7419,12.7419,12.7419,12.7419,12.7419,12.7419,12.7496,12.768,12.7589,12.7847,12.8593,12.9333,12.9948,13.0552,13.1679,13.2179,13.2833,13.3487,13.391,13.3795,13.368,13.368,13.4039,13.4,13.4154,13.4334,13.427,13.2025,13.1987,13.1641,12.9679,12.964,12.9448,12.8717,12.814,12.7755,12.7448,12.7217,12.6871,12.6217,12.587,12.5447,12.5447,12.4255,12.3639,12.3293,12.2408,12.1293,12.06,12.0369,11.9331,11.81,11.7907,11.7677,11.7446,11.6984,11.6022,11.5407,11.4945,11.375,11.2409,11.1626,11.0957,10.941,10.8405,10.8182,10.7885,10.7737,10.7625,10.7625,10.7625,10.7625,10.7551,10.7105,10.6622,10.5991,10.521,10.4579,10.4356,10.4244,10.4096,10.3947,10.3984,10.4022,10.4133,10.4319,10.4505,12.7419,12.7419,12.7419,12.7419,12.7419,12.7419,12.7419,12.7419,12.7419,12.7419,12.7419,12.7419,12.7419,12.7342,12.7226,12.7187,12.7303,12.7226,12.6646,12.6182,12.5833,12.5833,12.6065,12.6065,12.6336,12.7303,12.7419,12.7419,12.7419,12.7419,12.7419,12.7419,12.7419,12.7419,12.7496,12.7641,12.8019,12.847,12.9248,13.0025,13.1025,13.2333,13.3372,13.3487,13.418,13.4603,13.4911,13.4526,13.4334,13.4526,13.477,13.5052,13.5526,13.6296,13.5488,13.3295,13.2756,13.2064,13.1025,13.0987,13.0641,12.9602,12.9294,12.8794,12.8332,12.7871,12.7486,12.6909,12.664,12.6524,12.6217,12.5063,12.4255,12.3716,12.2601,12.1408,12.0946,12.0639,12.0523,11.9792,11.9638,11.9177,11.8677,11.783,11.683,11.6407,11.5984,11.4758,11.3439,11.2668,11.1701,10.9824,10.8777,10.8554,10.822,10.7885,10.7737,10.7625,10.7625,10.7625,10.7625,10.7514,10.7068,10.6622,10.6399,10.5842,10.5656,10.521,10.4839,10.469,10.5062,10.5099,10.4802,10.5025,10.5396,12.7419,12.7419,12.7419,12.7419,12.7419,12.7419,12.7419,12.7419,12.7419,12.7419,12.7419,12.7419,12.7419,12.7265,12.6684,12.68,12.6994,12.6684,12.6298,12.6027,12.5447,12.5408,12.5833,12.5253,12.6065,12.7071,12.7342,12.7419,12.7419,12.7419,12.7458,12.7497,12.7458,12.7458,12.7573,12.7564,12.7126,12.7352,12.8006,12.9475,13.1474,13.3166,13.4257,13.4911,13.5295,13.5642,13.6103,13.5911,13.5834,13.5411,13.6065,13.6065,13.5834,13.6334,13.6642,13.6296,13.5872,13.4872,13.2449,13.2218,13.1949,13.0718,12.9871,12.9294,12.8833,12.8217,12.7563,12.6794,12.6717,12.6601,12.6294,12.5063,12.4332,12.3524,12.2562,12.1793,12.1331,12.1062,12.0946,12.0946,12.0639,12.0023,11.9446,11.8523,11.7677,11.733,11.6808,11.5611,11.441,11.3417,11.259,11.0797,10.9408,10.9074,10.8777,10.8405,10.7885,10.7699,10.7625,10.7625,10.7625,10.7625,10.7625,10.7254,10.7068,10.6696,10.6139,10.5693,10.5359,10.547,10.5805,10.5582,10.521,10.5619,10.6213,12.7419,12.7419,12.7419,12.7419,12.7419,12.7419,12.7419,12.7419,12.7419,12.7419,12.7419,12.7419,12.7419,12.7265,12.6955,12.7071,12.7149,12.653,12.6104,12.5988,12.5369,12.5098,12.5331,12.5485,12.6143,12.6723,12.711,12.7419,12.7419,12.7497,12.7574,12.7961,12.769,12.769,12.7999,12.7873,12.8096,12.8618,12.9595,13.0821,13.2359,13.3589,13.468,13.5488,13.5949,13.6411,13.668,13.6796,13.6642,13.6296,13.668,13.6642,13.6411,13.6603,13.6796,13.6796,13.6757,13.5795,13.4218,13.3834,13.291,13.2064,13.1025,13.0294,12.936,12.8448,12.7602,12.6794,12.6717,12.6486,12.5947,12.4832,12.4062,12.3255,12.237,12.1947,12.16,12.16,12.1447,12.1523,12.1523,12.0831,12.0254,11.9715,11.8908,11.8246,11.7482,11.6193,11.4868,11.3609,11.2811,11.1835,11.0597,10.9631,10.9371,10.9,10.8145,10.7848,10.7625,10.7625,10.7625,10.7625,10.7625,10.7625,10.7439,10.6994,10.6511,10.6474,10.6474,10.6511,10.6585,10.6362,10.6213,10.6548,10.7031,12.7419,12.7419,12.7419,12.7419,12.7419,12.7419,12.7419,12.7419,12.7419,12.7419,12.7419,12.7419,12.7419,12.7419,12.7381,12.7342,12.7342,12.6723,12.6491,12.6143,12.5872,12.5756,12.6104,12.6452,12.6723,12.6994,12.7613,12.8,12.8116,12.8116,12.8386,12.858,12.8077,12.8232,12.8695,12.8761,12.8817,12.9227,13.0663,13.1756,13.2667,13.3897,13.4834,13.5603,13.6257,13.6796,13.6796,13.6796,13.6757,13.6757,13.6757,13.668,13.6372,13.6296,13.618,13.6065,13.5911,13.568,13.4834,13.4372,13.3757,13.2872,13.2141,13.0948,12.9782,12.8706,12.7871,12.714,12.6409,12.6024,12.537,12.4486,12.3639,12.2908,12.2139,12.1831,12.16,12.16,12.16,12.16,12.16,12.16,12.11,12.0869,12.0216,11.9361,11.8178,11.6771,11.5247,11.3745,11.2958,11.2195,11.1043,11.004,10.9743,10.9334,10.8517,10.7922,10.7699,10.7625,10.7625,10.7625,10.7625,10.7625,10.7625,10.7439,10.7068,10.7365,10.7588,10.7328,10.7142,10.7365,10.7439,10.7625,10.7625,12.7419,12.7419,12.7419,12.7419,12.7419,12.7419,12.7419,12.7419,12.7419,12.7419,12.7419,12.7419,12.7419,12.7419,12.7381,12.7381,12.7342,12.7303,12.7071,12.7071,12.7265,12.7303,12.7458,12.7613,12.8,12.8889,12.8812,12.8967,12.9431,12.9237,12.9083,12.8696,12.8618,12.9083,12.9428,12.9495,12.9504,12.9903,13.1025,13.1718,13.2603,13.3834,13.518,13.5526,13.6219,13.6796,13.6796,13.668,13.6642,13.6642,13.6488,13.6219,13.5719,13.5603,13.5334,13.5026,13.4911,13.4718,13.4334,13.4141,13.341,13.2372,13.1641,13.1333,13.0244,12.9525,12.8679,12.7535,12.6255,12.5447,12.4793,12.4101,12.3178,12.2562,12.2024,12.1754,12.16,12.16,12.16,12.16,12.16,12.16,12.1562,12.1254,12.0754,11.9861,11.8179,11.6755,11.5119,11.3745,11.3145,11.2306,11.1154,11.0374,11.0003,10.9408,10.8628,10.8034,10.7662,10.7625,10.7625,10.7625,10.7625,10.7625,10.7625,10.7625,10.7625,10.7625,10.7625,10.7625,10.7625,10.7625,10.7625,10.7625,10.7625,12.7419,12.7419,12.7419,12.7419,12.7419,12.7419,12.7419,12.7419,12.7419,12.7419,12.7419,12.7419,12.7419,12.7419,12.7342,12.7071,12.6646,12.6607,12.6684,12.6839,12.711,12.7574,12.7922,12.858,12.9044,12.9276,12.9236,12.9081,12.9044,12.9818,12.9779,12.947,12.947,12.9547,12.9814,13.0267,13.0383,13.0729,13.1333,13.1833,13.2641,13.3218,13.4218,13.4795,13.5565,13.5949,13.5988,13.5988,13.5988,13.5911,13.5603,13.5166,13.482,13.4757,13.4539,13.4231,13.4103,13.391,13.3564,13.3449,13.291,13.2102,13.1641,13.1372,13.0552,12.9333,12.814,12.6958,12.5688,12.4678,12.3793,12.3293,12.2793,12.2254,12.187,12.1639,12.16,12.16,12.16,12.16,12.16,12.16,12.16,12.1523,12.0985,12.0284,11.8509,11.6675,11.511,11.382,11.3142,11.2678,11.16,11.1006,11.0634,10.9743,10.8777,10.8257,10.7774,10.7774,10.7848,10.7625,10.7625,10.7625,10.7625,10.7625,10.7625,10.7625,10.7625,10.7625,10.7625,10.7625,10.7625,10.7625,10.7662,12.7265,12.7071,12.7265,12.7419,12.7419,12.7419,12.7419,12.7419,12.7419,12.7419,12.7419,12.7419,12.7419,12.7419,12.7381,12.7381,12.6994,12.68,12.68,12.7226,12.7845,12.8077,12.8618,12.9353,13.0166,12.9856,12.9894,13.001,13.0204,13.0475,13.0475,13.0475,13.0553,13.0746,13.0822,13.1001,13.1385,13.1653,13.1756,13.191,13.2576,13.291,13.3218,13.3987,13.4718,13.5103,13.518,13.5141,13.5141,13.5026,13.4757,13.4243,13.4012,13.3872,13.3769,13.3615,13.35,13.3218,13.2795,13.2526,13.2333,13.1795,13.1679,13.141,13.0641,12.9333,12.8294,12.7622,12.5688,12.387,12.3216,12.287,12.237,12.1831,12.1754,12.16,12.16,12.16,12.16,12.16,12.16,12.16,12.16,12.1523,12.0871,12.0031,11.8336,11.6637,11.5065,11.3898,11.3175,11.2715,11.2195,11.1712,11.1303,11.03,10.9371,10.9111,10.8628,10.8257,10.8145,10.796,10.7699,10.7625,10.7625,10.7625,10.7625,10.7625,10.7625,10.7625,10.7625,10.7625,10.7774,10.7848,10.7811,12.6916,12.6259,12.7071,12.7419,12.7419,12.7419,12.7419,12.7419,12.7419,12.7419,12.7419,12.7419,12.7419,12.7419,12.7419,12.7574,12.7806,12.7497,12.7497,12.8077,12.8889,12.9508,13.0011,13.0553,13.1326,13.1984,13.1674,13.1442,13.1945,13.1906,13.1674,13.1442,13.1558,13.2061,13.2332,13.216,13.2002,13.1884,13.1756,13.1795,13.1987,13.2487,13.2833,13.3141,13.3872,13.4295,13.4295,13.4295,13.4295,13.4218,13.4026,13.3564,13.3103,13.3026,13.2769,13.2141,13.2025,13.1872,13.1756,13.1756,13.1756,13.1718,13.1679,13.1564,13.1295,13.0179,12.8948,12.8353,12.6265,12.4562,12.3601,12.2908,12.2408,12.1831,12.1831,12.1677,12.1677,12.16,12.16,12.16,12.16,12.16,12.16,12.1399,12.0683,11.9627,11.8104,11.6621,11.5264,11.386,11.3055,11.2975,11.2603,11.212,11.16,11.0783,11.004,10.9817,10.9483,10.9074,10.8703,10.8554,10.822,10.7848,10.7811,10.796,10.7811,10.7625,10.7737,10.7848,10.7662,10.7662,10.7848,10.7997,10.796,12.7226,12.6994,12.7265,12.7419,12.7419,12.7419,12.7419,12.7419,12.7419,12.7419,12.7419,12.7419,12.7419,12.7419,12.7419,12.7574,12.7729,12.769,12.7729,12.8,12.9315,12.974,13.0282,13.1288,13.2139,13.2332,13.2139,13.1752,13.152,13.2177,13.1945,13.1597,13.2061,13.2407,13.2323,13.2148,13.2049,13.1884,13.1756,13.1718,13.1718,13.2025,13.2179,13.2218,13.3026,13.341,13.3449,13.3449,13.3449,13.3372,13.3103,13.2564,13.2256,13.2218,13.2025,13.1718,13.1679,13.1679,13.1679,13.1718,13.1679,13.1679,13.1679,13.1679,13.1525,13.0141,12.941,12.8882,12.715,12.5717,12.487,12.4601,12.4024,12.2793,12.2447,12.2062,12.1908,12.1677,12.16,12.16,12.16,12.16,12.16,12.1515,12.0837,11.9691,11.8265,11.7307,11.6069,11.4085,11.2789,11.3086,11.2975,11.2455,11.1897,11.1266,11.0709,11.0411,11.0114,10.9817,10.9483,10.9223,10.8963,10.8665,10.848,10.8331,10.822,10.8108,10.8145,10.8108,10.8182,10.8182,10.8331,10.8294,10.8034,12.6762,12.6568,12.7149,12.7419,12.7419,12.7419,12.7419,12.7419,12.7419,12.7419,12.7419,12.7419,12.7419,12.7419,12.7419,12.7651,12.7767,12.7845,12.8193,12.8386,12.9663,13.0282,13.0901,13.1674,13.2293,13.2487,13.2448,13.2177,13.1868,13.2255,13.2177,13.1984,13.2216,13.2368,13.2362,13.2232,13.2096,13.1944,13.1818,13.1679,13.1679,13.1756,13.1718,13.1872,13.2218,13.2564,13.2526,13.2564,13.2564,13.2372,13.2102,13.1679,13.1679,13.1679,13.1679,13.1679,13.1679,13.1679,13.1679,13.1679,13.1679,13.1679,13.1679,13.1679,13.1487,13.0448,12.9948,12.9256,12.8063,12.6986,12.614,12.5947,12.5063,12.3832,12.3293,12.2947,12.2716,12.2524,12.2024,12.1985,12.1639,12.16,12.1562,12.1429,12.1167,11.9843,11.8521,11.7595,11.662,11.4459,11.2715,11.2863,11.3049,11.2603,11.2269,11.2009,11.1489,11.1006,11.0746,11.0523,11.03,11.004,10.9743,10.9483,10.9297,10.9111,10.8814,10.8703,10.9,10.9148,10.9148,10.9074,10.8963,10.8925,10.8851,12.5601,12.5137,12.6646,12.7342,12.7381,12.7419,12.7381,12.7342,12.7342,12.7303,12.7303,12.7265,12.7226,12.7303,12.7342,12.7806,12.827,12.8386,12.8889,12.9624,13.0321,13.0785,13.1288,13.1984,13.2409,13.2487,13.2487,13.2448,13.2409,13.2448,13.2409,13.2409,13.2409,13.2487,13.2404,13.2237,13.2103,13.201,13.1867,13.173,13.1679,13.1679,13.1679,13.1756,13.1872,13.191,13.191,13.191,13.1872,13.1795,13.1718,13.1679,13.1679,13.1679,13.1679,13.1679,13.1679,13.1679,13.1679,13.1679,13.1679,13.1679,13.1679,13.1679,13.1487,13.0987,13.0641,13.0179,12.9333,12.8179,12.7217,12.6524,12.5832,12.5101,12.4486,12.4178,12.3909,12.3524,12.2908,12.2447,12.187,12.1677,12.16,12.1429,12.1206,11.9997,11.8698,11.7432,11.6215,11.4421,11.2938,11.2566,11.2678,11.2603,11.2418,11.2343,11.2195,11.1675,11.1526,11.1303,11.108,11.0894,11.0634,11.0374,11.0151,10.9929,10.978,10.9891,11.0226,11.0263,11.0263,11.0226,11.0151,11.0411,11.0411,12.5369,12.5756,12.6259,12.68,12.7342,12.7419,12.7033,12.653,12.6491,12.6491,12.6491,12.6491,12.6684,12.653,12.711,12.7845,12.8116,12.827,12.8851,12.9547,13.0321,13.0707,13.1288,13.2023,13.2409,13.2487,13.2487,13.2487,13.2487,13.2487,13.2487,13.2487,13.2487,13.2487,13.2446,13.2362,13.2193,13.2064,13.1925,13.1818,13.1718,13.1679,13.1679,13.1679,13.1679,13.1679,13.1679,13.1679,13.1679,13.1679,13.1679,13.1679,13.1679,13.1679,13.1679,13.1679,13.1679,13.1679,13.1679,13.1679,13.1679,13.1679,13.1679,13.1679,13.1602,13.1448,13.1256,13.0833,13.0564,12.964,12.8948,12.8294,12.7371,12.6524,12.5909,12.5447,12.5024,12.3909,12.3293,12.2485,12.1908,12.1677,12.16,12.1562,12.1206,12.0054,11.8834,11.7521,11.6104,11.4441,11.3495,11.3086,11.2938,11.3049,11.2752,11.2603,11.2529,11.238,11.2158,11.2009,11.1935,11.1712,11.1489,11.1192,11.0857,11.082,11.0894,11.1006,11.1006,11.1415,11.1489,11.1415,11.1377,11.1526,11.1712,12.5408,12.5679,12.6336,12.6723,12.6916,12.7265,12.6916,12.6259,12.6452,12.6607,12.6607,12.6646,12.6646,12.6762,12.7226,12.7651,12.8,12.8154,12.858,12.9121,13.005,13.0707,13.1404,13.2023,13.2409,13.2487,13.2487,13.2487,13.2487,13.2487,13.2487,13.2487,13.2487,13.2487,13.2487,13.2404,13.2323,13.2154,13.2018,13.1867,13.1807,13.1718,13.1679,13.1679,13.1679,13.1679,13.1679,13.1679,13.1679,13.1679,13.1679,13.1679,13.1679,13.1679,13.1679,13.1679,13.1679,13.1679,13.1679,13.1679,13.1679,13.1679,13.1679,13.1679,13.1679,13.1602,13.1564,13.1448,13.1487,13.1333,13.0871,13.0294,12.914,12.8025,12.7409,12.6794,12.5601,12.4332,12.337,12.2447,12.1985,12.1677,12.16,12.16,12.1156,12.0051,11.9033,11.7969,11.6629,11.5143,11.4387,11.4015,11.3866,11.3792,11.3384,11.3012,11.2975,11.2863,11.2529,11.2455,11.2529,11.238,11.2009,11.1749,11.1489,11.1526,11.1637,11.1563,11.16,11.2083,11.2418,11.2306,11.2195,11.2158,11.2418,12.5485,12.5098,12.6723,12.6955,12.6375,12.711,12.6955,12.6336,12.6994,12.7303,12.7226,12.7187,12.711,12.6955,12.7265,12.7419,12.7729,12.7961,12.827,12.8696,13.005,13.0862,13.1365,13.2023,13.2448,13.2487,13.2487,13.2487,13.2487,13.2487,13.2487,13.2487,13.2487,13.2487,13.2487,13.2487,13.2407,13.2327,13.211,13.1954,13.1884,13.1795,13.1679,13.1679,13.1679,13.1679,13.1679,13.1679,13.1679,13.1679,13.1679,13.1679,13.1679,13.1679,13.1679,13.1679,13.1679,13.1679,13.1679,13.1679,13.1679,13.1679,13.1679,13.1679,13.1679,13.1679,13.1679,13.1679,13.1641,13.1525,13.1102,13.091,13.0141,12.9371,12.8794,12.8102,12.714,12.537,12.337,12.2485,12.1831,12.16,12.16,12.1562,12.1054,11.9946,11.9261,11.8375,11.719,11.5806,11.5204,11.487,11.4572,11.4312,11.4015,11.3681,11.3532,11.3309,11.2863,11.264,11.2529,11.2492,11.2492,11.2232,11.1972,11.2195,11.2269,11.212,11.2232,11.2901,11.3161,11.3123,11.3012,11.2826,11.2938,12.4789,12.5911,12.6955,12.7265,12.711,12.7303,12.7303,12.711,12.7303,12.7033,12.653,12.6452,12.6452,12.6568,12.7187,12.7381,12.7419,12.7651,12.8077,12.8657,12.9818,13.063,13.1249,13.1984,13.2409,13.2487,13.2487,13.2487,13.2487,13.2487,13.2487,13.2487,13.2487,13.2487,13.2487,13.2487,13.2448,13.2293,13.2126,13.1856,13.1664,13.1779,13.1818,13.173,13.1679,13.1679,13.1679,13.1679,13.1679,13.1679,13.1679,13.1679,13.1679,13.1679,13.1679,13.1679,13.1679,13.1679,13.1679,13.1679,13.1679,13.1679,13.1679,13.1679,13.1679,13.1679,13.1679,13.1679,13.1641,13.1525,13.141,13.1295,13.1102,13.0564,13.0025,12.9256,12.8486,12.6024,12.3524,12.2562,12.1793,12.16,12.16,12.1332,12.0752,12.0224,11.9698,11.8923,11.7901,11.669,11.5984,11.5575,11.5092,11.4795,11.4609,11.4238,11.4015,11.3421,11.2863,11.264,11.2529,11.2826,11.3049,11.264,11.2455,11.2603,11.2603,11.2455,11.2752,11.3272,11.3309,11.3049,11.3272,11.3198,11.3346,12.4286,12.564,12.6878,12.7419,12.7419,12.7419,12.7419,12.7419,12.7419,12.7149,12.6723,12.6646,12.6491,12.6298,12.6994,12.7071,12.7033,12.7265,12.7613,12.8232,12.9276,13.0088,13.0939,13.1829,13.2332,13.2487,13.2487,13.2487,13.2487,13.2487,13.2487,13.2487,13.2487,13.2487,13.2487,13.2487,13.2293,13.1945,13.1863,13.1498,13.1183,13.1376,13.152,13.1422,13.1448,13.1564,13.1679,13.1679,13.1679,13.1679,13.1679,13.1679,13.1679,13.1679,13.1679,13.1679,13.1679,13.1679,13.1679,13.1679,13.1679,13.1679,13.1679,13.1679,13.1679,13.1679,13.1679,13.1679,13.1679,13.1564,13.1564,13.1525,13.1141,13.0641,13.0141,12.9563,12.7871,12.5563,12.3793,12.2754,12.2062,12.16,12.16,12.1562,12.0912,11.9946,11.957,11.8935,11.801,11.7433,11.6801,11.6318,11.591,11.591,11.6021,11.5315,11.4424,11.3718,11.2901,11.264,11.2566,11.3309,11.3606,11.3049,11.2752,11.2863,11.2826,11.2715,11.2603,11.2901,11.2901,11.2752,11.3086,11.3346,11.3198,12.3977,12.5137,12.6607,12.7303,12.7419,12.7419,12.7419,12.7419,12.7419,12.7303,12.7071,12.7071,12.6723,12.6607,12.6916,12.6607,12.6607,12.7149,12.7381,12.7884,12.9005,12.947,13.0282,13.1326,13.2023,13.2448,13.2487,13.2487,13.2487,13.2487,13.2487,13.2487,13.2487,13.2487,13.2487,13.2409,13.2177,13.1597,13.1208,13.0546,13.0572,13.0854,13.0981,13.1037,13.1179,13.1641,13.1679,13.1679,13.1679,13.1679,13.1679,13.1679,13.1679,13.1679,13.1679,13.1679,13.1679,13.1679,13.1679,13.1679,13.1679,13.1679,13.1679,13.1679,13.1679,13.1679,13.1679,13.1679,13.1679,13.1679,13.1679,13.1564,13.1179,13.0679,13.0217,12.9294,12.714,12.514,12.4024,12.287,12.2216,12.1639,12.16,12.16,12.0912,11.9946,11.9173,11.8468,11.7932,11.7643,11.7136,11.6987,11.6801,11.695,11.6987,11.6021,11.4758,11.3941,11.3198,11.2789,11.2603,11.3049,11.3309,11.3235,11.3049,11.3235,11.3123,11.3012,11.2901,11.2752,11.264,11.264,11.2678,11.2826,11.2678,12.3861,12.5911,12.622,12.6723,12.7342,12.7419,12.7419,12.7419,12.7419,12.7033,12.6607,12.6375,12.6182,12.6143,12.6994,12.6916,12.6375,12.6994,12.7303,12.769,12.858,12.8812,12.9392,13.0669,13.1713,13.2177,13.2332,13.2448,13.2177,13.2293,13.2448,13.2409,13.2487,13.2487,13.2448,13.2293,13.1906,13.121,13.0707,13.0203,12.9505,12.9877,13.0653,13.0894,13.1256,13.1564,13.1679,13.1679,13.1679,13.1679,13.1679,13.1679,13.1679,13.1679,13.1679,13.1679,13.1679,13.1679,13.1679,13.1679,13.1679,13.1679,13.1679,13.1679,13.1679,13.1679,13.1679,13.1679,13.1679,13.1679,13.1679,13.1564,13.1218,13.0641,13.0102,12.8256,12.6217,12.487,12.3707,12.2754,12.187,12.16,12.16,12.1381,12.1003,12.0165,11.957,11.8865,11.789,11.7606,11.7433,11.7433,11.7433,11.695,11.6504,11.5947,11.4944,11.4127,11.3495,11.3198,11.2901,11.2603,11.2752,11.3198,11.3495,11.3681,11.3569,11.3309,11.3123,11.2975,11.264,11.2529,11.2529,11.264,11.2789]},{"header":{"parameterUnit":"m.s-1","parameterCategory":1,"la1":31.0,"la2":29.5877,"lo1":-88.7671,"lo2":-86.6584,"dy":0.0162,"dx":0.0185,"nx":115,"ny":88,"refTime":"2026-02-17T12:00:00:Z","depth":0,"parameterNumber":3,"parameterNumberName":"V-component_of_WINDS"},"data":[0.0,0.0,0.0,0.0,0.0,0.0,0.0,0.0,0.0,0.0,0.0,0.0,0.0,0.0,0.0,0.0,0.0,0.0,0.0,0.0,0.0,0.0,0.0,0.0,0.0,0.0,0.0,0.0,0.0,0.0,0.0,0.0,0.0,0.0,0.0,0.0,0.0,0.0,0.0,0.0,0.0,0.0,0.0,0.0,0.0,0.0,0.0,0.0,0.0,0.0,0.0,0.0,0.0,0.0,0.0,0.0,0.0,0.0,0.0,0.0,0.0,0.0,0.0,0.0,0.0,0.0,0.0,0.0,0.0,0.0,0.0,0.0,0.0,0.0,0.0,0.0,0.0,0.0,0.0,0.0,0.0,0.0,0.0,0.0,0.0,0.0,0.0,0.0,0.0,0.0,0.0,0.0,0.0,0.0,0.0,0.0,0.0,0.0,0.0,0.0,0.0,0.0,0.0,0.0,0.0,0.0,0.0,0.0,0.0,0.0,0.0,0.0,0.0,0.0,0.0,0.0,0.0,0.0,0.0,0.0,0.0,0.0,0.0,0.0,0.0,0.0,0.0,0.0,0.0,0.0,0.0,0.0,0.0,0.0,0.0,0.0,0.0,0.0,0.0,0.0,0.0,0.0,0.0,0.0,0.0,0.0,0.0,0.0,0.0,0.0,0.0,0.0,0.0,0.0,0.0,0.0,0.0,0.0,0.0,0.0,0.0,0.0,0.0,0.0,0.0,0.0,0.0,0.0,0.0,0.0,0.0,0.0,0.0,0.0,0.0,0.0,0.0,0.0,0.0,0.0,0.0,0.0,0.0,0.0,0.0,0.0,0.0,0.0,0.0,0.0,0.0,0.0,0.0,0.0,0.0,0.0,0.0,0.0,0.0,0.0,0.0,0.0,0.0,0.0,0.0,0.0,0.0,0.0,0.0,0.0,0.0,0.0,0.0,0.0,0.0,0.0,0.0,0.0,0.0,0.0,0.0,0.0,0.0,0.0,0.0,0.0,0.0,0.0,0.0,0.0,0.0,0.0,0.0,0.0,0.0,0.0,0.0,0.0,0.0,0.0,0.0,0.0,0.0,0.0,0.0,0.0,0.0,0.0,0.0,0.0,0.0,0.0,0.0,0.0,0.0,0.0,0.0,0.0,0.0,0.0,0.0,0.0,0.0,0.0,0.0,0.0,0.0,0.0,0.0,0.0,0.0,0.0,0.0,0.0,0.0,0.0,0.0,0.0,0.0,0.0,0.0,0.0,0.0,0.0,0.0,0.0,0.0,0.0,0.0,0.0,0.0,0.0,0.0,0.0,0.0,0.0,0.0,0.0,0.0,0.0,0.0,0.0,0.0,0.0,0.0,0.0,0.0,0.0,0.0,0.0,0.0,0.0,0.0,0.0,0.0,0.0,0.0,0.0,0.0,0.0,0.0,0.0,0.0,0.0,0.0,0.0,0.0,0.0,0.0,0.0,0.0,0.0,0.0,0.0,0.0,0.0,0.0,0.0,0.0,0.0,0.0,0.0,0.0,0.0,0.0,0.0,0.0,0.0,0.0,0.0,0.0,0.0,0.0,0.0,0.0,0.0,0.0,0.0,0.0,0.0,0.0,0.0,0.0,0.0,0.0,0.0,0.0,0.0,0.0,0.0,0.0,0.0,0.0,0.0,0.0,0.0,0.0,0.0,0.0,0.0,0.0,0.0,0.0,0.0,0.0,0.0,0.0,0.0,0.0,0.0,0.0,0.0,0.0,0.0,0.0,0.0,0.0,0.0,0.0,0.0,0.0,0.0,0.0,0.0,0.0,0.0,0.0,0.0,0.0,0.0,0.0,0.0,0.0,0.0,0.0,0.0,0.0,0.0,0.0,0.0,0.0,0.0,0.0,0.0,0.0,0.0,0.0,0.0,0.0,0.0,0.0,0.0,0.0,0.0,0.0,0.0,0.0,0.0,0.0,0.0,0.0,0.0,0.0,0.0,0.0,0.0,0.0,0.0,0.0,0.0,0.0,0.0,0.0,0.0,0.0,0.0,0.0,0.0,0.0,0.0,0.0,0.0,0.0,0.0,0.0,0.0,0.0,0.0,0.0,0.0,0.0,0.0,0.0,0.0,0.0,0.0,0.0,0.0,0.0,0.0,0.0,0.0,0.0,0.0,0.0,0.0,0.0,0.0,0.0,0.0,0.0,0.0,0.0,0.0,0.0,0.0,0.0,0.0,0.0,0.0,0.0,0.0,0.0,0.0,0.0,0.0,0.0,0.0,0.0,0.0,0.0,0.0,0.0,0.0,0.0,0.0,0.0,0.0,0.0,0.0,0.0,0.0,0.0,0.0,0.0,0.0,0.0,0.0,0.0,0.0,0.0,0.0,0.0,0.0,0.0,0.0,0.0,0.0,0.0,0.0,0.0,0.0,0.0,0.0,0.0,0.0,0.0,0.0,0.0,0.0,0.0,0.0,0.0,0.0,0.0,0.0,0.0,0.0,0.0,0.0,0.0,0.0,0.0,0.0,0.0,0.0,0.0,0.0,0.0,0.0,0.0,0.0,0.0,0.0,0.0,0.0,0.0,0.0,0.0,0.0,0.0,0.0,0.0,0.0,0.0,0.0,0.0,0.0,0.0,0.0,0.0,0.0,0.0,0.0,0.0,0.0,0.0,0.0,0.0,0.0,0.0,0.0,0.0,0.0,0.0,0.0,0.0,0.0,0.0,0.0,0.0,0.0,0.0,0.0,0.0,0.0,0.0,0.0,0.0,0.0,0.0,0.0,0.0,0.0,0.0,0.0,0.0,0.0,0.0,0.0,0.0,0.0,0.0,0.0,0.0,0.0,0.0,0.0,0.0,0.0,0.0,0.0,0.0,0.0,0.0,0.0,0.0,0.0,0.0,0.0,0.0,0.0,0.0,0.0,0.0,0.0,0.0,0.0,0.0,0.0,0.0,0.0,0.0,0.0,0.0,0.0,0.0,0.0,0.0,0.0,0.0,0.0,0.0,0.0,0.0,0.0,0.0,0.0,0.0,0.0,0.0,0.0,0.0,0.0,0.0,0.0,0.0,0.0,0.0,0.0,0.0,0.0,0.0,0.0,0.0,0.0,0.0,0.0,0.0,0.0,0.0,0.0,0.0,0.0,0.0,0.0,0.0,0.0,0.0,0.0,0.0,0.0,0.0,0.0,0.0,0.0,0.0,0.0,0.0,0.0,0.0,0.0,0.0,0.0,0.0,0.0,0.0,0.0,0.0,0.0,0.0,0.0,0.0,0.0,0.0,0.0,0.0,0.0,0.0,0.0,0.0,0.0,0.0,0.0,0.0,0.0,0.0,0.0,0.0,0.0,0.0,0.0,0.0,0.0,0.0,0.0,0.0,0.0,0.0,0.0,0.0,0.0,0.0,0.0,0.0,0.0,0.0,0.0,0.0,0.0,0.0,0.0,0.0,0.0,0.0,0.0,0.0,0.0,0.0,0.0,0.0,0.0,0.0,0.0,0.0,0.0,0.0,0.0,0.0,0.0,0.0,0.0,0.0,0.0,0.0,0.0,0.0,0.0,0.0,0.0,0.0,0.0,0.0,0.0,0.0,0.0,0.0,0.0,0.0,0.0,0.0,0.0,0.0,0.0,0.0,0.0,0.0,0.0,0.0,0.0,0.0,0.0,0.0,0.0,0.0,0.0,0.0,0.0,0.0,0.0,0.0,0.0,0.0,0.0,0.0,0.0,0.0,0.0,0.0,0.0,0.0,0.0,0.0,0.0,0.0,0.0,0.0,0.0,0.0,0.0,0.0,0.0,0.0,0.0,0.0,0.0,0.0,0.0,0.0,0.0,0.0,0.0,0.0,0.0,0.0,0.0,0.0,0.0,0.0,0.0,0.0,0.0,0.0,0.0,0.0,0.0,0.0,0.0,0.0,0.0,0.0,0.0,0.0,0.0,0.0,0.0,0.0,0.0,0.0,0.0,0.0,0.0,0.0,0.0,0.0,0.0,0.0,0.0,0.0,0.0,0.0,0.0,0.0,0.0,0.0,0.0,0.0,0.0,0.0,0.0,0.0,0.0,0.0,0.0,0.0,0.0,0.0,0.0,0.0,0.0,0.0,0.0,0.0,0.0,0.0,0.0,0.0,0.0,0.0,0.0,0.0,0.0,0.0,0.0,0.0,0.0,0.0,0.0,0.0,0.0,0.0,0.0,0.0,0.0,0.0,0.0,0.0,0.0,0.0,0.0,0.0,0.0,0.0,0.0,0.0,0.0,0.0,0.0,0.0,0.0,0.0,0.0,0.0,0.0,0.0,0.0,-0.9381,0.0,0.0,0.0,0.0,0.0,0.0,0.0,0.0,0.0,0.0,0.0,0.0,0.0,0.0,0.0,0.0,0.0,0.0,0.0,0.0,0.0,0.0,0.0,0.0,0.0,0.0,0.0,0.0,0.0,0.0,0.0,0.0,0.0,0.0,0.0,0.0,0.0,0.0,0.0,0.0,0.0,0.0,0.0,0.0,0.0,0.0,0.0,0.0,0.0,0.0,0.0,0.0,0.0,0.0,0.0,0.0,0.0,0.0,0.0,0.0,0.0,0.0,0.0,0.0,0.0,0.0,0.0,0.0,0.0,0.0,0.0,0.0,0.0,0.0,0.0,0.0,0.0,0.0,0.0,0.0,0.0,0.0,0.0,0.0,0.0,0.0,0.0,0.0,0.0,0.0,0.0,0.0,0.0,0.0,0.0,0.0,0.0,0.0,0.0,0.0,0.0,0.0,0.0,0.0,0.0,0.0,0.0,0.0,0.0,0.0,-0.9822,-0.9815,-0.9605,-0.9456,-0.9381,0.0,0.0,0.0,0.0,0.0,0.0,0.0,0.0,0.0,0.0,0.0,0.0,0.0,0.0,0.0,0.0,0.0,0.0,0.0,0.0,0.0,0.0,0.0,0.0,0.0,0.0,0.0,0.0,0.0,0.0,0.0,0.0,0.0,0.0,0.0,0.0,0.0,0.0,0.0,0.0,0.0,0.0,0.0,0.0,0.0,0.0,0.0,0.0,0.0,0.0,0.0,0.0,0.0,0.0,0.0,0.0,0.0,0.0,0.0,0.0,0.0,0.0,0.0,0.0,0.0,0.0,0.0,0.0,0.0,0.0,0.0,0.0,0.0,0.0,0.0,0.0,0.0,0.0,0.0,0.0,0.0,0.0,0.0,0.0,0.0,0.0,0.0,0.0,0.0,0.0,0.0,0.0,0.0,0.0,0.0,0.0,0.0,0.0,0.0,0.0,0.0,0.0,0.0,0.0,0.0,0.0,0.0,0.0,0.0,0.0,0.0,0.0,-0.9754,-0.9585,-0.96,0.0,0.0,0.0,0.0,0.0,0.0,0.0,0.0,0.0,0.0,0.0,0.0,0.0,0.0,0.0,0.0,0.0,0.0,0.0,0.0,0.0,0.0,0.0,0.0,0.0,0.0,0.0,0.0,0.0,0.0,0.0,0.0,0.0,0.0,0.0,0.0,0.0,0.0,0.0,0.0,0.0,0.0,0.0,0.0,0.0,0.0,0.0,0.0,0.0,0.0,0.0,0.0,0.0,0.0,0.0,0.0,0.0,0.0,0.0,0.0,0.0,0.0,0.0,0.0,0.0,0.0,0.0,0.0,0.0,0.0,0.0,0.0,0.0,0.0,0.0,0.0,0.0,0.0,0.0,0.0,0.0,0.0,0.0,0.0,0.0,0.0,0.0,0.0,0.0,0.0,0.0,0.0,0.0,0.0,0.0,0.0,0.0,0.0,0.0,0.0,0.0,0.0,0.0,0.0,0.0,0.0,0.0,0.0,0.0,0.0,-1.0012,-1.0412,-1.0399,0.0,-0.9937,0.0,0.0,0.0,0.0,0.0,0.0,0.0,0.0,0.0,0.0,0.0,0.0,0.0,0.0,0.0,0.0,0.0,0.0,0.0,0.0,0.0,0.0,0.0,0.0,0.0,0.0,0.0,0.0,0.0,0.0,0.0,0.0,0.0,0.0,0.0,0.0,0.0,0.0,0.0,0.0,0.0,0.0,0.0,0.0,0.0,0.0,0.0,0.0,0.0,0.0,0.0,0.0,0.0,0.0,0.0,0.0,0.0,0.0,0.0,0.0,0.0,0.0,0.0,0.0,0.0,0.0,0.0,0.0,0.0,0.0,0.0,0.0,0.0,0.0,0.0,0.0,0.0,0.0,0.0,0.0,0.0,0.0,0.0,0.0,0.0,0.0,0.0,0.0,0.0,0.0,0.0,0.0,0.0,0.0,0.0,0.0,0.0,0.0,0.0,0.0,0.0,0.0,0.0,0.0,0.0,0.0,0.0,0.0,0.0,0.0,0.0,-1.0365,-1.0188,-0.9971,0.0,0.0,0.0,0.0,0.0,0.0,0.0,0.0,0.0,0.0,0.0,0.0,0.0,0.0,0.0,0.0,0.0,0.0,0.0,0.0,0.0,0.0,0.0,0.0,0.0,0.0,0.0,0.0,0.0,0.0,0.0,0.0,0.0,0.0,0.0,0.0,0.0,0.0,0.0,0.0,0.0,0.0,0.0,0.0,0.0,0.0,0.0,0.0,0.0,0.0,0.0,0.0,0.0,0.0,0.0,0.0,0.0,0.0,0.0,0.0,0.0,0.0,0.0,0.0,0.0,0.0,0.0,0.0,0.0,0.0,0.0,0.0,0.0,0.0,0.0,0.0,0.0,0.0,0.0,0.0,0.0,0.0,0.0,0.0,0.0,0.0,0.0,0.0,0.0,0.0,0.0,0.0,0.0,0.0,0.0,0.0,0.0,0.0,0.0,0.0,0.0,0.0,0.0,0.0,0.0,0.0,0.0,0.0,0.0,0.0,-1.1306,0.0,-1.0568,-1.0209,-0.9903,-0.9557,0.0,0.0,0.0,0.0,0.0,0.0,0.0,0.0,0.0,0.0,0.0,0.0,0.0,0.0,0.0,0.0,0.0,0.0,0.0,0.0,0.0,0.0,0.0,0.0,0.0,0.0,0.0,0.0,0.0,0.0,0.0,0.0,0.0,0.0,0.0,0.0,0.0,0.0,0.0,0.0,0.0,0.0,0.0,0.0,0.0,0.0,0.0,0.0,0.0,0.0,0.0,0.0,0.0,0.0,0.0,0.0,0.0,0.0,0.0,0.0,0.0,0.0,0.0,0.0,0.0,0.0,0.0,0.0,0.0,0.0,0.0,0.0,0.0,0.0,0.0,0.0,0.0,0.0,0.0,0.0,0.0,0.0,0.0,0.0,0.0,0.0,0.0,0.0,0.0,0.0,0.0,0.0,0.0,0.0,0.0,0.0,0.0,0.0,0.0,0.0,0.0,0.0,0.0,0.0,0.0,0.0,0.0,0.0,0.0,-1.0863,-1.0863,-1.0894,-1.0758,-1.027,0.0,0.0,0.0,0.0,0.0,0.0,0.0,0.0,0.0,0.0,0.0,0.0,0.0,0.0,0.0,0.0,0.0,0.0,0.0,0.0,0.0,0.0,0.0,0.0,0.0,0.0,0.0,0.0,0.0,0.0,0.0,0.0,0.0,0.0,0.0,0.0,0.0,0.0,0.0,0.0,0.0,0.0,0.0,0.0,0.0,0.0,0.0,0.0,0.0,0.0,0.0,0.0,0.0,0.0,0.0,0.0,0.0,0.0,0.0,0.0,0.0,0.0,0.0,0.0,0.0,0.0,0.0,0.0,0.0,0.0,0.0,0.0,0.0,0.0,0.0,0.0,0.0,0.0,0.0,0.0,0.0,0.0,0.0,0.0,0.0,0.0,0.0,0.0,0.0,0.0,0.0,0.0,0.0,0.0,0.0,0.0,0.0,0.0,0.0,0.0,0.0,0.0,0.0,0.0,0.0,0.0,0.0,0.0,0.0,-0.9781,-0.9992,-1.0458,-1.1158,-1.0344,-0.9795,0.0,0.0,0.0,0.0,0.0,0.0,0.0,0.0,0.0,0.0,0.0,0.0,0.0,0.0,0.0,0.0,0.0,0.0,0.0,0.0,0.0,0.0,0.0,0.0,0.0,0.0,0.0,0.0,0.0,0.0,0.0,0.0,0.0,0.0,0.0,0.0,0.0,0.0,0.0,0.0,0.0,0.0,0.0,0.0,0.0,0.0,0.0,0.0,0.0,0.0,0.0,0.0,0.0,0.0,0.0,0.0,0.0,0.0,0.0,0.0,0.0,0.0,0.0,0.0,0.0,0.0,0.0,0.0,0.0,0.0,0.0,0.0,0.0,0.0,0.0,0.0,0.0,0.0,0.0,0.0,0.0,0.0,0.0,0.0,0.0,0.0,0.0,0.0,0.0,0.0,0.0,0.0,0.0,0.0,0.0,0.0,0.0,0.0,0.0,0.0,0.0,0.0,0.0,0.0,0.0,0.0,0.0,0.0,0.0,-0.9585,0.0,-1.0527,0.0,-1.0127,-0.953,0.0,0.0,0.0,0.0,0.0,0.0,0.0,0.0,0.0,0.0,0.0,0.0,0.0,0.0,0.0,0.0,0.0,0.0,0.0,0.0,0.0,0.0,0.0,0.0,0.0,0.0,0.0,0.0,0.0,0.0,0.0,0.0,0.0,0.0,0.0,0.0,0.0,0.0,0.0,0.0,0.0,0.0,0.0,0.0,0.0,0.0,0.0,0.0,0.0,0.0,0.0,0.0,0.0,0.0,0.0,0.0,0.0,0.0,0.0,0.0,0.0,0.0,0.0,0.0,0.0,0.0,0.0,0.0,0.0,0.0,0.0,0.0,0.0,0.0,0.0,0.0,0.0,0.0,0.0,0.0,0.0,0.0,0.0,0.0,0.0,0.0,0.0,0.0,0.0,0.0,0.0,0.0,0.0,0.0,0.0,0.0,0.0,0.0,0.0,0.0,0.0,0.0,0.0,0.0,0.0,0.0,0.0,0.0,0.0,-1.0297,-1.088,-1.0914,-1.0521,-1.0195,-0.9551,0.0,0.0,0.0,0.0,0.0,0.0,0.0,0.0,0.0,0.0,0.0,0.0,0.0,0.0,0.0,0.0,0.0,0.0,0.0,0.0,0.0,0.0,0.0,0.0,0.0,0.0,0.0,0.0,0.0,0.0,0.0,0.0,0.0,0.0,0.0,0.0,0.0,0.0,0.0,0.0,0.0,0.0,0.0,0.0,0.0,0.0,0.0,0.0,0.0,0.0,0.0,0.0,0.0,0.0,0.0,0.0,0.0,0.0,0.0,0.0,0.0,0.0,0.0,0.0,0.0,0.0,0.0,0.0,0.0,0.0,0.0,0.0,0.0,0.0,0.0,0.0,0.0,0.0,0.0,0.0,0.0,0.0,0.0,0.0,0.0,0.0,0.0,0.0,0.0,0.0,0.0,0.0,0.0,0.0,0.0,0.0,0.0,0.0,0.0,0.0,0.0,0.0,0.0,0.0,0.0,0.0,0.0,0.0,0.0,-1.1164,-1.0948,-1.0833,-1.1063,-1.012,-0.9578,0.0,0.0,0.0,0.0,0.0,0.0,0.0,0.0,0.0,0.0,0.0,0.0,0.0,0.0,0.0,0.0,0.0,0.0,0.0,0.0,0.0,0.0,0.0,0.0,0.0,0.0,0.0,0.0,0.0,0.0,0.0,0.0,0.0,0.0,0.0,0.0,0.0,0.0,0.0,0.0,0.0,0.0,0.0,0.0,0.0,0.0,0.0,0.0,0.0,0.0,0.0,0.0,0.0,0.0,0.0,0.0,0.0,0.0,0.0,0.0,0.0,0.0,0.0,0.0,0.0,0.0,0.0,0.0,0.0,0.0,0.0,0.0,0.0,0.0,0.0,0.0,0.0,0.0,0.0,0.0,0.0,0.0,0.0,0.0,0.0,0.0,0.0,0.0,0.0,0.0,0.0,0.0,0.0,0.0,0.0,0.0,0.0,0.0,0.0,0.0,0.0,0.0,0.0,0.0,0.0,0.0,0.0,0.0,0.0,-1.3358,-1.2284,-1.1735,-1.1884,-1.0907,-1.0195,-0.9802,0.0,0.0,0.0,0.0,0.0,0.0,0.0,0.0,0.0,0.0,0.0,0.0,0.0,0.0,0.0,0.0,0.0,0.0,0.0,0.0,0.0,0.0,0.0,0.0,0.0,0.0,0.0,0.0,0.0,0.0,0.0,0.0,0.0,0.0,0.0,0.0,0.0,0.0,0.0,0.0,0.0,0.0,0.0,0.0,0.0,0.0,0.0,0.0,0.0,0.0,0.0,0.0,0.0,0.0,0.0,0.0,0.0,0.0,0.0,0.0,0.0,0.0,0.0,0.0,0.0,0.0,0.0,0.0,0.0,0.0,0.0,0.0,0.0,0.0,0.0,0.0,0.0,0.0,0.0,0.0,0.0,0.0,0.0,0.0,0.0,0.0,0.0,0.0,0.0,0.0,0.0,0.0,0.0,0.0,0.0,0.0,0.0,0.0,0.0,0.0,0.0,0.0,0.0,0.0,0.0,0.0,0.0,0.0,-1.6689,-1.4902,-1.3587,-1.2935,-1.2379,-1.1287,0.0,0.0,0.0,0.0,0.0,0.0,0.0,0.0,0.0,0.0,0.0,0.0,0.0,0.0,0.0,0.0,0.0,0.0,0.0,0.0,0.0,0.0,0.0,0.0,0.0,0.0,0.0,0.0,0.0,0.0,0.0,0.0,0.0,0.0,0.0,0.0,0.0,0.0,0.0,0.0,0.0,0.0,0.0,0.0,0.0,0.0,0.0,0.0,0.0,0.0,0.0,0.0,0.0,0.0,0.0,0.0,0.0,0.0,0.0,0.0,0.0,0.0,0.0,0.0,0.0,0.0,0.0,0.0,0.0,0.0,0.0,0.0,0.0,0.0,0.0,0.0,0.0,0.0,0.0,0.0,0.0,0.0,0.0,0.0,0.0,0.0,0.0,0.0,0.0,0.0,0.0,0.0,0.0,0.0,0.0,0.0,0.0,0.0,0.0,0.0,0.0,0.0,0.0,0.0,0.0,0.0,0.0,0.0,0.0,-1.9191,-1.7911,-1.6435,-1.5065,-1.3431,-1.2182,0.0,0.0,0.0,0.0,0.0,0.0,0.0,0.0,0.0,0.0,0.0,0.0,0.0,0.0,0.0,0.0,0.0,0.0,0.0,0.0,0.0,0.0,0.0,0.0,0.0,0.0,0.0,0.0,0.0,0.0,0.0,0.0,0.0,0.0,0.0,0.0,0.0,0.0,0.0,0.0,0.0,0.0,0.0,0.0,0.0,0.0,0.0,0.0,0.0,0.0,0.0,0.0,0.0,0.0,0.0,0.0,0.0,0.0,0.0,0.0,0.0,0.0,0.0,0.0,0.0,0.0,0.0,0.0,0.0,0.0,0.0,0.0,0.0,0.0,0.0,0.0,0.0,0.0,0.0,0.0,0.0,0.0,0.0,0.0,0.0,0.0,0.0,0.0,0.0,0.0,0.0,0.0,0.0,0.0,0.0,0.0,0.0,0.0,0.0,0.0,0.0,0.0,0.0,0.0,0.0,0.0,0.0,0.0,-1.6122,-2.0809,-1.9886,-1.8735,-1.7663,-1.5303,-1.3444,0.0,0.0,0.0,0.0,0.0,0.0,0.0,0.0,0.0,0.0,0.0,0.0,0.0,0.0,0.0,0.0,0.0,0.0,0.0,0.0,0.0,0.0,0.0,0.0,0.0,0.0,0.0,0.0,0.0,0.0,0.0,0.0,0.0,0.0,0.0,0.0,0.0,0.0,0.0,0.0,0.0,0.0,0.0,0.0,0.0,0.0,0.0,0.0,0.0,0.0,0.0,0.0,0.0,0.0,0.0,0.0,0.0,0.0,0.0,0.0,0.0,0.0,0.0,0.0,0.0,0.0,0.0,0.0,0.0,0.0,0.0,0.0,0.0,0.0,0.0,0.0,0.0,0.0,0.0,0.0,0.0,0.0,0.0,0.0,0.0,0.0,0.0,0.0,0.0,0.0,0.0,0.0,0.0,0.0,0.0,0.0,0.0,0.0,0.0,0.0,0.0,0.0,0.0,0.0,0.0,0.0,0.0,0.0,-1.7054,-2.1225,-2.0743,-2.0451,-2.0064,-1.7365,-1.4821,0.0,0.0,0.0,0.0,0.0,0.0,0.0,0.0,0.0,0.0,0.0,0.0,0.0,0.0,0.0,0.0,0.0,0.0,0.0,0.0,0.0,0.0,0.0,0.0,0.0,0.0,0.0,0.0,0.0,0.0,0.0,0.0,0.0,0.0,0.0,0.0,0.0,0.0,0.0,0.0,0.0,0.0,0.0,0.0,0.0,0.0,0.0,0.0,0.0,0.0,0.0,0.0,0.0,0.0,0.0,0.0,0.0,0.0,0.0,0.0,0.0,0.0,0.0,0.0,0.0,0.0,0.0,0.0,0.0,0.0,0.0,0.0,0.0,0.0,0.0,0.0,0.0,0.0,0.0,0.0,0.0,0.0,0.0,0.0,0.0,0.0,0.0,0.0,0.0,0.0,0.0,0.0,0.0,0.0,0.0,0.0,0.0,0.0,0.0,0.0,0.0,0.0,0.0,0.0,0.0,0.0,0.0,0.0,-1.7545,-2.0914,-2.1014,-2.0817,-2.0282,-1.7521,-1.5357,0.0,0.0,0.0,0.0,0.0,0.0,0.0,0.0,0.0,0.0,0.0,0.0,0.0,0.0,0.0,0.0,0.0,0.0,0.0,0.0,0.0,0.0,0.0,0.0,0.0,0.0,0.0,0.0,0.0,0.0,0.0,0.0,0.0,0.0,0.0,0.0,0.0,0.0,0.0,0.0,0.0,0.0,0.0,0.0,0.0,0.0,0.0,0.0,-1.7274,0.0,0.0,0.0,0.0,0.0,0.0,0.0,0.0,0.0,0.0,0.0,0.0,0.0,0.0,0.0,0.0,0.0,0.0,0.0,0.0,0.0,0.0,0.0,0.0,0.0,0.0,0.0,0.0,0.0,0.0,0.0,0.0,0.0,0.0,0.0,0.0,0.0,0.0,0.0,0.0,0.0,0.0,0.0,0.0,0.0,0.0,0.0,0.0,0.0,0.0,0.0,0.0,0.0,0.0,0.0,0.0,0.0,0.0,0.0,-1.7846,-2.1003,-2.1104,-2.0994,-2.0485,-1.8321,-1.6273,0.0,0.0,0.0,0.0,0.0,0.0,0.0,0.0,0.0,0.0,0.0,0.0,0.0,0.0,0.0,0.0,0.0,0.0,0.0,0.0,0.0,0.0,0.0,0.0,0.0,0.0,0.0,0.0,0.0,0.0,0.0,0.0,0.0,0.0,0.0,0.0,0.0,0.0,0.0,0.0,0.0,0.0,0.0,0.0,0.0,0.0,0.0,0.0,0.0,0.0,0.0,0.0,0.0,0.0,0.0,0.0,0.0,0.0,0.0,0.0,0.0,0.0,0.0,0.0,0.0,0.0,0.0,0.0,0.0,0.0,0.0,0.0,0.0,0.0,0.0,0.0,0.0,0.0,0.0,0.0,0.0,0.0,0.0,0.0,0.0,0.0,0.0,0.0,0.0,0.0,0.0,0.0,0.0,0.0,0.0,0.0,0.0,0.0,0.0,0.0,0.0,0.0,0.0,0.0,0.0,0.0,0.0,-1.4461,-1.7925,-2.1213,-2.1365,-2.1082,-2.0722,-1.9189,-1.7154,0.0,0.0,0.0,0.0,0.0,0.0,0.0,0.0,0.0,0.0,0.0,0.0,0.0,0.0,0.0,0.0,0.0,0.0,0.0,0.0,0.0,0.0,0.0,0.0,0.0,0.0,0.0,0.0,0.0,0.0,0.0,0.0,0.0,0.0,0.0,0.0,0.0,0.0,0.0,-1.5523,-1.6272,0.0,0.0,0.0,0.0,0.0,0.0,0.0,0.0,-1.7503,0.0,0.0,0.0,0.0,0.0,0.0,0.0,0.0,0.0,0.0,0.0,0.0,0.0,0.0,0.0,0.0,0.0,0.0,0.0,0.0,0.0,0.0,0.0,0.0,0.0,0.0,0.0,0.0,0.0,0.0,0.0,0.0,0.0,0.0,0.0,0.0,0.0,0.0,0.0,0.0,0.0,0.0,0.0,0.0,0.0,0.0,0.0,0.0,0.0,0.0,0.0,0.0,0.0,0.0,0.0,0.0,-1.2951,-1.5048,-1.782,-2.1372,-2.1418,-2.1136,-2.0573,-1.9223,-1.7304,-1.4808,0.0,0.0,0.0,0.0,0.0,0.0,0.0,0.0,0.0,0.0,0.0,0.0,0.0,0.0,0.0,0.0,0.0,0.0,0.0,0.0,0.0,0.0,0.0,0.0,0.0,0.0,0.0,0.0,0.0,0.0,0.0,0.0,0.0,0.0,0.0,0.0,0.0,0.0,0.0,-1.9132,-1.9205,0.0,0.0,0.0,0.0,0.0,0.0,0.0,0.0,-1.8143,0.0,0.0,0.0,0.0,0.0,0.0,0.0,0.0,0.0,0.0,0.0,0.0,0.0,0.0,0.0,0.0,0.0,0.0,0.0,0.0,0.0,0.0,0.0,0.0,0.0,0.0,0.0,0.0,0.0,0.0,0.0,0.0,0.0,0.0,0.0,0.0,0.0,0.0,0.0,0.0,0.0,0.0,0.0,0.0,0.0,0.0,0.0,0.0,0.0,0.0,0.0,0.0,0.0,0.0,0.0,-1.1615,-1.5553,-1.8701,-2.1171,-2.1143,-2.0967,-2.0417,-1.8749,-1.6863,0.0,0.0,0.0,0.0,0.0,0.0,0.0,0.0,0.0,0.0,0.0,0.0,0.0,0.0,0.0,0.0,0.0,0.0,0.0,0.0,0.0,0.0,0.0,0.0,0.0,0.0,0.0,0.0,0.0,0.0,0.0,0.0,0.0,0.0,0.0,0.0,0.0,0.0,0.0,0.0,-2.0195,-2.0593,-2.1402,0.0,0.0,0.0,0.0,0.0,0.0,-1.9096,-1.8384,0.0,0.0,0.0,0.0,0.0,0.0,0.0,0.0,0.0,0.0,0.0,0.0,0.0,0.0,0.0,0.0,0.0,0.0,0.0,0.0,0.0,0.0,0.0,0.0,0.0,0.0,0.0,0.0,0.0,0.0,0.0,0.0,0.0,0.0,0.0,0.0,0.0,0.0,0.0,0.0,0.0,0.0,0.0,0.0,0.0,0.0,0.0,0.0,0.0,0.0,0.0,0.0,0.0,0.0,0.0,-1.0683,-1.597,-1.9556,-2.1007,-2.1034,-2.0804,-2.0349,-1.828,-1.6388,0.0,0.0,0.0,0.0,0.0,0.0,0.0,0.0,0.0,0.0,0.0,0.0,0.0,0.0,0.0,0.0,0.0,0.0,0.0,0.0,0.0,0.0,0.0,0.0,0.0,0.0,0.0,0.0,0.0,0.0,0.0,0.0,0.0,0.0,0.0,0.0,0.0,0.0,0.0,0.0,0.0,-2.1945,-2.2621,-2.1559,0.0,0.0,0.0,0.0,-2.0207,-2.0038,0.0,0.0,0.0,0.0,0.0,0.0,0.0,0.0,0.0,0.0,0.0,0.0,0.0,0.0,0.0,0.0,0.0,0.0,0.0,0.0,0.0,0.0,0.0,0.0,0.0,0.0,0.0,0.0,0.0,0.0,0.0,0.0,0.0,0.0,0.0,0.0,0.0,0.0,0.0,0.0,0.0,0.0,0.0,0.0,0.0,0.0,0.0,0.0,0.0,0.0,0.0,0.0,0.0,0.0,0.0,0.0,-1.3767,-1.6789,-1.923,-2.1252,-2.1136,-2.0845,-2.0499,-1.824,-1.6293,0.0,0.0,0.0,0.0,0.0,0.0,0.0,0.0,0.0,0.0,0.0,0.0,0.0,0.0,0.0,0.0,0.0,0.0,0.0,0.0,0.0,0.0,0.0,0.0,0.0,0.0,0.0,0.0,0.0,0.0,0.0,0.0,0.0,0.0,0.0,0.0,0.0,0.0,0.0,0.0,0.0,-2.3647,-2.308,-2.2452,-2.1655,0.0,0.0,-2.1897,-2.314,-2.4251,0.0,0.0,0.0,0.0,0.0,0.0,0.0,0.0,0.0,0.0,0.0,0.0,0.0,0.0,0.0,0.0,0.0,0.0,0.0,0.0,0.0,0.0,0.0,0.0,0.0,0.0,0.0,0.0,0.0,0.0,0.0,0.0,0.0,0.0,0.0,0.0,0.0,0.0,0.0,0.0,0.0,0.0,0.0,0.0,0.0,0.0,0.0,0.0,0.0,0.0,0.0,0.0,0.0,0.0,0.0,0.0,-1.4457,-1.7636,-2.0071,-2.1245,-2.1199,-2.06,-2.0288,-1.765,-1.5676,0.0,0.0,0.0,0.0,0.0,0.0,0.0,0.0,0.0,0.0,0.0,0.0,0.0,0.0,0.0,0.0,0.0,0.0,0.0,0.0,0.0,0.0,0.0,0.0,0.0,0.0,0.0,0.0,0.0,0.0,0.0,0.0,0.0,0.0,0.0,0.0,0.0,0.0,0.0,0.0,0.0,0.0,-2.4202,-2.3985,0.0,0.0,0.0,-2.308,-2.3345,0.0,0.0,0.0,0.0,0.0,0.0,0.0,0.0,0.0,0.0,0.0,0.0,0.0,0.0,0.0,0.0,0.0,0.0,0.0,0.0,0.0,0.0,0.0,0.0,0.0,0.0,0.0,0.0,0.0,0.0,0.0,0.0,0.0,0.0,0.0,0.0,0.0,0.0,0.0,0.0,0.0,0.0,0.0,0.0,0.0,0.0,0.0,0.0,0.0,0.0,0.0,0.0,0.0,0.0,0.0,0.0,0.0,-1.4521,-1.8331,-2.052,-2.1238,-2.1061,-2.0677,-2.0119,-1.7473,0.0,0.0,0.0,0.0,0.0,0.0,0.0,0.0,0.0,0.0,0.0,0.0,0.0,0.0,0.0,0.0,0.0,0.0,0.0,0.0,0.0,0.0,0.0,0.0,0.0,0.0,0.0,-0.7434,0.0,0.0,0.0,0.0,0.0,0.0,0.0,0.0,0.0,0.0,0.0,0.0,0.0,0.0,-2.4927,-2.5204,-2.547,-2.5663,0.0,0.0,-2.4492,-2.4359,-2.6073,-2.6013,0.0,0.0,0.0,0.0,0.0,0.0,0.0,0.0,0.0,0.0,0.0,0.0,0.0,0.0,0.0,0.0,0.0,0.0,0.0,0.0,0.0,0.0,0.0,0.0,0.0,0.0,0.0,0.0,0.0,0.0,0.0,0.0,0.0,0.0,0.0,0.0,0.0,0.0,0.0,0.0,0.0,0.0,0.0,0.0,0.0,0.0,0.0,0.0,0.0,0.0,0.0,0.0,0.0,0.0,0.0,-1.4699,-1.8384,-2.056,-2.138,-2.1109,-2.0732,-2.0282,-1.8219,-1.6205,0.0,0.0,0.0,0.0,0.0,0.0,0.0,0.0,0.0,0.0,0.0,0.0,0.0,0.0,0.0,0.0,0.0,0.0,0.0,0.0,0.0,0.0,0.0,0.0,0.0,0.0,0.0,0.0,0.0,0.0,0.0,0.0,0.0,0.0,0.0,0.0,0.0,0.0,0.0,0.0,0.0,-2.5482,-2.5735,-2.6629,-2.7606,0.0,0.0,-2.6773,-2.7703,-3.002,-2.9755,-2.384,0.0,0.0,0.0,0.0,0.0,0.0,0.0,0.0,0.0,0.0,0.0,0.0,0.0,0.0,0.0,0.0,0.0,0.0,0.0,0.0,0.0,0.0,0.0,0.0,0.0,0.0,0.0,0.0,0.0,0.0,0.0,0.0,0.0,0.0,0.0,0.0,0.0,0.0,0.0,0.0,0.0,0.0,0.0,0.0,0.0,0.0,0.0,0.0,0.0,0.0,0.0,0.0,0.0,-1.4175,-1.4725,-1.8409,-2.0519,-2.0727,-2.0627,-2.0546,-2.0051,-1.8375,-1.6476,0.0,0.0,0.0,0.0,0.0,0.0,0.0,0.0,0.0,0.0,0.0,0.0,0.0,0.0,0.0,0.0,0.0,0.0,0.0,0.0,0.0,0.0,0.0,0.0,0.0,0.0,0.0,0.0,-1.0257,-1.0701,-1.0713,0.0,0.0,0.0,0.0,0.0,0.0,0.0,0.0,0.0,0.0,-2.6242,-2.7799,-2.8524,0.0,0.0,-2.8837,-2.8246,-2.8005,-2.8958,-2.8101,-2.3333,-2.1836,0.0,0.0,0.0,0.0,0.0,0.0,0.0,0.0,0.0,0.0,0.0,0.0,0.0,0.0,0.0,0.0,0.0,0.0,0.0,0.0,0.0,0.0,0.0,0.0,0.0,0.0,0.0,0.0,0.0,0.0,0.0,0.0,0.0,0.0,0.0,0.0,0.0,0.0,0.0,0.0,0.0,0.0,0.0,0.0,0.0,0.0,0.0,0.0,0.0,0.0,0.0,0.0,-1.3918,-1.4687,-1.8295,-2.0343,-2.056,-2.0252,-2.0207,-1.9915,-1.862,-1.6924,0.0,0.0,0.0,0.0,0.0,0.0,0.0,0.0,0.0,0.0,0.0,0.0,0.0,0.0,0.0,0.0,0.0,0.0,0.0,0.0,0.0,0.0,0.0,0.0,0.0,0.0,0.0,0.0,-1.0616,-1.077,-1.0755,0.0,0.0,0.0,0.0,0.0,0.0,0.0,0.0,0.0,0.0,-2.7145,-2.8344,-2.9022,-2.9267,-2.8743,-2.8474,-2.8162,-2.7655,-2.786,-2.687,-2.3309,0.0,0.0,0.0,0.0,0.0,0.0,0.0,0.0,0.0,0.0,0.0,0.0,0.0,0.0,0.0,0.0,0.0,0.0,0.0,0.0,0.0,0.0,0.0,0.0,0.0,0.0,0.0,0.0,0.0,0.0,-0.7265,0.0,0.0,0.0,0.0,0.0,0.0,0.0,0.0,0.0,0.0,0.0,0.0,0.0,0.0,0.0,0.0,0.0,0.0,0.0,0.0,0.0,0.0,0.0,-1.4448,-1.8099,-2.0124,-2.0415,-2.0031,-1.974,-2.0064,-1.9061,-1.7656,-1.5832,0.0,0.0,0.0,0.0,0.0,0.0,0.0,0.0,0.0,0.0,0.0,0.0,0.0,0.0,0.0,0.0,0.0,0.0,0.0,0.0,0.0,0.0,0.0,0.0,0.0,0.0,-0.9062,-0.9266,-0.956,0.0,0.0,0.0,0.0,0.0,0.0,0.0,0.0,0.0,0.0,-2.6049,-2.815,-2.6893,-2.7789,-2.8209,-2.6649,-2.6202,-2.6218,-2.6979,-2.7461,-2.6906,0.0,0.0,0.0,0.0,0.0,0.0,0.0,0.0,0.0,0.0,0.0,0.0,0.0,0.0,0.0,0.0,0.0,0.0,0.0,0.0,0.0,0.0,0.0,0.0,0.0,0.0,0.0,-0.825,-0.7369,0.0,0.0,0.0,0.0,0.0,0.0,0.0,0.0,0.0,0.0,0.0,-1.3105,-1.2548,0.0,0.0,0.0,0.0,0.0,0.0,0.0,0.0,0.0,0.0,0.0,0.0,-1.3925,-1.4366,-1.7874,-1.9997,-2.0131,-1.9997,-2.0058,-1.9807,-1.9176,-1.7717,-1.5337,0.0,0.0,0.0,0.0,0.0,0.0,0.0,0.0,0.0,0.0,0.0,0.0,0.0,0.0,0.0,0.0,0.0,0.0,0.0,0.0,0.0,0.0,0.0,0.0,0.0,-0.9618,0.0,0.0,0.0,0.0,0.0,0.0,0.0,0.0,0.0,0.0,0.0,-1.9338,-2.0375,-2.4357,-2.6723,-2.6338,-2.7835,-2.9159,0.0,0.0,0.0,0.0,0.0,0.0,0.0,0.0,0.0,0.0,0.0,0.0,0.0,0.0,-2.4564,-2.0605,-2.0086,-2.0315,-2.0496,0.0,0.0,0.0,0.0,0.0,0.0,0.0,0.0,0.0,0.0,0.0,0.0,0.0,0.0,0.0,0.0,-0.9262,0.0,0.0,0.0,0.0,0.0,0.0,0.0,0.0,-1.3075,-1.4022,-1.4567,-1.4858,-1.439,0.0,-1.3934,-1.2998,0.0,0.0,0.0,0.0,0.0,0.0,0.0,0.0,-1.4135,-1.5215,-1.8213,-1.9752,-2.0078,-2.0051,-1.9929,-1.9732,-1.9149,-1.786,-1.5805,-1.4306,-1.2895,0.0,0.0,0.0,0.0,0.0,0.0,0.0,0.0,0.0,0.0,0.0,0.0,0.0,0.0,0.0,0.0,0.0,0.0,0.0,0.0,0.0,0.0,0.0,-1.0175,0.0,0.0,0.0,0.0,0.0,0.0,0.0,0.0,0.0,-1.6787,-1.8208,-1.9835,-2.2183,-2.4951,-2.6182,-2.479,0.0,0.0,0.0,0.0,0.0,0.0,0.0,-2.4866,-2.4275,-2.4082,-2.4347,-2.5458,-2.7148,-2.8186,-2.7655,0.0,0.0,-2.3973,-2.3369,-2.3611,-2.3888,-2.442,-2.4842,-2.4951,-2.5675,-2.623,0.0,0.0,0.0,0.0,0.0,0.0,0.0,0.0,-1.1112,-1.1047,0.0,-1.0926,0.0,0.0,0.0,0.0,0.0,0.0,0.0,0.0,-1.4904,-1.5877,-1.5834,-1.6735,-1.7294,-1.7458,-1.6508,-1.6234,-1.6223,-1.2993,0.0,0.0,0.0,0.0,0.0,0.0,-1.473,-1.6335,-1.8479,-1.9901,-2.0058,-1.9689,-1.9854,-1.982,-1.8993,-1.8118,-1.7229,-1.6056,-1.4828,-1.3498,-1.1269,0.0,0.0,0.0,0.0,0.0,0.0,0.0,0.0,0.0,0.0,0.0,0.0,0.0,0.0,0.0,0.0,0.0,0.0,0.0,0.0,-1.0534,0.0,0.0,0.0,0.0,0.0,0.0,0.0,0.0,0.0,0.0,-1.8842,-1.9639,-2.1767,-2.677,0.0,0.0,0.0,0.0,-2.637,-2.1176,-2.2577,-2.4532,-2.458,-2.5544,-2.639,-2.6845,0.0,0.0,-2.9212,-2.9357,-2.9308,-2.8258,-2.9815,-3.0612,-2.9043,-2.7667,-2.7087,-2.7739,-2.7413,-2.7184,-2.7848,-2.8584,-2.8958,-1.3283,0.0,0.0,0.0,0.0,-1.1672,-1.2487,-1.376,-1.3471,-1.3609,-1.3736,-1.2841,0.0,0.0,0.0,0.0,0.0,0.0,-1.246,-1.3828,-1.491,-1.5857,-1.6695,-1.711,-1.7549,-1.7788,-1.8067,-1.7932,-1.7186,-1.5815,-1.3641,-1.0738,0.0,0.0,0.0,0.0,-1.5167,-1.6392,-1.8409,-1.9408,-1.9535,-1.9488,-1.9367,-1.94,-1.883,-1.8308,-1.784,-1.6992,-1.5954,-1.4719,-1.3727,0.0,0.0,0.0,0.0,0.0,0.0,0.0,0.0,0.0,0.0,0.0,0.0,0.0,0.0,0.0,0.0,0.0,0.0,0.0,-0.9875,-1.0358,-1.0466,0.0,0.0,0.0,0.0,0.0,0.0,0.0,0.0,0.0,-1.8796,-1.8604,-1.825,0.0,0.0,-2.1898,-2.0654,-2.2221,-2.3658,-2.4012,0.0,0.0,0.0,-2.2892,-2.3193,-2.5647,-2.9098,-3.1481,-3.1083,-3.2,-3.2712,-3.2374,-3.2845,-3.3099,-3.2652,-3.1517,-3.0733,-3.0902,-3.1179,-3.1553,-3.2,-3.264,-3.3111,-1.6079,-1.3988,-1.2857,-1.2727,-1.3265,-1.3325,-1.414,-1.5401,-1.5092,-1.5006,-1.5364,-1.4476,-1.4259,-1.4516,-1.2155,0.0,0.0,0.0,-1.3353,-1.4758,-1.5012,-1.5805,-1.6835,-1.669,-1.7176,-1.7814,-1.8891,-1.899,-1.8179,-1.7399,-1.5723,-1.3214,0.0,0.0,-1.2807,-1.4584,-1.5884,-1.6849,-1.8317,-1.9287,-1.9233,-1.9233,-1.9146,-1.9203,-1.8938,-1.866,-1.8362,-1.7867,-1.7127,-1.611,-1.5725,-1.4498,0.0,0.0,0.0,0.0,0.0,0.0,0.0,0.0,0.0,0.0,0.0,-0.9273,0.0,0.0,0.0,0.0,-1.0433,-1.0934,-1.0649,-1.1077,0.0,0.0,0.0,0.0,0.0,0.0,0.0,-1.2586,-1.4135,-1.5765,-1.781,-1.7644,-1.7703,-1.849,-1.9809,-2.0526,-1.994,0.0,-2.3096,-2.4728,-2.4361,-2.4295,-2.5913,-2.5695,-2.605,-2.8767,-3.1192,-3.3111,-3.3111,-3.3883,-3.4426,-3.4378,-3.4426,-3.4463,-3.4354,-3.375,-3.3255,-3.3171,-3.3509,-3.3919,-3.4197,-3.4632,-3.497,-1.7534,-1.6858,-1.4553,-1.4086,-1.4852,-1.4988,-1.5543,-1.6326,-1.6108,-1.5999,-1.5829,-1.5762,-1.5356,-1.4899,-1.3063,0.0,0.0,-1.3401,-1.426,-1.5866,-1.5387,-1.5674,-1.65,-1.6005,-1.6244,-1.7215,-1.8933,-1.9447,-1.8979,-1.805,-1.7036,-1.6393,-1.5334,-1.4855,-1.4658,-1.5737,-1.6707,-1.7473,-1.8715,-1.9298,-1.9203,-1.9176,-1.9169,-1.9183,-1.9162,-1.9027,-1.8789,-1.8593,-1.8172,-1.746,-1.725,-1.6124,-1.3763,0.0,0.0,0.0,0.0,0.0,0.0,0.0,0.0,0.0,0.0,0.0,0.0,0.0,0.0,0.0,-1.1599,0.0,-1.2386,-1.2406,0.0,0.0,0.0,-1.2176,-1.3091,-1.3831,-1.4163,-1.3858,0.0,0.0,-1.6131,0.0,-1.897,-2.36,-2.2126,-2.0674,-1.9935,-2.1797,-2.3618,-2.3676,-2.516,-2.6902,-2.8169,-2.9788,-3.1056,-3.2295,-3.4159,-3.4547,-3.4692,-3.4788,-3.4776,-3.4595,-3.4764,-3.4861,-3.4632,-3.4728,-3.4885,-3.4571,-3.4595,-3.4704,-3.4909,-3.503,-3.509,-1.7882,-1.7489,-1.6804,-1.6494,-1.6462,-1.6581,-1.6761,-1.6956,-1.6815,-1.6794,-1.6932,-1.6187,-1.5591,-1.4971,-1.4503,-1.4303,-1.4532,-1.4613,-1.4972,-1.5767,-1.5505,-1.5679,-1.6259,-1.6021,-1.671,-1.7849,-1.9038,-1.9367,-1.8601,-1.8359,-1.7498,-1.6112,-1.635,-1.6068,-1.5282,-1.6042,-1.6958,-1.7928,-1.8706,-1.9132,-1.8939,-1.8986,-1.8925,-1.9033,-1.8816,-1.8769,-1.8918,-1.8457,-1.8063,-1.7758,-1.7768,-1.6707,-1.4699,-1.2141,0.0,0.0,0.0,0.0,0.0,0.0,0.0,0.0,0.0,-1.0175,-0.8608,0.0,-1.2326,0.0,-1.2155,-1.3146,-1.3302,-1.341,0.0,0.0,-1.3709,-1.3933,-1.5038,-1.5628,-1.5803,-1.5151,-1.6598,-1.7445,-1.7358,-1.792,-1.8962,-2.0204,-1.9281,-1.8762,-1.9773,-1.971,-2.026,-2.1668,-2.1669,-2.1379,-2.2604,-2.5627,-2.843,-2.8551,-3.1807,-3.4523,-3.4402,-3.4378,-3.4402,-3.4535,-3.4619,-3.4716,-3.4837,-3.4921,-3.4933,-3.4897,-3.5042,-3.5211,-3.5283,-3.5428,-3.5573,-1.7788,-1.7647,-1.7685,-1.7554,-1.7326,-1.7397,-1.7424,-1.7413,-1.7293,-1.7308,-1.7208,-1.6529,-1.5874,-1.5516,-1.5445,-1.5418,-1.5439,-1.5494,-1.5657,-1.5902,-1.5842,-1.5945,-1.6184,-1.6124,-1.6591,-1.7577,-1.8467,-1.8542,-1.8077,-1.7945,-1.7544,-1.689,-1.7123,-1.7014,-1.6558,-1.6653,-1.7019,-1.7589,-1.8253,-1.8781,-1.8681,-1.8744,-1.8681,-1.8308,-1.8253,-1.803,-1.7609,-1.727,-1.6992,-1.6768,-1.7428,-1.7046,-1.4965,-1.3465,-1.2251,0.0,0.0,0.0,0.0,0.0,0.0,0.0,0.0,0.0,0.0,0.0,-1.334,0.0,-1.3645,-1.4231,-1.4312,-1.4631,-1.5018,-1.5459,-1.554,-1.5954,-1.6937,-1.7385,-1.7471,-1.7216,-1.8135,-1.8762,-1.8717,-1.9081,-1.9244,-1.9468,-1.9,-1.8955,-1.9519,-1.9268,-1.9613,-2.1929,-2.1612,-2.2088,-2.3808,-2.6603,-2.8977,-3.0145,-3.2595,-3.4559,-3.4535,-3.4535,-3.4547,-3.4583,-3.4668,-3.4752,-3.4788,-3.4897,-3.4957,-3.4994,-3.509,-3.5187,-3.5199,-3.532,-3.5416,-1.7635,-1.7652,-1.7859,-1.788,-1.7766,-1.7783,-1.7755,-1.769,-1.7565,-1.7304,-1.7197,-1.6761,-1.6502,-1.613,-1.6114,-1.6054,-1.5967,-1.6048,-1.6097,-1.6124,-1.6097,-1.6163,-1.6304,-1.6179,-1.6681,-1.7275,-1.756,-1.7628,-1.7727,-1.7489,-1.7494,-1.7734,-1.7846,-1.7719,-1.7779,-1.7283,-1.7039,-1.6822,-1.7623,-1.8074,-1.8575,-1.8617,-1.828,-1.7372,-1.7541,-1.7087,-1.5893,-1.5825,-1.5689,-1.5391,-1.674,-1.6711,-1.4836,-1.4652,-1.3816,0.0,-1.0974,0.0,0.0,0.0,0.0,0.0,0.0,0.0,0.0,-1.28,-1.3618,-1.5755,-1.5687,-1.5445,-1.5513,-1.6049,-1.6558,-1.6965,-1.7392,-1.7914,-1.8565,-1.8905,-1.9223,-1.9361,-1.9307,-1.9637,-1.9922,-1.9827,-1.9732,-1.9786,-1.9752,-1.9596,-1.9481,-1.9406,-2.0176,-2.2756,-2.3246,-2.4366,-2.7785,-2.972,-3.1087,-3.3397,-3.4399,-3.4704,-3.4909,-3.4945,-3.4885,-3.4716,-3.4813,-3.4885,-3.4656,-3.4825,-3.4957,-3.497,-3.4945,-3.4933,-3.497,-3.5006,-3.497,-1.7897,-1.8125,-1.8169,-1.812,-1.8016,-1.8114,-1.7935,-1.7565,-1.7446,-1.7136,-1.6706,-1.6516,-1.6369,-1.6507,-1.6152,-1.6092,-1.607,-1.5994,-1.6065,-1.625,-1.6059,-1.6135,-1.6418,-1.6315,-1.6771,-1.7293,-1.6983,-1.6847,-1.7135,-1.7567,-1.7145,-1.6175,-1.7154,-1.7253,-1.6713,0.0,0.0,0.0,-1.7242,-1.7848,-1.7276,-1.7292,-1.7148,-1.6707,-1.6632,0.0,-1.5723,-1.5676,-1.554,-1.5242,-1.5528,0.0,0.0,0.0,0.0,0.0,0.0,0.0,0.0,0.0,0.0,0.0,-1.3715,-1.3458,-1.3275,-1.4089,-1.5604,-1.7519,-1.7185,-1.6836,-1.7311,-1.7785,-1.8152,-1.8369,-1.8667,-1.8972,-1.9237,-1.942,-1.9576,-1.9894,-1.9976,-1.9773,-1.9759,-1.9786,-1.9793,-1.9719,-1.9705,-1.9678,-1.963,-1.961,-1.9866,-2.038,-2.2296,-2.3712,-2.464,-2.8395,-3.0966,-3.2029,-3.37,-3.4897,-3.4933,-3.4945,-3.4957,-3.4861,-3.4933,-3.4945,-3.4885,-3.4945,-3.4933,-3.497,-3.4788,-3.4716,-3.4921,-3.4957,-3.497,-1.806,0.0,-1.8033,-1.8011,0.0,-1.8033,-1.7913,-1.7625,-1.756,-1.7272,-1.682,-1.6761,-1.6635,-1.6462,-1.6396,-1.6304,-1.6195,-1.613,-1.6173,-1.6277,-1.6103,-1.6179,-1.6467,-1.654,-1.6737,-1.7046,-1.6726,-1.6569,-1.6596,-1.6825,-1.6736,-1.6347,-1.716,-1.7448,-1.7656,-1.8148,-1.7907,-1.6248,-1.7615,-1.8159,-1.7587,-1.8099,-1.7907,-1.7121,0.0,0.0,0.0,0.0,0.0,0.0,0.0,0.0,0.0,0.0,0.0,-1.6211,-1.471,-1.3987,-1.4353,-1.459,-1.5072,-1.5879,-1.6225,-1.5743,-1.4158,-1.5526,-1.7203,-1.8682,-1.834,-1.8152,-1.8593,-1.8972,-1.923,-1.9305,-1.9447,-1.9569,-1.9644,-1.9719,-1.9766,-1.9773,-1.9827,-1.9841,-1.9773,-1.9759,-1.9746,-1.9678,-1.9664,-1.9664,-1.9664,-1.9664,-2.0144,-2.1336,-2.3728,-2.5395,-2.5635,-2.8504,-3.1128,-3.1364,-3.3184,-3.4543,-3.4764,-3.4656,-3.4583,-3.4583,-3.4571,-3.4607,-3.474,-3.468,-3.4619,-3.4704,-3.4559,-3.4426,-3.4559,-3.4571,-3.4583,-1.7935,-1.7685,-1.7886,-1.7897,-1.7793,-1.7913,-1.7886,-1.775,0.0,0.0,0.0,-1.7005,-1.688,-1.6674,-1.6674,-1.6565,-1.6391,-1.6385,-1.638,-1.6375,-1.6255,-1.632,-1.6516,-1.6562,-1.6496,-1.6315,-1.6474,-1.6292,-1.6043,-1.6032,-1.634,-1.722,-1.7306,-1.8033,-1.9142,-1.9474,-1.918,-1.8,-1.8231,-1.845,-1.8389,-1.8913,-1.8721,-1.7589,-1.7392,-1.6619,-1.5187,-1.4909,-1.4706,-1.455,-1.3636,-1.3047,-1.3156,-1.5913,-1.7558,-1.7614,-1.6567,-1.6218,-1.6639,-1.6917,-1.727,-1.7745,-1.8369,-1.7702,-1.5553,-1.7239,-1.863,-1.9143,-1.9166,-1.9176,-1.9447,-1.9685,-1.9834,-1.9834,-1.9854,-1.9861,-1.9841,-1.9861,-1.9854,-1.9841,-1.9827,-1.9834,-1.982,-1.9732,-1.9664,-1.9664,-1.9664,-1.9644,-1.963,-1.9644,-2.038,-2.2054,-2.4202,-2.6584,-2.754,-2.9405,-3.1085,-3.1771,-3.3479,-3.4511,-3.4475,-3.433,-3.4197,-3.4233,-3.4185,-3.4294,-3.445,-3.4354,-3.4269,-3.4463,-3.4306,-3.4113,-3.4113,-3.4076,-3.4076,-1.7908,-1.8158,-1.819,-1.8136,-1.8033,-1.8158,-1.8082,-1.7853,-1.7549,-1.7261,-1.7275,-1.7005,-1.6929,-1.7065,-1.6799,-1.6782,-1.675,-1.675,-1.675,0.0,-1.6625,-1.6635,-1.6761,-1.6367,-1.6003,-1.6185,-1.5908,-1.5981,-1.5929,-1.6395,-1.6994,-1.7489,-1.8065,-1.8849,-1.9576,-1.963,-1.9678,-1.9698,-1.9067,-1.9268,-2.0109,-1.8608,-1.7589,-1.727,-1.7019,-1.651,-1.5764,-1.5825,-1.5737,-1.5472,-1.5567,-1.5283,-1.4961,-1.6925,-1.8277,-1.8837,-1.8136,-1.7697,-1.8009,-1.8192,-1.8531,-1.9088,-1.9373,-1.8945,-1.804,-1.8563,-1.9122,-1.953,-1.9345,-1.944,-1.9603,-1.9678,-1.9719,-1.9719,-1.98,-1.9827,-1.9725,-1.98,-1.982,-1.9719,-1.9691,-1.9698,-1.9698,-1.9678,-1.9657,-1.9657,-1.9624,-1.961,-1.9515,-1.9576,-1.9894,-2.038,-2.2296,-2.4674,-2.7006,-2.9293,-3.1562,-3.3921,-3.394,-3.4233,-3.4233,-3.4173,-3.4125,-3.4161,-3.4125,-3.4161,-3.4233,-3.4221,-3.4173,-3.4209,-3.4028,-3.3859,-3.3871,-3.3726,-3.369,-1.806,-1.8065,-1.8065,-1.8033,-1.7984,-1.8044,-1.7967,-1.7788,-1.756,-1.7359,-1.7195,-1.713,-1.7038,-1.7192,-1.6924,-1.6848,-1.6722,-1.6722,-1.6722,-1.6717,-1.6603,-1.6646,-1.6793,-1.6372,-1.6292,-1.6554,-1.5913,-1.5992,-1.6032,-1.6704,-1.7029,-1.7526,-1.8529,-1.9367,-1.9766,-1.978,-1.9807,-2.0114,-1.9542,-1.9647,-1.9977,-1.9331,-1.8769,-1.8538,-1.824,-1.784,-1.7324,-1.7222,-1.7066,-1.6849,-1.7202,-1.7009,-1.6461,-1.7978,-1.8928,-1.9518,-1.8983,-1.8647,-1.8789,-1.9013,-1.9332,-1.9752,-1.9861,-1.9786,-1.9267,-1.9529,-1.9596,-1.9664,-1.9671,-1.9698,-1.9773,-1.9854,-1.9902,-1.9902,-1.9895,-1.9847,-1.9786,-1.9752,-1.9732,-1.9671,-1.9664,-1.9664,-1.9664,-1.9664,-1.9624,-1.9549,-1.9474,-1.9386,-1.9318,-1.9366,-1.9887,-2.1549,-2.4621,-2.6744,-2.7216,-3.0208,-3.2249,-3.2469,-3.3207,-3.3763,-3.3956,-3.3871,-3.3762,-3.3738,-3.375,-3.3811,-3.3919,-3.3835,-3.3823,-3.3931,-3.375,-3.363,-3.3714,-3.3787,-3.3811,-1.7908,-1.7908,-1.7908,-1.7908,-1.7908,-1.7908,-1.7848,-1.7755,-1.7636,-1.7494,-1.7348,-1.7212,-1.7108,-1.7313,-1.7016,-1.6918,-1.6777,-1.6733,-1.6722,-1.6712,-1.6603,-1.6663,-1.6831,-1.6674,-1.6625,-1.6921,-1.6233,-1.6315,-1.6402,-1.6801,-1.7363,-1.786,-1.9019,-1.9596,-1.982,-1.9827,-1.9841,-1.9875,-1.9875,-1.9929,-1.9783,-2.0017,-1.9915,-1.9759,-1.9488,-1.9189,-1.8843,-1.8613,-1.8423,-1.8287,-1.8382,-1.8262,-1.7909,-1.8871,-1.9553,-1.9685,-1.9571,-1.9386,-1.9373,-1.9603,-1.9861,-2.0078,-2.0132,-2.0166,-2.0187,-2.0064,-1.9942,-1.9642,-1.9895,-1.9895,-1.9847,-1.9949,-2.0037,-2.0003,-1.9902,-1.9813,-1.9813,-1.9725,-1.9664,-1.9664,-1.9664,-1.9664,-1.9657,-1.963,-1.9542,-1.9393,-1.9271,-1.9196,-1.9162,-1.9622,-2.0783,-2.2862,-2.6397,-2.8348,-2.763,-3.0385,-3.2229,-3.1033,-3.2469,-3.35,-3.3666,-3.3509,-3.34,-3.3412,-3.34,-3.3485,-3.3642,-3.3545,-3.3545,-3.3726,-3.3654,-3.3593,-3.3859,-3.4016,-3.4016,-1.7908,-1.7908,-1.7908,-1.7908,-1.7908,-1.7908,-1.7897,-1.787,-1.7755,-1.7571,-1.7348,-1.7119,-1.7076,-1.7147,-1.7049,-1.7032,-1.7098,-1.7021,-1.6962,-1.6945,-1.6848,-1.6858,-1.6973,-1.6962,-1.6907,-1.6815,-1.7032,-1.7085,-1.7034,-1.7241,-1.7869,-1.8625,-1.9461,-1.9657,-1.9691,-1.9691,-1.9746,-1.9868,-1.9868,-1.9875,-1.9635,-1.9766,-1.9813,-2.0058,-1.9902,-1.98,-1.9712,-1.9725,-1.9637,-1.9515,-1.9481,-1.9267,-1.9039,-1.9434,-2.0017,-2.0038,-1.9922,-1.9963,-1.9841,-1.9969,-2.0071,-2.0105,-2.0234,-2.0356,-2.0465,-2.0356,-2.0159,-1.9716,-2.0003,-1.9949,-1.9732,-1.9813,-1.9847,-1.9752,-1.9712,-1.9678,-1.9685,-1.9671,-1.9664,-1.9664,-1.9664,-1.9664,-1.9651,-1.9542,-1.9393,-1.9244,-1.9183,-1.9115,-1.9262,-2.0862,-2.2202,-2.2594,-2.3656,-2.594,-2.8732,-3.0004,-3.1521,-3.2866,-3.3368,-3.3473,-3.3437,-3.3424,-3.3364,-3.3364,-3.3364,-3.34,-3.3412,-3.3388,-3.3485,-3.3666,-3.3738,-3.3835,-3.4064,-3.4185,-3.4088,-1.7908,-1.7908,-1.7908,-1.7908,-1.7908,-1.7908,-1.7908,-1.7891,-1.7772,-1.7587,-1.7622,-1.7108,-1.6989,-1.6704,-1.6918,-1.6929,-1.6973,-1.6994,-1.6967,-1.6913,-1.6989,-1.6989,-1.6913,-1.7054,-1.7049,-1.6924,-1.7048,-1.6866,-1.69,-1.7434,-1.8256,-1.9402,-1.9902,-1.9922,-1.9915,-1.9834,-1.9813,-1.9622,-1.9868,-1.9875,-2.0141,-1.9997,-2.0112,-2.0214,-2.0173,-2.0139,-2.0132,-2.0058,-1.9983,-1.9929,-1.9922,-1.9922,-1.9669,-1.9976,-2.001,-2.0265,-2.0071,-2.0112,-2.0146,-2.02,-2.0275,-2.0349,-2.0417,-2.0478,-2.0526,-2.041,-2.0234,-2.0051,-1.9983,-1.9881,-1.9705,-1.9719,-1.9725,-1.9671,-1.9664,-1.9664,-1.9664,-1.9664,-1.9664,-1.9664,-1.9664,-1.9664,-1.9624,-1.9447,-1.925,-1.9101,-1.9013,-1.8925,-1.9097,-2.0923,-2.2958,-2.4517,-2.5774,-2.7458,-2.979,-3.1319,-3.2394,-3.3296,-3.3461,-3.3376,-3.3364,-3.3364,-3.3364,-3.3364,-3.3364,-3.3364,-3.3376,-3.3509,-3.3642,-3.3726,-3.3895,-3.4064,-3.4173,-3.4306,-3.433,-1.7908,-1.7908,-1.7908,-1.7908,-1.7908,-1.7908,-1.7908,-1.7897,-1.781,-1.7915,-1.7948,-1.7462,-1.7016,-1.6607,-1.6804,-1.6804,-1.6875,-1.6935,-1.6929,-1.6891,-1.7027,-1.7005,-1.6896,-1.7043,-1.7087,-1.6989,-1.6831,-1.6927,-1.7268,-1.7947,-1.9,-1.9763,-2.0071,-2.0078,-2.0037,-1.9956,-1.9908,-1.9629,-1.9908,-2.0182,-2.023,-2.045,-2.0329,-2.0329,-2.0329,-2.0349,-2.0383,-2.0282,-2.022,-2.022,-2.022,-2.022,-2.0227,-2.022,-2.022,-2.0477,-2.0227,-2.0248,-2.0329,-2.0404,-2.0471,-2.0532,-2.0573,-2.06,-2.0573,-2.0438,-2.0268,-2.0105,-1.9963,-1.9827,-1.9746,-1.9759,-1.9766,-1.9732,-1.9752,-1.9773,-1.9732,-1.9746,-1.9773,-1.9732,-1.978,-1.9739,-1.9644,-1.944,-1.9223,-1.9033,-1.8864,-1.8762,-1.9219,-2.0833,-2.3114,-2.4939,-2.7459,-2.9749,-3.0643,-3.2029,-3.3364,-3.3364,-3.3364,-3.3364,-3.3364,-3.3364,-3.3364,-3.3364,-3.3364,-3.3376,-3.34,-3.3557,-3.3823,-3.3835,-3.4028,-3.4294,-3.433,-3.4475,-3.4499,-1.7908,-1.7908,-1.7908,-1.7908,-1.7908,-1.7908,-1.7908,-1.7902,-1.7891,-1.7755,-1.7794,-1.7645,-1.7201,-1.6698,-1.6744,-1.6777,-1.6956,-1.688,-1.6886,-1.6951,-1.6896,-1.6902,-1.6994,-1.6741,-1.6747,-1.7011,-1.6978,-1.7365,-1.8423,-1.8919,-1.9548,-2.0302,-2.02,-2.0051,-1.9969,-2.0058,-2.0024,-1.9702,-2.0044,-2.0098,-2.0119,-2.0261,-2.0356,-2.0356,-2.0336,-2.0404,-2.0512,-2.0526,-2.0512,-2.0519,-2.0505,-2.0505,-2.0512,-2.0512,-2.0512,-2.0526,-2.0526,-2.0465,-2.041,-2.0594,-2.0695,-2.06,-2.0682,-2.075,-2.0459,-2.0485,-2.0275,-1.9856,-1.9976,-1.9881,-1.9895,-1.9949,-1.9969,-1.9875,-1.999,-1.999,-1.9881,-1.9969,-1.9997,-1.9915,-1.9969,-1.9915,-1.9698,-1.9522,-1.9305,-1.9067,-1.8871,-1.8782,-1.9247,-2.084,-2.244,-2.3573,-2.6538,-3.0417,-3.2467,-3.3152,-3.3364,-3.3364,-3.3364,-3.3364,-3.3364,-3.3364,-3.3364,-3.3364,-3.3364,-3.3388,-3.3424,-3.3618,-3.3919,-3.4113,-3.4366,-3.4559,-3.4281,-3.4475,-3.4487,-1.7908,-1.7908,-1.7908,-1.7908,-1.7908,-1.7908,-1.7908,-1.7897,-1.7821,-1.7926,-1.7694,-1.749,-1.7,-1.6761,-1.6603,-1.6663,-1.6869,-1.6842,-1.6804,-1.6793,-1.6886,-1.688,-1.6799,-1.6736,-1.6811,-1.7011,-1.7,-1.7142,-1.7932,-1.8436,-1.8862,-1.9204,-1.9757,-1.9692,-1.9077,-1.96,-1.9852,-2.0077,-2.0363,-2.0376,-2.0138,-2.0627,-2.0716,-2.0614,-2.0512,-2.0532,-2.0682,-2.0594,-2.0539,-2.0539,-2.0539,-2.0539,-2.0553,-2.0634,-2.0736,-2.0817,-2.0838,-2.0811,-2.0777,-2.0858,-2.0899,-2.0845,-2.079,-2.0777,-2.0459,-2.0252,-2.0302,-1.9977,-2.0105,-2.0058,-2.0112,-2.0051,-1.9936,-1.9908,-2.0003,-2.0092,-2.0044,-2.0071,-2.0078,-2.0037,-2.0071,-2.023,-1.9759,-1.961,-1.9461,-1.9189,-1.9074,-1.9006,-1.9393,-2.0976,-2.2322,-2.3139,-2.6529,-2.9954,-3.0643,-3.2455,-3.3364,-3.3364,-3.3364,-3.3364,-3.3364,-3.3364,-3.3364,-3.3364,-3.3364,-3.34,-3.3437,-3.3509,-3.3847,-3.4052,-3.4342,-3.439,-3.4088,-3.4233,-3.4269,-1.7908,-1.7908,-1.7908,-1.7908,-1.7908,-1.7908,-1.788,-1.7842,-1.7761,-1.7609,-1.7678,-1.7206,-1.7005,-1.682,-1.6695,-1.6695,-1.6809,-1.6782,-1.6739,-1.6717,-1.6869,-1.6858,-1.6771,-1.6994,-1.7065,-1.6962,-1.6951,-1.7115,-1.7743,-1.8082,-1.8303,-1.865,-1.9251,-1.9226,-1.9107,-1.9382,-1.9894,-2.0332,-2.0594,-2.0594,-2.0587,-2.079,-2.0906,-2.0845,-2.0743,-2.0736,-2.0838,-2.0743,-2.0689,-2.0689,-2.0689,-2.0689,-2.0702,-2.1047,-2.1157,-2.0987,-2.1001,-2.1001,-2.1014,-2.1041,-2.1068,-2.1062,-2.0939,-2.0845,-2.056,-2.0526,-2.0356,-2.0295,-2.0193,-2.0153,-2.02,-2.0112,-2.0024,-2.0037,-2.0153,-2.022,-2.0187,-2.022,-2.0248,-2.0248,-2.0464,-2.032,-1.9854,-1.9766,-1.959,-1.9318,-1.9244,-1.9156,-1.9317,-2.021,-2.204,-2.2851,-2.5765,-2.8502,-3.0289,-3.2087,-3.3164,-3.3364,-3.3364,-3.3364,-3.3364,-3.3364,-3.3364,-3.3364,-3.3388,-3.3424,-3.3461,-3.3497,-3.3642,-3.3835,-3.4028,-3.4173,-3.4028,-3.3956,-3.3968,-1.7908,-1.7908,-1.7908,-1.7908,-1.7908,-1.7908,-1.7837,-1.7745,-1.7717,-1.7625,-1.7484,-1.7375,-1.6939,-1.6598,-1.6709,-1.6918,-1.682,-1.6722,-1.6717,-1.6788,-1.6809,-1.6815,-1.6804,-1.6951,-1.7242,-1.7126,-1.7103,-1.7359,-1.7609,-1.7835,-1.809,-1.864,-1.89,-1.9105,-1.949,-1.9592,-1.9806,-2.017,-2.0479,-2.0986,-2.1379,-2.1027,-2.0906,-2.0987,-2.1001,-2.1007,-2.1014,-2.0987,-2.096,-2.0973,-2.0973,-2.0994,-2.098,-2.126,-2.1274,-2.1034,-2.1028,-2.1021,-2.1041,-2.115,-2.1218,-2.1197,-2.1082,-2.1001,-2.0939,-2.0634,-2.0397,-2.037,-2.0261,-2.0153,-2.018,-2.0241,-2.0295,-2.0329,-2.0404,-2.0431,-2.0383,-2.0444,-2.0532,-2.0492,-2.041,-2.0275,-2.0119,-1.9963,-1.9766,-1.9522,-1.9345,-1.9237,-1.9183,-1.9636,-2.0361,-2.2627,-2.5238,-2.7608,-2.9673,-3.1727,-3.2762,-3.3364,-3.3364,-3.3364,-3.3364,-3.3364,-3.3364,-3.3364,-3.3364,-3.3412,-3.3521,-3.3569,-3.369,-3.3871,-3.398,-3.3956,-3.3847,-3.3738,-3.3678,-1.7908,-1.7908,-1.7908,-1.7908,-1.7908,-1.7908,-1.7837,-1.7712,-1.7636,-1.7533,-1.7397,-1.7201,-1.7092,-1.7043,-1.6935,-1.6864,-1.682,-1.6782,-1.6744,-1.6712,-1.6706,-1.6706,-1.6739,-1.6913,-1.6983,-1.7203,-1.7131,-1.7137,-1.7443,-1.7654,-1.791,-1.7717,-1.7991,-1.7928,-1.7824,-1.8712,-1.9254,-1.9465,-2.0527,-2.1048,-2.1288,-2.1157,-2.1204,-2.1163,-2.1245,-2.1306,-2.1292,-2.1109,-2.1007,-2.1014,-2.1001,-2.1041,-2.1123,-2.1411,-2.1459,-2.1292,-2.1299,-2.1306,-2.1306,-2.1333,-2.136,-2.134,-2.1231,-2.1157,-2.1129,-2.0919,-2.0729,-2.0655,-2.058,-2.0272,-2.0438,-2.0444,-2.0431,-2.0343,-2.0451,-2.0526,-2.0478,-2.0512,-2.0532,-2.0539,-2.0505,-2.041,-2.0275,-2.0119,-1.9929,-1.9746,-1.9583,-1.944,-1.9257,-1.9454,-2.0025,-2.2186,-2.4624,-2.7379,-3.0117,-3.2145,-3.2963,-3.3364,-3.3364,-3.3364,-3.3364,-3.3364,-3.3364,-3.3364,-3.3364,-3.3412,-3.3521,-3.363,-3.3726,-3.3738,-3.3738,-3.3666,-3.3569,-3.3521,-3.3521,-1.7908,-1.7908,-1.7908,-1.7908,-1.7908,-1.7908,-1.781,-1.7663,-1.7625,-1.7516,-1.7353,-1.7255,-1.7179,-1.713,-1.7054,-1.7,-1.6962,-1.6956,-1.6913,-1.6842,-1.6788,-1.6755,-1.6739,-1.6907,-1.7038,-1.7054,-1.6994,-1.6973,-1.7,-1.7197,-1.7192,-1.7258,-1.7527,-1.7785,-1.7746,-1.8611,-1.9452,-1.998,-2.0765,-2.1353,-2.1707,-2.1448,-2.1469,-2.1523,-2.1482,-2.1496,-2.1564,-2.1319,-2.1163,-2.1163,-2.1163,-2.1211,-2.1292,-2.1299,-2.134,-2.1414,-2.1435,-2.1435,-2.1441,-2.1428,-2.1441,-2.1414,-2.1299,-2.1211,-2.1184,-2.1082,-2.0946,-2.0878,-2.0526,-2.0466,-2.0641,-2.0566,-2.0499,-2.0424,-2.0485,-2.0532,-2.0539,-2.0539,-2.0539,-2.0539,-2.0532,-2.0471,-2.0343,-2.0132,-1.9997,-1.9868,-1.9698,-1.9542,-1.9571,-2.0238,-2.1695,-2.3605,-2.6299,-2.8813,-3.1036,-3.2335,-3.3164,-3.3364,-3.3364,-3.3364,-3.3364,-3.3364,-3.3364,-3.3364,-3.3364,-3.3364,-3.3461,-3.3509,-3.3581,-3.3545,-3.3533,-3.3485,-3.3449,-3.3497,-3.3497,-1.7908,-1.7908,-1.7908,-1.7908,-1.7908,-1.7908,-1.7783,-1.7603,-1.7663,-1.7587,-1.7424,-1.7456,-1.7451,-1.738,-1.7331,-1.7282,-1.7223,-1.7206,-1.7201,-1.7168,-1.7108,-1.7021,-1.6929,-1.6973,-1.706,-1.7157,-1.6896,-1.6848,-1.7043,-1.706,-1.7032,-1.7054,-1.7081,-1.76,-1.8447,-1.9298,-1.9842,-2.0626,-2.1156,-2.1564,-2.2105,-2.1878,-2.1652,-2.2011,-2.1726,-2.1638,-2.1794,-2.1658,-2.1496,-2.1455,-2.1448,-2.1475,-2.1482,-2.1475,-2.1516,-2.1536,-2.1482,-2.1489,-2.1482,-2.1509,-2.1489,-2.1469,-2.1387,-2.1245,-2.1272,-2.117,-2.1062,-2.1007,-2.0865,-2.0499,-2.0709,-2.0648,-2.0566,-2.0553,-2.0546,-2.0546,-2.0539,-2.0539,-2.0539,-2.0539,-2.0532,-2.0499,-2.0363,-2.0126,-1.9976,-1.9861,-1.9685,-1.9535,-1.9887,-2.1019,-2.3808,-2.5977,-2.7797,-3.0008,-3.1999,-3.2549,-3.3376,-3.3364,-3.3376,-3.3376,-3.3376,-3.3364,-3.3364,-3.3364,-3.3364,-3.3364,-3.3412,-3.3485,-3.3485,-3.3449,-3.3424,-3.3376,-3.3388,-3.3437,-3.3449,-1.7908,-1.7908,-1.7908,-1.7908,-1.7908,-1.7908,-1.7815,-1.7685,-1.7706,-1.7641,-1.7522,-1.7522,-1.7538,-1.7772,-1.7494,-1.7473,-1.7451,-1.7446,-1.7446,-1.7456,-1.7516,-1.7402,-1.7206,-1.7065,-1.7076,-1.7185,-1.7212,-1.7174,-1.7157,-1.7288,-1.7326,-1.7272,-1.732,-1.7529,-1.7639,-1.8837,-1.9395,-2.012,-2.0911,-2.1652,-2.2229,-2.2319,-2.2333,-2.2052,-2.1984,-2.1957,-2.2059,-2.2093,-2.193,-2.1645,-2.1437,-2.1545,-2.1903,-2.1916,-2.1903,-2.1896,-2.1815,-2.1767,-2.176,-2.1753,-2.1713,-2.1638,-2.1638,-2.1658,-2.1557,-2.1414,-2.1285,-2.115,-2.0933,-2.0736,-2.0655,-2.0675,-2.0702,-2.0702,-2.0621,-2.0546,-2.0539,-2.0539,-2.0539,-2.0539,-2.0539,-2.0512,-2.0444,-2.0288,-2.0126,-2.0017,-1.9834,-1.988,-2.043,-2.1957,-2.4475,-2.6407,-2.8288,-3.0747,-3.2475,-3.3023,-3.3388,-3.3376,-3.3376,-3.3388,-3.3376,-3.3364,-3.3364,-3.3364,-3.3364,-3.3364,-3.3461,-3.3545,-3.3473,-3.3388,-3.3473,-3.3509,-3.3412,-3.34,-3.34,-1.7908,-1.7908,-1.7908,-1.7908,-1.7908,-1.7908,-1.7837,-1.775,-1.7777,-1.7728,-1.7647,-1.7674,-1.7696,-1.797,-1.7696,-1.7696,-1.769,-1.769,-1.769,-1.7701,-1.7755,-1.7679,-1.75,-1.731,-1.7266,-1.7326,-1.7337,-1.731,-1.7288,-1.7402,-1.7413,-1.7369,-1.7429,-1.7645,-1.8355,-1.8962,-1.983,-2.0298,-2.1096,-2.1821,-2.2147,-2.2479,-2.2556,-2.2441,-2.2147,-2.2032,-2.2106,-2.2194,-2.2133,-2.1998,-2.1752,-2.1833,-2.2194,-2.249,-2.2483,-2.2201,-2.2065,-2.1977,-2.1964,-2.1923,-2.1848,-2.1787,-2.1848,-2.1801,-2.1692,-2.1584,-2.1475,-2.1313,-2.1034,-2.0878,-2.0845,-2.0858,-2.0865,-2.0851,-2.0729,-2.0614,-2.0553,-2.0539,-2.0539,-2.0539,-2.0539,-2.0539,-2.0526,-2.0315,-2.0173,-2.0044,-1.9807,-2.0337,-2.1114,-2.3122,-2.5373,-2.761,-2.9596,-3.2081,-3.3212,-3.3572,-3.3642,-3.3593,-3.3557,-3.3533,-3.3461,-3.3437,-3.34,-3.34,-3.3388,-3.3388,-3.3461,-3.3497,-3.3449,-3.3437,-3.3581,-3.3557,-3.3424,-3.3364,-3.3364,-1.7908,-1.7908,-1.7908,-1.7908,-1.7908,-1.7908,-1.7848,-1.7777,-1.7848,-1.7837,-1.7772,-1.7853,-1.787,-1.7908,-1.7859,-1.7891,-1.7891,-1.787,-1.788,-1.7875,-1.7886,-1.7821,-1.7717,-1.7581,-1.7527,-1.7538,-1.7554,-1.75,-1.7456,-1.744,-1.7424,-1.7451,-1.7446,-1.7987,-1.881,-1.9423,-2.0262,-2.076,-2.1558,-2.2032,-2.2262,-2.24,-2.2695,-2.2445,-2.2276,-2.2208,-2.2276,-2.2316,-2.233,-2.2432,-2.2107,-2.2094,-2.2398,-2.2994,-2.2973,-2.2378,-2.2269,-2.2167,-2.2127,-2.2032,-2.1937,-2.1923,-2.193,-2.1869,-2.1781,-2.172,-2.1631,-2.1475,-2.0922,-2.0821,-2.1109,-2.1068,-2.1014,-2.0987,-2.0885,-2.0736,-2.0607,-2.0553,-2.0539,-2.0532,-2.0532,-2.0519,-2.0417,-2.02,-1.9949,-2.0003,-2.0052,-2.0637,-2.215,-2.4401,-2.6923,-2.9455,-3.1695,-3.3714,-3.4173,-3.4173,-3.4004,-3.3883,-3.3847,-3.3799,-3.3654,-3.3593,-3.3497,-3.3449,-3.3437,-3.3412,-3.3388,-3.34,-3.3388,-3.34,-3.3473,-3.3437,-3.3364,-3.3364,-3.3364,-1.7908,-1.7908,-1.7908,-1.7908,-1.7908,-1.7908,-1.7891,-1.787,-1.7891,-1.7886,-1.7875,-1.7897,-1.7908,-1.7908,-1.7908,-1.7908,-1.7908,-1.7908,-1.7908,-1.7908,-1.7908,-1.7897,-1.7842,-1.7739,-1.769,-1.7685,-1.7685,-1.7668,-1.7658,-1.7701,-1.7728,-1.7652,-1.7685,-1.7926,-1.8009,-1.9259,-1.9811,-2.0003,-2.1083,-2.2188,-2.2486,-2.2579,-2.2579,-2.2662,-2.2601,-2.2723,-2.2927,-2.2981,-2.3002,-2.294,-2.2436,-2.2328,-2.2771,-2.3114,-2.3059,-2.2649,-2.252,-2.2398,-2.231,-2.2242,-2.2188,-2.2086,-2.214,-2.2181,-2.2025,-2.1896,-2.1781,-2.1604,-2.1353,-2.1218,-2.1224,-2.1095,-2.1102,-2.1136,-2.1041,-2.0892,-2.0743,-2.0621,-2.056,-2.0526,-2.0458,-2.0376,-2.0376,-2.0227,-2.0044,-1.9949,-2.0324,-2.093,-2.3206,-2.5678,-2.8247,-3.1061,-3.2839,-3.4402,-3.4426,-3.439,-3.4233,-3.4137,-3.4113,-3.4088,-3.3956,-3.3835,-3.3775,-3.3642,-3.3497,-3.3449,-3.3376,-3.3376,-3.3376,-3.3376,-3.3364,-3.3364,-3.3364,-3.3364,-3.3364,-1.7908,-1.7908,-1.7908,-1.7908,-1.7908,-1.7908,-1.7908,-1.7908,-1.7908,-1.7908,-1.7908,-1.7908,-1.7908,-1.7908,-1.7908,-1.7908,-1.7908,-1.7908,-1.7908,-1.7908,-1.7908,-1.7908,-1.7902,-1.7848,-1.781,-1.781,-1.781,-1.781,-1.7832,-1.7859,-1.7853,-1.7815,-1.7875,-1.8081,-1.8211,-1.9437,-2.0301,-2.0807,-2.1691,-2.2174,-2.2581,-2.2826,-2.2771,-2.273,-2.2784,-2.29,-2.3069,-2.2947,-2.3029,-2.3083,-2.2657,-2.2543,-2.2968,-2.3008,-2.2934,-2.2791,-2.2635,-2.2534,-2.2452,-2.2378,-2.2296,-2.2228,-2.2296,-2.2235,-2.2147,-2.2032,-2.193,-2.1774,-2.1584,-2.17,-2.1421,-2.138,-2.1367,-2.136,-2.1224,-2.1048,-2.0892,-2.0743,-2.0607,-2.056,-2.0485,-2.0451,-2.0383,-2.0248,-2.0146,-2.0037,-2.0148,-2.1002,-2.4708,-2.7207,-2.9601,-3.1941,-3.3502,-3.4632,-3.4668,-3.4595,-3.4438,-3.4378,-3.4378,-3.4366,-3.4306,-3.4197,-3.4088,-3.3871,-3.3618,-3.3437,-3.3364,-3.3364,-3.3364,-3.3364,-3.3364,-3.3364,-3.3376,-3.3388,-3.3376,-1.7908,-1.7908,-1.7908,-1.7908,-1.7908,-1.7908,-1.7908,-1.7908,-1.7908,-1.7908,-1.7908,-1.7908,-1.7908,-1.7908,-1.7908,-1.7908,-1.7902,-1.787,-1.7859,-1.7859,-1.7859,-1.7859,-1.7853,-1.7848,-1.7864,-1.7902,-1.7891,-1.7891,-1.7897,-1.7908,-1.7897,-1.7897,-1.7902,-1.8152,-1.8747,-1.993,-2.0752,-2.1514,-2.1949,-2.2348,-2.2642,-2.2984,-2.3053,-2.2873,-2.2893,-2.3002,-2.3117,-2.3022,-2.2947,-2.3219,-2.2871,-2.2804,-2.3056,-2.2804,-2.271,-2.2859,-2.2778,-2.2696,-2.2561,-2.2472,-2.2425,-2.2384,-2.2344,-2.2283,-2.2188,-2.2147,-2.2072,-2.1937,-2.1781,-2.1679,-2.1699,-2.1625,-2.1631,-2.1604,-2.1401,-2.1204,-2.1048,-2.0647,-2.0783,-2.0566,-2.0471,-2.0424,-2.0397,-2.0309,-2.022,-2.0119,-2.023,-2.1564,-2.5294,-2.8066,-3.0252,-3.2602,-3.417,-3.4801,-3.4813,-3.4813,-3.4644,-3.4607,-3.4619,-3.4607,-3.4595,-3.445,-3.4269,-3.3968,-3.3714,-3.3557,-3.3412,-3.3364,-3.3364,-3.3364,-3.3364,-3.3364,-3.3388,-3.3412,-3.3449,-1.7908,-1.7908,-1.7908,-1.7908,-1.7908,-1.7908,-1.7908,-1.7908,-1.7908,-1.7908,-1.7908,-1.7908,-1.7908,-1.7908,-1.7908,-1.7908,-1.7886,-1.7837,-1.7777,-1.7772,-1.7766,-1.7766,-1.7772,-1.7783,-1.7821,-1.7886,-1.7908,-1.7908,-1.7908,-1.7908,-1.7908,-1.7908,-1.7908,-1.8186,-1.8463,-1.9314,-2.0468,-2.1308,-2.2009,-2.2389,-2.2751,-2.3114,-2.3231,-2.3103,-2.3137,-2.328,-2.3476,-2.3503,-2.3476,-2.3429,-2.3213,-2.3112,-2.332,-2.3139,-2.3045,-2.309,-2.311,-2.3008,-2.2683,-2.2662,-2.2622,-2.2534,-2.2439,-2.2364,-2.231,-2.2289,-2.2221,-2.2093,-2.1957,-2.1855,-2.1842,-2.1767,-2.1686,-2.1631,-2.1509,-2.1326,-2.1204,-2.1102,-2.0946,-2.0668,-2.0512,-2.0431,-2.0471,-2.0444,-2.0322,-2.0241,-2.0132,-2.2481,-2.6521,-2.8347,-2.9981,-3.2318,-3.4855,-3.5006,-3.4945,-3.4933,-3.4861,-3.4837,-3.4837,-3.4837,-3.4776,-3.4644,-3.4438,-3.4161,-3.3907,-3.3714,-3.3581,-3.3485,-3.3485,-3.3557,-3.3485,-3.34,-3.3521,-3.3654,-3.3714,-1.7908,-1.7908,-1.7908,-1.7908,-1.7908,-1.7908,-1.7908,-1.7908,-1.7908,-1.7908,-1.7908,-1.7908,-1.7908,-1.7908,-1.7908,-1.7908,-1.7886,-1.7853,-1.7783,-1.7739,-1.7723,-1.7723,-1.7723,-1.7723,-1.7799,-1.7875,-1.7908,-1.7908,-1.7908,-1.7908,-1.7908,-1.7908,-1.7908,-1.7908,-1.8202,-1.9367,-2.0208,-2.0821,-2.1808,-2.2805,-2.2913,-2.3314,-2.3219,-2.3307,-2.3422,-2.3537,-2.3612,-2.3592,-2.3571,-2.3571,-2.3333,-2.3327,-2.3353,-2.3687,-2.3373,-2.328,-2.3273,-2.3212,-2.2866,-2.2859,-2.2825,-2.2696,-2.2595,-2.2527,-2.2472,-2.2432,-2.2371,-2.2255,-2.2194,-2.212,-2.212,-2.1909,-2.1801,-2.174,-2.1584,-2.1387,-2.1265,-2.1224,-2.1041,-2.0824,-2.079,-2.075,-2.0709,-2.0627,-2.0458,-2.0349,-2.0268,-2.3401,-2.7246,-2.8609,-2.9472,-3.2929,-3.5223,-3.5151,-3.5054,-3.5006,-3.497,-3.497,-3.497,-3.497,-3.4945,-3.4801,-3.4644,-3.4438,-3.4185,-3.398,-3.3907,-3.3871,-3.3823,-3.3775,-3.3787,-3.3799,-3.3835,-3.3895,-3.3956,-1.7908,-1.7908,-1.7908,-1.7908,-1.7908,-1.7908,-1.7908,-1.7908,-1.7908,-1.7908,-1.7908,-1.7908,-1.7908,-1.7897,-1.788,-1.7875,-1.7891,-1.788,-1.7799,-1.7734,-1.7685,-1.7685,-1.7717,-1.7717,-1.7755,-1.7891,-1.7908,-1.7908,-1.7908,-1.7908,-1.7908,-1.7908,-1.7908,-1.7908,-1.8202,-1.9361,-1.999,-2.0635,-2.1919,-2.2927,-2.3103,-2.3334,-2.3517,-2.3537,-2.366,-2.3734,-2.3788,-2.3721,-2.3687,-2.3721,-2.3461,-2.3206,-2.3897,-2.4033,-2.389,-2.3503,-2.3409,-2.3286,-2.3103,-2.3097,-2.3035,-2.2852,-2.2798,-2.271,-2.2628,-2.2547,-2.2479,-2.2378,-2.233,-2.231,-2.2255,-2.2052,-2.1909,-2.1815,-2.1618,-2.1408,-2.1326,-2.1272,-2.1252,-2.1123,-2.1095,-2.1014,-2.0926,-2.0777,-2.06,-2.0526,-2.0451,-2.3348,-2.6973,-2.783,-2.9408,-3.3315,-3.5344,-3.5271,-3.5163,-3.5054,-3.5006,-3.497,-3.497,-3.497,-3.497,-3.4933,-3.4788,-3.4644,-3.4571,-3.439,-3.433,-3.4185,-3.4064,-3.4016,-3.4137,-3.4149,-3.4052,-3.4125,-3.4245,-1.7908,-1.7908,-1.7908,-1.7908,-1.7908,-1.7908,-1.7908,-1.7908,-1.7908,-1.7908,-1.7908,-1.7908,-1.7908,-1.7886,-1.7804,-1.7821,-1.7848,-1.7804,-1.775,-1.7712,-1.763,-1.7625,-1.7685,-1.7603,-1.7717,-1.7859,-1.7897,-1.7908,-1.7908,-1.7908,-1.7913,-1.7918,-1.7913,-1.7913,-1.8213,-1.9349,-2.0135,-2.0455,-2.1996,-2.3121,-2.3478,-2.3781,-2.3673,-2.3788,-2.3856,-2.3917,-2.3999,-2.3965,-2.3951,-2.3877,-2.3992,-2.3992,-2.3951,-2.4039,-2.4094,-2.4033,-2.3958,-2.3782,-2.3354,-2.3314,-2.3266,-2.3049,-2.29,-2.2798,-2.2717,-2.2608,-2.2493,-2.2357,-2.2344,-2.2323,-2.2269,-2.2052,-2.1923,-2.1781,-2.1611,-2.1475,-2.1394,-2.1346,-2.1326,-2.1326,-2.1272,-2.1163,-2.1062,-2.0899,-2.075,-2.0689,-2.1386,-2.4047,-2.694,-2.8541,-3.0169,-3.4139,-3.5549,-3.544,-3.5344,-3.5223,-3.5054,-3.4994,-3.497,-3.497,-3.497,-3.497,-3.497,-3.4849,-3.4788,-3.4668,-3.4487,-3.4342,-3.4233,-3.4269,-3.4378,-3.4306,-3.4185,-3.4318,-3.4511,-1.7908,-1.7908,-1.7908,-1.7908,-1.7908,-1.7908,-1.7908,-1.7908,-1.7908,-1.7908,-1.7908,-1.7908,-1.7908,-1.7886,-1.7842,-1.7859,-1.787,-1.7783,-1.7723,-1.7706,-1.7619,-1.7581,-1.7614,-1.7636,-1.7728,-1.781,-1.7864,-1.7908,-1.7908,-1.7918,-1.7929,-1.7984,-1.7946,-1.7946,-1.8274,-1.9396,-2.0002,-2.0947,-2.1977,-2.3362,-2.3636,-2.3856,-2.3748,-2.389,-2.3972,-2.4053,-2.41,-2.4121,-2.4094,-2.4033,-2.41,-2.4094,-2.4053,-2.4087,-2.4121,-2.4121,-2.4114,-2.3944,-2.3666,-2.3598,-2.3436,-2.3286,-2.3103,-2.2974,-2.3101,-2.2649,-2.25,-2.2357,-2.2344,-2.2303,-2.2208,-2.2011,-2.1876,-2.1733,-2.1577,-2.1502,-2.1441,-2.1441,-2.1414,-2.1428,-2.1428,-2.1306,-2.1204,-2.1109,-2.0967,-2.1116,-2.2039,-2.4698,-2.8374,-3.1774,-3.3416,-3.553,-3.5935,-3.5621,-3.5537,-3.5416,-3.5139,-3.5042,-3.497,-3.497,-3.497,-3.497,-3.497,-3.497,-3.4909,-3.4764,-3.4607,-3.4595,-3.4595,-3.4607,-3.4632,-3.4559,-3.4511,-3.4619,-3.4776,-1.7908,-1.7908,-1.7908,-1.7908,-1.7908,-1.7908,-1.7908,-1.7908,-1.7908,-1.7908,-1.7908,-1.7908,-1.7908,-1.7908,-1.7902,-1.7897,-1.7897,-1.781,-1.7777,-1.7728,-1.769,-1.7674,-1.7723,-1.749,-1.7528,-1.7848,-1.7935,-1.7989,-1.8005,-1.8005,-1.8044,-1.8071,-1.8,-1.8022,-1.8373,-1.9531,-2.0691,-2.1335,-2.2452,-2.3232,-2.3691,-2.3911,-2.3775,-2.391,-2.4026,-2.4121,-2.4121,-2.4121,-2.4114,-2.4114,-2.4114,-2.41,-2.4046,-2.4033,-2.4012,-2.3992,-2.3965,-2.3924,-2.3775,-2.3693,-2.3585,-2.3429,-2.33,-2.309,-2.3176,-2.2984,-2.2547,-2.2418,-2.2289,-2.2221,-2.2106,-2.195,-2.1801,-2.1672,-2.1536,-2.1482,-2.1441,-2.1441,-2.1441,-2.1441,-2.1441,-2.1441,-2.1353,-2.1313,-2.1197,-2.1315,-2.2972,-2.5354,-2.9269,-3.3423,-3.5345,-3.6454,-3.608,-3.5754,-3.5658,-3.5525,-3.5259,-3.5066,-3.4994,-3.497,-3.497,-3.497,-3.497,-3.497,-3.497,-3.4909,-3.4788,-3.4885,-3.4957,-3.4873,-3.4813,-3.4885,-3.4909,-3.497,-3.497,-1.7908,-1.7908,-1.7908,-1.7908,-1.7908,-1.7908,-1.7908,-1.7908,-1.7908,-1.7908,-1.7908,-1.7908,-1.7908,-1.7908,-1.7902,-1.7902,-1.7897,-1.7891,-1.7859,-1.7859,-1.7886,-1.7891,-1.7913,-1.7651,-1.7705,-1.8114,-1.8103,-1.8125,-1.819,-1.8163,-1.8141,-1.8087,-1.8076,-1.8141,-1.8766,-1.9642,-2.1091,-2.203,-2.3103,-2.3225,-2.3381,-2.3598,-2.3836,-2.3897,-2.4019,-2.4121,-2.4121,-2.41,-2.4094,-2.4094,-2.4066,-2.4019,-2.3931,-2.391,-2.3863,-2.3809,-2.3788,-2.3754,-2.3687,-2.3653,-2.3524,-2.3341,-2.3212,-2.3158,-2.3259,-2.2839,-2.269,-2.2201,-2.2262,-2.212,-2.2004,-2.1882,-2.172,-2.1611,-2.1516,-2.1469,-2.1441,-2.1441,-2.1441,-2.1441,-2.1441,-2.1441,-2.1435,-2.138,-2.1292,-2.1405,-2.3775,-2.6151,-2.9772,-3.3423,-3.5403,-3.649,-3.6116,-3.5863,-3.5742,-3.5549,-3.5295,-3.5102,-3.4982,-3.497,-3.497,-3.497,-3.497,-3.497,-3.497,-3.497,-3.497,-3.497,-3.497,-3.497,-3.497,-3.497,-3.497,-3.497,-3.497,-1.7908,-1.7908,-1.7908,-1.7908,-1.7908,-1.7908,-1.7908,-1.7908,-1.7908,-1.7908,-1.7908,-1.7908,-1.7908,-1.7908,-1.7897,-1.7859,-1.7799,-1.7793,-1.7804,-1.7826,-1.7864,-1.7929,-1.7978,-1.8071,-1.8136,-1.8169,-1.8451,-1.8428,-1.8136,-1.8245,-1.8239,-1.8196,-1.8196,-1.8207,-1.8822,-1.9759,-2.1526,-2.2757,-2.3158,-2.3246,-2.3388,-2.349,-2.3666,-2.3768,-2.3904,-2.3972,-2.3978,-2.3978,-2.3978,-2.3965,-2.391,-2.4138,-2.4076,-2.3761,-2.342,-2.3367,-2.3646,-2.3612,-2.3551,-2.3531,-2.3436,-2.3293,-2.3212,-2.3164,-2.3314,-2.2805,-2.2595,-2.2101,-2.188,-2.1984,-2.1828,-2.174,-2.1652,-2.1557,-2.1489,-2.1448,-2.1441,-2.1441,-2.1441,-2.1441,-2.1441,-2.1441,-2.1441,-2.1428,-2.1333,-2.148,-2.4111,-2.7205,-3.0575,-3.3445,-3.5673,-3.6611,-3.6261,-3.6068,-3.5947,-3.5658,-3.5344,-3.5175,-3.5018,-3.5018,-3.5042,-3.497,-3.497,-3.497,-3.497,-3.497,-3.497,-3.497,-3.497,-3.497,-3.497,-3.497,-3.497,-3.497,-3.4982,-1.7886,-1.7859,-1.7886,-1.7908,-1.7908,-1.7908,-1.7908,-1.7908,-1.7908,-1.7908,-1.7908,-1.7908,-1.7908,-1.7908,-1.7902,-1.7902,-1.7848,-1.7821,-1.7821,-1.788,-1.7967,-1.8,-1.8076,-1.8179,-1.8294,-1.825,-1.8544,-1.8561,-1.8299,-1.8337,-1.8337,-1.8337,-1.8348,-1.8375,-1.8677,-1.9871,-2.1692,-2.2918,-2.3232,-2.3259,-2.3079,-2.3436,-2.349,-2.3626,-2.3754,-2.3822,-2.3836,-2.3829,-2.3829,-2.3809,-2.3761,-2.3973,-2.3932,-2.3605,-2.3286,-2.326,-2.3239,-2.349,-2.3415,-2.3368,-2.3334,-2.3239,-2.3219,-2.3171,-2.3035,-2.2805,-2.2622,-2.1929,-2.188,-2.1842,-2.1726,-2.1665,-2.1577,-2.1482,-2.1469,-2.1441,-2.1441,-2.1441,-2.1441,-2.1441,-2.1441,-2.1441,-2.1441,-2.1428,-2.2402,-2.306,-2.5693,-2.8541,-3.164,-3.428,-3.5956,-3.6623,-3.6454,-3.6297,-3.6165,-3.5839,-3.5537,-3.5452,-3.5295,-3.5175,-3.5139,-3.5078,-3.4994,-3.497,-3.497,-3.497,-3.497,-3.497,-3.497,-3.497,-3.497,-3.497,-3.5018,-3.5042,-3.503,-1.7837,-1.7745,-1.7859,-1.7908,-1.7908,-1.7908,-1.7908,-1.7908,-1.7908,-1.7908,-1.7908,-1.7908,-1.7908,-1.7908,-1.7908,-1.7929,-1.7962,-1.7918,-1.7918,-1.8,-1.8114,-1.8201,-1.8272,-1.8348,-1.8457,-1.8549,-1.8506,-1.8473,-1.8544,-1.8538,-1.8506,-1.8473,-1.8489,-1.856,-1.8598,-2.0046,-2.1794,-2.2958,-2.3232,-2.3239,-2.3273,-2.3361,-2.3422,-2.3476,-2.3605,-2.368,-2.368,-2.368,-2.368,-2.3666,-2.3632,-2.3551,-2.347,-2.3456,-2.3112,-2.33,-2.328,-2.3253,-2.3232,-2.3232,-2.3232,-2.3225,-2.3219,-2.3198,-2.3151,-2.2954,-2.2737,-2.2055,-2.198,-2.1964,-2.1794,-2.1672,-2.1584,-2.1482,-2.1482,-2.1455,-2.1455,-2.1441,-2.1441,-2.1441,-2.1441,-2.1441,-2.1441,-2.1679,-2.3185,-2.4882,-2.7266,-2.9889,-3.2237,-3.481,-3.6461,-3.6708,-3.6587,-3.643,-3.6261,-3.5996,-3.5754,-3.5682,-3.5573,-3.544,-3.532,-3.5271,-3.5163,-3.5042,-3.503,-3.5078,-3.503,-3.497,-3.5006,-3.5042,-3.4982,-3.4982,-3.5042,-3.509,-3.5078,-1.7597,-1.7848,-1.7886,-1.7908,-1.7908,-1.7908,-1.7908,-1.7908,-1.7908,-1.7908,-1.7908,-1.7908,-1.7908,-1.7908,-1.7908,-1.7929,-1.7951,-1.7946,-1.7951,-1.7989,-1.8174,-1.8234,-1.831,-1.8451,-1.8571,-1.8598,-1.8571,-1.8517,-1.8484,-1.8576,-1.8544,-1.8495,-1.856,-1.8903,-1.9481,-2.0635,-2.1506,-2.2958,-2.3232,-2.3225,-2.3225,-2.328,-2.3307,-2.3314,-2.3456,-2.3524,-2.3531,-2.3531,-2.3531,-2.3517,-2.347,-2.3375,-2.332,-2.3314,-2.328,-2.3225,-2.3219,-2.3219,-2.3219,-2.3225,-2.3219,-2.3219,-2.3219,-2.3219,-2.3191,-2.2947,-2.2818,-2.2436,-2.2134,-2.2167,-2.2018,-2.1971,-2.1869,-2.1652,-2.1591,-2.1523,-2.1496,-2.1455,-2.1441,-2.1441,-2.1441,-2.1441,-2.1441,-2.17,-2.3215,-2.5714,-2.812,-2.9248,-3.1372,-3.4336,-3.6647,-3.6744,-3.6708,-3.6539,-3.6358,-3.6152,-3.5971,-3.5875,-3.5778,-3.5682,-3.5573,-3.5489,-3.5404,-3.5308,-3.5247,-3.5199,-3.5163,-3.5126,-3.5139,-3.5126,-3.5151,-3.5151,-3.5199,-3.5187,-3.5102,-1.7815,-1.7788,-1.787,-1.7908,-1.7908,-1.7908,-1.7908,-1.7908,-1.7908,-1.7908,-1.7908,-1.7908,-1.7908,-1.7908,-1.7908,-1.794,-1.7957,-1.7967,-1.8016,-1.8044,-1.8223,-1.831,-1.8397,-1.8506,-1.8593,-1.862,-1.8614,-1.8576,-1.8533,-1.8587,-1.8576,-1.8549,-1.8582,-1.8898,-1.9487,-2.0352,-2.1217,-2.2376,-2.265,-2.3219,-2.3219,-2.3232,-2.3225,-2.3253,-2.3314,-2.3375,-2.3368,-2.3375,-2.3375,-2.3341,-2.3293,-2.3219,-2.3219,-2.3219,-2.3219,-2.3219,-2.3219,-2.3219,-2.3219,-2.3219,-2.3219,-2.3219,-2.3219,-2.3219,-2.3185,-2.3002,-2.2913,-2.2791,-2.2581,-2.2391,-2.2242,-2.2208,-2.2052,-2.1835,-2.174,-2.1679,-2.1638,-2.1604,-2.1516,-2.1509,-2.1448,-2.1441,-2.1435,-2.1958,-2.2731,-2.5747,-2.8728,-2.9865,-3.0976,-3.4176,-3.6623,-3.6672,-3.6732,-3.6587,-3.6478,-3.6394,-3.6225,-3.6068,-3.5983,-3.5911,-3.5839,-3.5754,-3.5658,-3.5573,-3.5513,-3.5452,-3.5356,-3.532,-3.5416,-3.5464,-3.5464,-3.544,-3.5404,-3.5392,-3.5368,-1.7932,-1.7865,-1.7799,-1.7897,-1.7902,-1.7908,-1.7902,-1.7897,-1.7897,-1.7891,-1.7891,-1.7886,-1.788,-1.7891,-1.7897,-1.7962,-1.8027,-1.8044,-1.8114,-1.8217,-1.8315,-1.8381,-1.8451,-1.8549,-1.8609,-1.862,-1.862,-1.8614,-1.8609,-1.8614,-1.8609,-1.8609,-1.8609,-1.862,-1.9198,-2.0058,-2.0923,-2.1499,-2.2363,-2.2931,-2.3219,-2.3219,-2.3219,-2.3232,-2.3253,-2.3259,-2.3259,-2.3259,-2.3253,-2.3239,-2.3225,-2.3219,-2.3219,-2.3219,-2.3219,-2.3219,-2.3219,-2.3219,-2.3219,-2.3219,-2.3219,-2.3219,-2.3219,-2.3219,-2.3185,-2.3097,-2.3035,-2.2954,-2.2805,-2.2601,-2.2432,-2.231,-2.2188,-2.2059,-2.195,-2.1896,-2.1848,-2.1781,-2.1672,-2.1591,-2.1489,-2.1455,-2.1441,-2.1958,-2.2738,-2.6328,-2.932,-3.2016,-3.3324,-3.4709,-3.6696,-3.6575,-3.6611,-3.6587,-3.6527,-3.6503,-3.6454,-3.6285,-3.6237,-3.6165,-3.6092,-3.6032,-3.5947,-3.5863,-3.579,-3.5718,-3.567,-3.5706,-3.5815,-3.5827,-3.5827,-3.5815,-3.579,-3.5875,-3.5875,-1.7619,-1.7954,-1.7745,-1.7821,-1.7897,-1.7908,-1.7853,-1.7783,-1.7777,-1.7777,-1.7777,-1.7777,-1.7804,-1.7783,-1.7864,-1.7967,-1.8005,-1.8027,-1.8109,-1.8207,-1.8315,-1.837,-1.8451,-1.8555,-1.8609,-1.862,-1.862,-1.862,-1.862,-1.862,-1.862,-1.862,-1.862,-1.862,-1.8909,-1.9487,-2.0346,-2.0917,-2.1781,-2.265,-2.3225,-2.3219,-2.3219,-2.3219,-2.3219,-2.3219,-2.3219,-2.3219,-2.3219,-2.3219,-2.3219,-2.3219,-2.3219,-2.3219,-2.3219,-2.3219,-2.3219,-2.3219,-2.3219,-2.3219,-2.3219,-2.3219,-2.3219,-2.3219,-2.3205,-2.3178,-2.3144,-2.3069,-2.3022,-2.2859,-2.2737,-2.2622,-2.2459,-2.231,-2.2201,-2.212,-2.2045,-2.1848,-2.174,-2.1597,-2.1496,-2.1455,-2.1441,-2.1435,-2.2738,-2.6615,-2.9904,-3.2868,-3.522,-3.6358,-3.6877,-3.6744,-3.6696,-3.6732,-3.6635,-3.6587,-3.6563,-3.6515,-3.6442,-3.6394,-3.637,-3.6297,-3.6225,-3.6128,-3.602,-3.6008,-3.6032,-3.6068,-3.6068,-3.6201,-3.6225,-3.6201,-3.6189,-3.6237,-3.6297,-1.7625,-1.7663,-1.7755,-1.781,-1.7837,-1.7886,-1.7837,-1.7745,-1.7772,-1.7793,-1.7793,-1.7799,-1.7799,-1.7815,-1.788,-1.794,-1.7989,-1.8011,-1.8071,-1.8147,-1.8277,-1.837,-1.8468,-1.8555,-1.8609,-1.862,-1.862,-1.862,-1.862,-1.862,-1.862,-1.862,-1.862,-1.862,-1.862,-1.9198,-1.9481,-2.0341,-2.1205,-2.2363,-2.2945,-2.3225,-2.3219,-2.3219,-2.3219,-2.3219,-2.3219,-2.3219,-2.3219,-2.3219,-2.3219,-2.3219,-2.3219,-2.3219,-2.3219,-2.3219,-2.3219,-2.3219,-2.3219,-2.3219,-2.3219,-2.3219,-2.3219,-2.3219,-2.3219,-2.3205,-2.3198,-2.3178,-2.3185,-2.3158,-2.3076,-2.2974,-2.2771,-2.2574,-2.2466,-2.2357,-2.2147,-2.1923,-2.1753,-2.1591,-2.1509,-2.1455,-2.1441,-2.1441,-2.3002,-2.7165,-3.0231,-3.2716,-3.5101,-3.6858,-3.7166,-3.7046,-3.6997,-3.6973,-3.6841,-3.672,-3.6708,-3.6672,-3.6563,-3.6539,-3.6563,-3.6515,-3.6394,-3.6309,-3.6225,-3.6237,-3.6273,-3.6249,-3.6261,-3.6418,-3.6527,-3.649,-3.6454,-3.6442,-3.6527,-1.7636,-1.7581,-1.781,-1.7842,-1.7761,-1.7864,-1.7842,-1.7755,-1.7848,-1.7891,-1.7597,-1.7875,-1.7864,-1.7842,-1.7886,-1.7908,-1.7951,-1.7984,-1.8027,-1.8087,-1.8277,-1.8391,-1.8462,-1.8555,-1.8614,-1.862,-1.862,-1.862,-1.862,-1.862,-1.862,-1.862,-1.862,-1.862,-1.862,-1.862,-1.8903,-1.9186,-2.0629,-2.2082,-2.2958,-2.3239,-2.3219,-2.3219,-2.3219,-2.3219,-2.3219,-2.3219,-2.3219,-2.3219,-2.3219,-2.3219,-2.3219,-2.3219,-2.3219,-2.3219,-2.3219,-2.3219,-2.3219,-2.3219,-2.3219,-2.3219,-2.3219,-2.3219,-2.3219,-2.3219,-2.3219,-2.3219,-2.3212,-2.3191,-2.3117,-2.3083,-2.2947,-2.2812,-2.271,-2.2588,-2.2418,-2.2106,-2.1753,-2.1597,-2.1482,-2.1441,-2.1441,-2.1435,-2.3531,-2.7968,-3.0288,-3.2273,-3.527,-3.7348,-3.7432,-3.7323,-3.7227,-3.7142,-3.7046,-3.6937,-3.6889,-3.6816,-3.6672,-3.6599,-3.6563,-3.6551,-3.6551,-3.6466,-3.6382,-3.6454,-3.6478,-3.643,-3.6466,-3.6684,-3.6768,-3.6756,-3.672,-3.6659,-3.6696,-1.7538,-1.7696,-1.7842,-1.7886,-1.7864,-1.7891,-1.7891,-1.7864,-1.7891,-1.7853,-1.7783,-1.7772,-1.7772,-1.7788,-1.7875,-1.7902,-1.7908,-1.794,-1.8,-1.8082,-1.8245,-1.8359,-1.8446,-1.8549,-1.8609,-1.862,-1.862,-1.862,-1.862,-1.862,-1.862,-1.862,-1.862,-1.862,-1.862,-1.862,-1.8614,-1.8593,-1.9746,-2.1474,-2.2624,-2.2644,-2.265,-2.2931,-2.3219,-2.3219,-2.3219,-2.3219,-2.3219,-2.3219,-2.3219,-2.3219,-2.3219,-2.3219,-2.3219,-2.3219,-2.3219,-2.3219,-2.3219,-2.3219,-2.3219,-2.3219,-2.3219,-2.3219,-2.3219,-2.3219,-2.3219,-2.3219,-2.3212,-2.3191,-2.3171,-2.3151,-2.3117,-2.3022,-2.2927,-2.2791,-2.2656,-2.2221,-2.1781,-2.1611,-2.1475,-2.1441,-2.1441,-2.2488,-2.4842,-2.6928,-2.9013,-3.1587,-3.5484,-3.7915,-3.7686,-3.7553,-3.7396,-3.7299,-3.7239,-3.7118,-3.7046,-3.6853,-3.6672,-3.6599,-3.6563,-3.6659,-3.6732,-3.6599,-3.6539,-3.6587,-3.6587,-3.6539,-3.6635,-3.6804,-3.6816,-3.6732,-3.6804,-3.678,-3.6828,-1.7744,-1.7937,-1.7832,-1.7908,-1.7908,-1.7908,-1.7908,-1.7908,-1.7908,-1.787,-1.781,-1.7799,-1.7777,-1.775,-1.7848,-1.7859,-1.7853,-1.7886,-1.7935,-1.8022,-1.8169,-1.8283,-1.8402,-1.8527,-1.8598,-1.862,-1.862,-1.862,-1.862,-1.862,-1.862,-1.862,-1.862,-1.862,-1.862,-1.862,-1.8593,-1.8544,-1.9119,-2.0239,-2.1953,-2.1985,-2.2304,-2.2878,-2.3178,-2.3198,-2.3219,-2.3219,-2.3219,-2.3219,-2.3219,-2.3219,-2.3219,-2.3219,-2.3219,-2.3219,-2.3219,-2.3219,-2.3219,-2.3219,-2.3219,-2.3219,-2.3219,-2.3219,-2.3219,-2.3219,-2.3219,-2.3219,-2.3219,-2.3198,-2.3198,-2.3191,-2.3124,-2.3035,-2.2947,-2.2846,-2.2547,-2.214,-2.1828,-2.1645,-2.1523,-2.1441,-2.1441,-2.1435,-2.4051,-2.7968,-2.9535,-3.2147,-3.5798,-3.8156,-3.7951,-3.7794,-3.7661,-3.7661,-3.7698,-3.7468,-3.7179,-3.6949,-3.6684,-3.6599,-3.6575,-3.6816,-3.6913,-3.6732,-3.6635,-3.6672,-3.6659,-3.6623,-3.6587,-3.6684,-3.6684,-3.6635,-3.6744,-3.6828,-3.678,-1.77,-1.7865,-1.7793,-1.7891,-1.7908,-1.7908,-1.7908,-1.7908,-1.7908,-1.7891,-1.7859,-1.7859,-1.781,-1.7793,-1.7837,-1.7793,-1.7793,-1.787,-1.7902,-1.7973,-1.8131,-1.8196,-1.831,-1.8457,-1.8555,-1.8614,-1.862,-1.862,-1.862,-1.862,-1.862,-1.862,-1.862,-1.862,-1.862,-1.8609,-1.8576,-1.8495,-1.8732,-1.9219,-2.0097,-2.1311,-2.2213,-2.2811,-2.313,-2.3212,-2.3219,-2.3219,-2.3219,-2.3219,-2.3219,-2.3219,-2.3219,-2.3219,-2.3219,-2.3219,-2.3219,-2.3219,-2.3219,-2.3219,-2.3219,-2.3219,-2.3219,-2.3219,-2.3219,-2.3219,-2.3219,-2.3219,-2.3219,-2.3219,-2.3219,-2.3198,-2.313,-2.3042,-2.2961,-2.2798,-2.2418,-2.2065,-2.1869,-2.1665,-2.155,-2.1448,-2.1441,-2.1441,-2.4051,-2.7968,-3.1098,-3.397,-3.6055,-3.7375,-3.806,-3.8011,-3.7951,-3.7999,-3.8011,-3.7698,-3.7287,-3.7022,-3.678,-3.6647,-3.6587,-3.6732,-3.6816,-3.6792,-3.6732,-3.6792,-3.6756,-3.672,-3.6684,-3.6635,-3.6599,-3.6599,-3.6611,-3.6659,-3.6611,-1.7407,-1.7696,-1.7739,-1.781,-1.7897,-1.7908,-1.7908,-1.7908,-1.7908,-1.7853,-1.7793,-1.7761,-1.7734,-1.7448,-1.7848,-1.7837,-1.7761,-1.7848,-1.7891,-1.7946,-1.8071,-1.8103,-1.8185,-1.8364,-1.8511,-1.8576,-1.8598,-1.8614,-1.8576,-1.8593,-1.8614,-1.8609,-1.862,-1.862,-1.8614,-1.8593,-1.8538,-1.844,-1.837,-1.8589,-1.8777,-1.999,-2.1571,-2.2492,-2.3144,-2.3198,-2.3219,-2.3219,-2.3219,-2.3219,-2.3219,-2.3219,-2.3219,-2.3219,-2.3219,-2.3219,-2.3219,-2.3219,-2.3219,-2.3219,-2.3219,-2.3219,-2.3219,-2.3219,-2.3219,-2.3219,-2.3219,-2.3219,-2.3219,-2.3219,-2.3219,-2.3198,-2.3137,-2.3035,-2.294,-2.2615,-2.2255,-2.2018,-2.2091,-2.1645,-2.1489,-2.1441,-2.1441,-2.2223,-2.3795,-2.7191,-2.9535,-3.2406,-3.6324,-3.7363,-3.8156,-3.8156,-3.8156,-3.7999,-3.7854,-3.7673,-3.7348,-3.7082,-3.6877,-3.678,-3.6684,-3.6587,-3.6635,-3.678,-3.6877,-3.6937,-3.6901,-3.6816,-3.6756,-3.6708,-3.6599,-3.6563,-3.6563,-3.6599,-3.6647]}]]